GFSCGP_con_3kmhel_000.txt.gz
Helicity
60 13 40 44 11 13 9 11 27 98 19 23 149 195 249 241 281 312 353 359 416 487 501 378 380 340 364 350 304 239 150 141 241 324 358 290 254 175 224 264 230 186 136 132
42 52 25 49 21 10 25 58 119 105 65 59 239 353 287 318 311 301 353 367 302 364 404 355 362 343 270 251 278 304 230 253 240 227 198 197 191 223 204 196 178 241 194 224
23 25 45 56 88 74 132 111 73 54 34 143 228 347 333 383 385 407 352 280 211 181 173 168 166 159 187 206 135 106 116 159 178 191 172 177 157 153 185 178 162 151 173 160
46 70 55 68 59 64 51 102 72 67 68 89 28 242 287 289 378 335 292 194 150 116 50 31 44 91 108 47 21 51 57 74 87 74 80 103 115 143 116 113 94 122 143 171
32 53 68 48 34 44 38 57 61 67 66 61 132 259 264 220 296 234 178 139 16 -83 -6 -13 -12 14 46 62 55 35 33 49 41 20 61 68 83 80 81 121 177 206 175 182
42 18 39 38 63 81 73 66 85 91 99 109 132 162 189 264 323 260 138 106 23 45 59 57 35 68 55 26 22 38 32 21 1 30 38 46 39 99 180 188 206 231 239 236
60 61 62 56 59 77 80 63 93 103 106 98 53 120 119 213 240 225 218 106 50 47 81 73 72 56 45 51 56 66 56 51 71 74 132 173 246 313 320 357 303 218 213 203
31 48 44 65 27 17 29 19 27 38 43 51 91 114 92 169 218 81 110 53 50 137 83 79 143 121 186 227 223 186 165 169 224 292 359 398 396 367 288 269 284 142 125 241
34 36 41 31 58 14 25 27 13 40 30 64 81 147 67 110 133 174 30 77 127 216 287 272 243 257 297 241 193 164 141 122 144 162 163 178 189 181 148 49 60 62 202 210
34 29 60 67 64 64 28 -0 -0 6 42 88 90 106 118 114 171 243 224 206 310 356 339 336 323 259 254 179 116 88 115 128 98 154 201 183 107 83 62 107 146 210 229 256
55 34 55 35 18 2 -9 -9 20 44 54 81 145 139 69 158 217 312 321 317 326 331 351 326 269 224 199 129 84 72 138 130 116 166 176 127 109 105 117 171 233 262 281 186
63 23 -6 -2 -21 -3 25 37 39 59 57 78 113 121 87 151 166 146 185 267 301 401 326 230 187 160 91 116 178 192 210 201 187 134 113 106 105 115 154 214 235 223 220 231
69 1 1 -32 -15 -1 41 46 70 90 68 90 127 109 118 154 187 243 336 349 372 264 214 172 121 81 158 235 226 205 188 151 102 65 55 47 82 136 175 222 262 364 331 422
57 31 5 17 18 30 45 71 98 138 155 151 155 120 216 238 319 374 342 283 302 254 221 167 130 121 103 196 237 206 167 100 56 51 36 41 36 58 123 263 322 338 189 111
55 44 55 61 60 52 54 82 103 115 114 172 97 189 285 282 318 320 330 313 311 282 208 107 78 112 183 257 220 176 120 88 65 58 43 52 53 92 109 178 205 160 54 77
100 62 73 58 79 74 50 22 35 56 88 99 273 345 384 387 357 302 256 255 222 152 67 -9 43 147 220 189 155 115 101 81 58 58 72 83 80 102 104 121 126 92 89 70
101 98 94 57 94 83 90 74 92 168 128 136 211 257 366 356 290 216 191 164 111 52 -56 -2 97 148 154 133 127 124 90 75 77 74 55 62 67 78 86 90 71 76 72 66
103 132 119 84 114 110 105 98 132 210 178 215 276 276 268 241 208 174 92 52 -7 -60 -41 86 145 142 127 145 141 122 101 93 85 76 70 76 77 74 90 93 96 109 82 60
123 131 131 107 101 96 133 184 151 165 154 161 217 225 230 174 166 112 55 -0 33 75 119 104 105 138 164 146 112 128 156 149 131 105 94 82 79 83 114 99 134 91 86 112
182 180 151 127 128 83 119 171 166 160 132 147 169 190 205 236 255 131 72 137 140 130 114 135 134 157 154 160 182 200 191 179 135 109 87 91 70 91 114 138 113 93 100 147
172 177 151 189 154 117 80 180 158 237 96 129 175 211 215 216 185 140 186 165 137 150 201 209 228 215 189 184 201 216 205 181 137 117 101 106 105 100 104 109 119 116 137 185
122 152 147 205 202 115 104 227 249 143 166 205 218 236 223 227 200 188 213 211 306 285 261 251 227 202 178 205 206 199 179 149 145 122 96 98 107 106 105 97 114 136 129 112
169 153 132 156 116 125 95 161 181 228 255 253 267 250 236 222 204 248 332 370 274 240 220 195 190 178 178 168 171 177 154 141 152 130 102 102 104 104 104 108 110 112 99 71
126 201 184 216 131 133 140 235 263 273 263 280 246 224 240 237 285 397 363 287 242 209 178 147 151 156 149 142 142 145 136 145 175 158 126 112 106 85 83 89 108 104 81 53
92 170 161 189 198 251 245 225 249 269 257 223 221 213 222 372 380 285 256 234 194 142 118 128 149 146 143 144 134 125 135 129 165 161 139 106 94 89 86 114 115 79 52 48
156 153 190 158 120 139 146 165 241 260 212 218 219 389 401 338 274 231 217 167 122 110 135 150 139 145 151 142 110 104 142 168 163 134 114 103 95 84 90 97 95 65 44 53

GFSCGP_con_3kmhel_003.txt.gz
Helicity
68 54 69 68 41 21 25 17 45 20 60 118 91 191 203 214 207 299 361 404 430 410 339 286 282 211 269 303 325 292 261 216 190 226 262 247 212 177 174 201 208 182 122 99
82 45 54 36 29 24 21 33 62 156 153 193 225 298 222 257 234 271 356 389 386 398 412 323 246 240 258 206 219 201 164 163 176 171 187 158 92 100 156 148 121 109 116 145
37 73 40 26 58 28 69 61 97 135 173 231 371 316 313 280 280 287 258 191 208 165 115 107 102 128 166 191 161 97 39 50 54 73 71 86 93 102 120 109 101 121 130 152
54 74 51 65 50 34 106 132 147 124 141 116 141 194 221 241 236 221 189 127 83 -14 -21 -51 -1 80 89 63 45 56 69 70 71 72 63 58 64 83 64 60 56 104 139 141
45 44 55 49 45 61 63 106 104 107 140 187 209 214 216 249 239 180 123 67 23 -34 -20 -19 27 0 23 40 61 55 59 64 35 49 43 31 18 59 119 149 195 220 222 253
74 52 62 50 61 67 77 84 119 128 154 186 172 217 190 243 216 170 87 36 -13 -18 -90 -29 27 51 58 65 71 64 72 68 68 83 94 116 141 173 210 238 247 217 236 177
84 91 95 82 55 71 71 80 92 102 121 121 153 176 117 68 203 86 14 9 -3 -8 -18 52 148 152 148 133 118 127 121 119 129 173 222 253 253 213 181 189 223 237 176 160
64 83 80 82 46 37 68 48 53 22 18 61 125 110 114 123 122 11 30 43 74 113 270 278 252 208 197 183 173 171 167 186 185 189 190 214 196 205 233 213 205 180 176 166
29 48 70 69 50 26 39 71 41 79 88 91 96 136 124 165 192 194 183 209 206 240 360 435 369 305 270 225 203 194 200 232 257 230 231 215 185 196 198 173 161 137 168 199
31 53 59 75 48 70 35 8 24 43 46 50 70 110 138 150 151 157 179 270 359 425 461 423 360 309 272 236 221 225 280 313 239 211 190 186 200 183 169 175 171 208 195 233
44 39 59 63 58 34 35 13 25 23 24 45 66 64 103 165 180 219 287 362 428 433 418 431 379 275 224 186 225 232 286 257 214 196 184 169 175 168 152 157 169 181 246 297
60 50 79 49 63 45 18 14 27 41 30 63 88 68 91 155 229 319 322 331 386 453 427 390 301 224 168 184 128 194 208 179 131 98 79 76 62 77 94 99 129 264 349 389
78 76 81 79 71 53 29 38 58 63 67 67 110 73 151 275 357 341 418 397 445 398 345 272 211 142 144 95 178 191 149 102 66 66 62 48 50 65 68 78 161 276 236 192
76 67 23 1 14 44 55 69 78 94 90 87 109 124 163 289 411 425 420 395 374 330 269 218 188 126 103 104 180 126 93 72 68 60 69 61 70 68 72 76 116 146 177 167
81 48 62 74 83 62 57 74 92 107 123 164 84 148 170 298 407 406 397 357 315 262 223 219 198 149 110 143 98 93 68 61 50 85 72 74 57 51 71 97 120 129 125 119
114 54 98 83 107 96 59 68 65 78 114 139 149 147 169 281 356 356 294 279 268 251 213 162 104 120 91 66 81 72 59 59 70 73 79 67 78 84 94 96 100 103 77 96
96 86 113 69 103 100 58 74 126 121 147 181 206 143 260 253 275 268 238 233 205 162 122 111 82 33 45 71 66 70 78 99 106 99 85 96 107 110 111 105 93 114 120 169
92 132 145 97 135 119 75 97 86 146 151 158 178 217 234 214 175 203 196 204 164 127 96 48 47 40 52 82 102 103 133 143 146 124 134 138 136 134 120 109 104 110 127 73
115 133 161 146 131 134 132 139 210 184 119 142 167 172 152 209 266 180 155 165 135 87 64 87 91 95 125 131 132 161 166 169 162 179 170 158 148 137 121 112 116 118 104 101
175 193 178 182 169 116 85 129 170 185 153 149 187 173 193 288 265 177 179 214 138 122 185 162 156 187 186 170 177 183 184 198 195 182 167 145 140 123 103 108 105 112 123 152
140 173 152 175 154 135 85 184 252 250 102 116 100 144 265 270 218 199 263 204 219 300 272 258 254 200 159 175 216 198 190 195 191 172 151 145 115 108 97 105 109 110 144 181
102 134 145 218 215 161 162 299 203 121 170 111 161 213 248 216 221 240 247 339 346 308 273 242 214 182 176 194 195 187 195 180 162 158 159 145 123 125 122 117 111 131 146 151
157 147 130 148 127 146 65 124 123 167 180 176 231 279 238 258 257 265 355 373 323 255 231 193 177 169 147 167 180 190 179 158 145 159 170 162 145 129 115 117 137 141 140 129
141 148 190 220 142 112 98 116 148 176 183 231 266 280 289 287 288 374 363 308 235 207 195 165 151 139 143 159 181 182 154 134 138 138 150 165 149 108 107 125 144 144 122 111
110 150 133 148 114 133 137 144 159 212 249 277 289 269 279 344 356 357 317 227 199 174 149 131 126 140 145 164 166 143 129 124 134 130 127 139 149 121 122 114 112 90 86 115
156 172 199 166 120 158 129 127 175 246 242 257 339 365 356 379 320 264 229 178 149 128 129 140 141 146 154 163 153 132 124 121 133 116 105 125 135 132 136 116 100 59 58 88

GFSCGP_con_3kmhel_006.txt.gz
Helicity
89 96 80 54 14 16 14 13 23 49 50 118 76 88 120 165 172 142 171 206 222 232 203 157 162 152 219 297 327 263 268 185 121 68 95 127 135 128 87 103 127 152 144 148
98 95 50 53 56 46 39 53 74 85 178 138 129 165 167 184 138 127 151 192 226 225 231 218 195 164 148 103 77 25 -9 -52 -18 10 39 65 75 63 111 125 171 193 152 140
28 53 65 54 70 36 45 34 21 77 178 147 153 159 177 191 165 163 153 107 99 91 91 78 82 42 23 28 -12 12 16 14 48 74 81 89 85 102 117 137 139 154 169 159
29 58 19 58 34 26 49 55 83 108 162 118 112 113 141 152 162 139 101 100 87 92 67 77 56 69 70 87 94 80 86 84 71 59 82 86 89 104 98 93 124 147 153 131
73 61 58 34 34 29 62 90 90 118 156 164 179 159 179 196 159 153 106 87 67 35 -43 30 51 41 120 116 78 60 71 75 78 95 107 116 134 143 157 177 167 130 133 158
94 82 69 53 60 69 61 113 151 136 132 136 147 192 163 210 171 201 156 69 34 37 53 135 69 60 88 106 112 101 120 115 102 131 162 185 213 211 231 210 198 227 216 185
103 86 84 80 75 74 85 105 105 109 133 113 170 190 137 74 133 142 60 12 58 89 104 102 133 187 156 181 165 163 174 204 218 242 235 226 209 207 220 238 252 236 215 204
51 71 80 97 74 60 88 80 92 -3 9 30 158 68 119 46 81 77 11 40 102 79 116 188 198 254 255 277 231 212 197 190 188 223 254 224 197 190 198 217 216 193 186 167
54 56 81 80 62 55 55 77 56 64 19 38 69 93 91 96 83 133 133 155 179 172 233 279 290 329 332 321 272 211 170 160 164 172 192 197 184 186 175 177 159 158 165 214
27 48 67 72 54 79 44 36 49 74 50 41 39 53 81 101 102 133 192 189 209 237 303 336 393 382 364 312 222 226 130 152 129 188 173 148 149 155 144 115 108 123 151 211
53 56 60 66 76 64 62 42 55 41 40 26 19 17 45 94 136 236 218 226 294 329 363 465 472 409 339 282 225 132 203 142 180 158 120 132 115 95 91 87 88 93 113 178
75 39 81 56 65 47 44 28 40 41 24 57 64 51 38 29 138 305 258 288 333 352 442 472 384 323 273 165 136 167 96 115 142 105 89 83 73 70 64 66 69 66 130 211
46 61 95 92 71 68 36 54 71 73 67 53 86 35 58 117 225 250 344 396 399 428 425 386 297 239 157 179 155 59 97 107 100 92 57 42 57 62 54 59 69 97 142 171
89 72 48 5 19 60 50 71 93 95 78 70 98 87 82 126 210 291 376 421 412 364 325 285 246 191 196 127 18 79 101 93 80 68 56 66 69 50 54 79 93 116 142 142
95 57 79 79 84 69 54 62 90 101 111 107 78 116 89 153 221 306 368 394 374 312 279 254 239 198 110 41 79 90 83 78 90 87 90 84 71 71 89 107 119 132 130 128
108 57 85 73 99 106 66 56 83 117 129 105 121 102 117 156 303 326 340 325 284 257 234 223 201 105 70 64 97 82 75 85 115 108 97 114 121 116 126 132 131 124 119 121
104 80 90 57 103 106 54 78 147 158 163 174 170 126 176 160 195 253 269 251 204 201 189 182 133 76 89 79 98 87 99 115 133 147 152 160 153 143 145 137 131 127 117 122
94 137 139 91 134 117 96 119 105 126 116 176 165 132 141 152 206 184 177 192 179 171 172 148 125 107 86 116 129 126 129 141 175 173 174 180 177 162 154 140 126 122 120 101
123 133 165 155 142 151 149 126 139 173 110 206 176 168 186 197 235 118 139 182 181 159 145 155 122 148 141 139 152 150 151 183 196 176 193 184 178 167 154 139 117 113 114 131
142 162 171 197 194 156 96 113 137 183 193 159 213 174 175 227 251 117 182 225 189 189 242 190 194 209 184 182 178 203 201 187 179 187 182 177 177 169 155 136 108 117 122 133
126 153 161 210 204 191 90 154 197 236 93 92 99 121 220 211 179 163 178 249 258 285 299 272 260 222 188 205 219 181 175 173 183 183 174 172 175 176 162 138 125 120 147 182
103 118 122 189 224 170 142 255 190 99 111 61 63 151 181 229 269 259 261 311 326 329 317 276 243 189 165 163 180 177 166 173 182 173 165 159 170 185 173 131 110 130 164 175
145 131 135 137 137 115 25 71 72 135 127 127 165 189 202 323 307 277 290 330 298 306 305 194 167 148 139 151 170 171 166 178 167 165 155 139 142 160 152 112 106 147 160 153
127 150 196 188 118 93 87 78 87 128 140 164 165 222 312 317 314 362 433 428 433 250 149 124 138 137 139 144 143 165 170 172 167 161 145 129 141 145 153 131 122 129 128 130
122 135 140 134 85 105 95 125 114 136 154 167 186 228 290 354 377 407 382 416 293 148 101 122 141 139 126 127 142 163 170 175 162 155 138 125 132 143 149 134 127 118 111 123
158 182 185 144 121 154 102 84 90 114 130 175 247 312 343 373 386 406 404 337 141 76 104 137 137 134 118 136 140 143 159 171 152 137 122 125 116 127 163 152 134 100 83 61

GFSCGP_con_3kmhel_009.txt.gz
Helicity
50 45 55 29 40 17 31 57 43 51 35 62 53 34 68 73 67 51 57 79 109 126 122 128 119 112 140 145 145 139 130 114 107 94 40 0 14 83 123 163 160 165 173 177
90 101 74 61 55 45 43 26 35 67 88 64 62 89 74 86 77 57 54 83 117 167 168 138 124 119 108 66 63 51 62 43 10 -66 -51 23 62 106 142 155 173 175 173 164
38 61 55 85 82 65 56 9 2 15 136 138 77 61 80 112 118 100 102 116 133 116 122 82 60 36 10 21 22 48 -17 -46 -28 0 38 93 128 134 124 146 157 149 146 169
84 66 37 46 46 17 13 14 62 87 91 82 73 18 73 109 130 116 113 129 107 104 97 98 85 78 6 -11 37 54 45 59 72 56 65 81 97 117 152 175 167 205 200 169
37 10 23 11 24 34 10 64 92 75 82 65 91 72 97 155 134 131 120 155 132 137 131 66 25 13 16 64 130 113 163 137 115 115 117 119 137 156 186 196 219 210 177 135
52 88 51 34 54 63 14 105 124 106 98 71 91 109 96 189 157 161 163 171 125 126 91 95 81 47 90 182 147 200 229 232 231 218 205 187 174 196 212 211 195 179 159 149
89 71 56 41 66 93 84 98 77 63 93 68 114 127 123 123 105 172 156 134 129 94 84 75 99 118 162 214 251 288 263 230 190 177 154 153 164 188 194 170 146 135 135 128
1 12 70 104 77 59 85 80 85 44 58 60 82 57 81 59 84 104 97 106 105 80 76 105 149 163 227 290 302 280 261 242 203 152 118 149 180 180 140 128 119 119 121 124
32 47 79 87 83 76 69 89 87 85 37 3 4 26 -9 88 126 159 236 244 192 140 136 160 204 232 280 282 267 272 284 246 202 130 88 130 146 109 94 90 92 96 92 105
31 58 69 57 65 88 53 67 49 52 10 32 52 70 62 33 87 129 180 206 194 186 203 230 256 289 313 283 248 242 232 145 134 65 102 121 97 69 86 93 82 72 79 95
62 57 45 48 56 45 70 65 81 65 57 11 -4 -1 19 4 67 96 113 172 213 217 237 271 304 349 328 270 205 191 161 59 108 81 123 97 82 85 78 74 76 83 83 96
72 52 60 71 53 63 64 50 45 29 22 53 47 19 18 -14 2 52 125 196 226 238 292 308 330 328 306 229 167 145 74 109 65 130 101 100 94 77 70 67 73 76 78 90
52 75 74 73 60 67 46 57 65 84 69 46 59 31 23 19 39 84 170 234 265 329 378 363 332 314 273 216 153 100 114 57 126 104 101 109 93 80 77 74 73 75 90 107
88 71 44 -3 39 60 68 64 83 88 67 74 92 87 66 50 58 98 172 232 291 363 358 323 296 283 226 183 119 59 28 110 93 87 112 102 99 104 92 81 85 94 100 112
69 45 84 76 79 56 54 55 75 88 121 108 83 104 75 61 93 119 182 292 351 340 329 284 257 216 187 121 83 60 84 93 84 108 106 106 132 124 108 114 104 104 115 131
93 58 89 57 86 92 53 45 77 86 116 92 127 81 103 137 177 188 205 273 306 289 246 218 178 153 113 98 83 96 89 82 119 109 109 136 153 147 151 135 121 130 125 119
89 91 91 69 109 112 42 51 141 173 170 162 163 137 167 121 134 139 204 215 228 205 193 177 138 117 114 111 107 100 98 118 122 128 129 149 174 171 162 142 126 125 123 111
89 127 129 109 144 141 103 126 135 116 126 146 176 156 120 134 148 128 106 162 153 170 178 163 147 124 126 143 139 125 127 129 132 129 137 160 167 170 175 142 130 135 122 109
109 113 131 137 139 140 131 121 111 116 112 119 135 158 179 193 182 83 52 96 119 153 162 161 163 168 190 178 157 141 149 149 150 141 143 157 167 178 179 149 144 132 128 108
124 145 139 144 139 112 91 103 106 114 128 103 98 158 164 182 198 87 90 107 136 198 222 246 236 252 221 196 161 156 151 141 146 152 152 159 164 172 174 159 144 145 121 107
108 126 125 168 147 125 76 139 150 188 92 99 69 89 137 157 136 146 137 151 225 289 305 338 330 228 224 167 140 145 138 134 147 147 141 145 155 159 146 148 146 129 100 112
90 105 108 143 168 107 85 119 132 94 82 83 76 92 127 132 204 192 201 233 333 377 373 344 310 292 164 123 137 128 113 144 135 134 135 160 161 132 127 138 141 127 104 118
112 105 118 95 110 95 18 60 94 119 117 131 133 114 134 186 221 274 300 351 387 420 445 282 370 243 137 113 119 108 124 137 127 131 152 168 143 119 127 127 133 138 127 119
85 118 138 138 86 57 46 48 79 133 139 148 131 119 162 188 275 348 404 420 454 465 436 321 290 170 87 104 114 105 117 125 135 147 147 147 142 117 112 129 130 132 127 121
109 131 133 119 75 97 83 81 72 79 99 96 112 128 137 193 288 395 433 473 504 572 341 185 146 73 85 98 94 103 107 129 150 146 129 113 116 102 102 116 121 137 129 114
152 149 153 125 116 142 102 82 67 78 87 93 106 149 194 221 321 432 553 614 584 342 211 116 65 73 75 81 82 86 113 137 130 106 98 110 103 101 103 104 106 117 104 110

GFSCGP_con_3kmhel_012.txt.gz
Helicity
44 47 33 2 31 61 35 26 33 13 34 21 15 39 55 35 18 18 40 39 50 58 61 65 77 94 98 93 99 107 102 71 67 58 73 49 57 48 60 94 103 112 132 154
34 37 40 48 28 17 21 25 26 25 12 31 10 23 38 43 52 41 36 34 50 76 102 108 107 110 122 133 94 70 70 72 65 80 66 41 47 61 103 118 129 160 188 199
17 48 34 20 34 6 27 22 14 7 64 71 16 16 39 65 67 78 71 75 70 80 122 144 122 86 82 65 51 61 129 117 82 70 53 53 76 88 94 124 160 215 204 197
52 56 37 45 40 41 11 33 3 -5 -33 6 31 0 60 74 86 90 97 108 127 150 164 130 81 102 99 99 124 153 135 116 103 56 93 107 97 108 140 165 204 204 179 155
47 39 26 38 42 34 37 10 11 -1 -5 32 38 26 106 92 101 141 166 152 161 168 128 123 144 107 79 93 124 109 132 151 148 153 147 153 142 108 124 148 160 139 132 123
65 79 74 57 59 9 42 40 49 42 40 14 79 29 54 69 67 152 172 162 181 189 188 167 114 80 85 117 134 139 179 213 213 214 211 206 173 135 149 180 164 148 131 121
36 37 35 47 34 48 1 -36 -19 -9 15 10 70 41 6 69 84 136 161 186 195 200 180 140 99 88 136 142 165 192 206 232 234 224 195 173 159 130 128 141 128 108 114 109
-25 -38 20 51 25 -27 -66 -20 14 23 26 26 58 20 49 87 104 98 103 127 161 169 152 124 117 112 162 186 208 206 206 232 240 212 173 108 112 106 114 122 115 104 105 99
12 18 65 82 78 62 42 11 100 65 48 4 -11 13 -11 68 57 85 161 216 204 166 150 158 168 170 180 221 263 263 263 260 283 230 159 72 103 119 90 78 96 100 90 88
34 9 58 61 67 101 69 88 12 16 -4 2 10 39 4 25 68 91 179 213 179 172 187 196 203 200 230 272 297 295 265 244 213 129 39 93 108 88 84 95 92 79 77 78
54 55 46 54 36 38 62 22 54 50 41 32 41 18 38 26 38 71 113 143 155 181 190 205 223 249 283 298 294 270 249 209 87 56 73 112 111 95 94 84 76 70 66 73
80 71 53 39 49 69 63 41 43 3 5 45 36 1 34 18 25 42 64 104 136 164 201 224 258 294 320 303 282 251 201 98 79 85 124 117 121 100 83 79 71 73 68 71
66 64 58 31 27 41 29 40 54 72 54 24 28 30 61 23 19 48 65 135 166 200 241 255 287 338 321 296 266 238 180 157 101 120 123 120 85 78 84 86 90 79 78 75
62 62 40 12 36 49 30 39 55 35 46 49 56 27 70 58 64 72 96 153 168 216 263 274 282 316 315 274 255 219 140 106 132 112 97 93 83 90 95 106 100 100 95 103
70 32 32 38 54 53 55 14 50 54 36 64 39 44 50 80 80 82 120 147 172 227 273 273 287 291 250 232 234 155 138 145 113 104 88 86 97 94 107 119 123 122 105 100
78 34 49 30 63 76 58 11 31 39 38 41 29 35 32 86 105 130 131 168 164 193 226 246 218 210 214 207 162 150 144 139 132 106 85 97 109 115 123 129 132 124 115 120
76 65 62 53 91 94 75 27 72 91 98 85 82 59 141 112 93 89 106 131 125 149 177 189 198 184 192 192 161 153 168 171 126 104 99 108 125 124 129 131 132 139 131 126
69 101 106 76 86 105 121 106 119 70 45 72 59 123 116 130 137 124 90 92 77 87 137 168 189 196 184 214 185 181 188 142 120 108 120 123 119 126 123 132 130 142 132 125
95 96 98 97 92 97 75 93 87 89 93 83 52 68 122 136 125 84 60 39 49 86 124 171 201 220 270 238 240 231 163 132 123 127 126 116 123 117 123 135 134 126 135 123
123 120 118 120 84 54 120 124 116 96 80 125 83 89 90 103 109 98 110 57 75 111 150 228 290 315 297 355 421 178 209 182 129 130 117 112 106 114 130 127 119 122 125 124
82 102 96 122 108 94 100 113 84 122 169 139 78 72 84 91 77 156 133 115 113 154 217 338 363 362 362 352 178 228 241 140 119 106 96 100 112 134 131 117 118 110 109 133
71 91 100 129 139 109 101 86 110 142 110 103 110 116 96 75 161 147 167 182 189 240 337 377 469 475 426 409 175 148 120 113 93 91 95 101 129 132 129 123 117 104 109 129
89 96 116 88 126 115 48 56 110 113 106 107 125 142 128 111 112 139 171 240 271 303 453 539 582 588 475 271 117 84 97 77 86 85 85 106 116 110 125 121 101 108 120 123
71 80 111 99 77 37 35 58 66 72 71 77 74 75 79 76 97 128 182 277 331 398 484 608 707 632 325 273 97 62 66 68 69 66 83 101 114 129 108 99 105 111 122 121
117 87 91 87 48 71 64 64 78 88 81 72 82 90 104 118 125 161 211 285 415 544 655 739 571 279 241 95 60 51 50 58 57 69 82 88 100 97 90 84 88 104 102 119
114 100 120 116 122 110 96 125 87 84 107 122 115 128 160 152 204 238 314 390 560 720 750 463 305 180 68 50 44 42 55 54 63 80 82 99 97 94 80 84 92 110 93 130

GFSCGP_con_3kmhel_015.txt.gz
Helicity
58 64 79 15 34 30 17 -5 -7 63 42 -34 9 37 33 32 18 21 12 29 47 47 57 40 49 52 71 111 111 176 132 134 89 93 91 97 97 91 61 64 60 64 98 97
18 55 14 26 37 29 12 6 59 27 -4 18 5 26 54 36 21 24 24 33 43 83 61 79 78 86 100 127 152 118 102 93 58 101 93 70 88 71 95 98 91 124 134 154
74 44 6 0 12 3 4 -5 25 19 23 21 12 65 52 31 34 10 18 31 43 105 102 115 120 109 107 94 109 83 72 94 104 125 109 98 103 95 97 97 79 154 150 172
70 -20 27 51 20 25 20 52 -26 17 11 43 16 20 68 92 82 65 54 62 92 109 135 129 158 152 124 110 87 97 117 116 111 64 102 94 84 138 228 184 200 128 152 121
3 -7 -17 -21 48 19 56 -9 27 6 19 21 6 -3 201 11 74 101 118 106 139 149 150 174 203 210 150 118 118 144 126 132 142 175 158 164 198 180 180 138 124 129 162 189
91 69 40 58 38 34 29 24 8 11 6 -8 13 11 90 73 50 102 125 151 175 177 183 221 280 197 145 145 147 150 151 178 205 246 274 279 244 230 202 164 186 209 175 144
21 20 57 32 35 35 -12 -9 -1 -6 -4 -14 43 44 2 26 77 69 157 133 158 166 206 275 256 170 138 147 166 173 193 215 240 269 304 314 276 254 261 99 189 156 144 134
25 28 69 44 -10 0 -15 18 5 -8 30 22 79 38 42 142 123 34 156 125 131 127 168 204 193 177 152 151 170 192 198 261 299 324 330 279 231 175 63 154 140 125 117 123
12 59 58 40 24 22 12 2 53 49 43 26 18 9 103 83 74 43 117 135 146 136 186 180 192 192 174 143 199 214 236 302 317 318 250 180 71 124 118 114 91 119 120 109
31 40 21 44 26 28 47 73 32 45 33 -4 17 6 28 42 25 37 101 130 131 131 173 189 235 222 198 178 204 267 287 305 291 237 191 102 97 105 122 95 121 118 99 79
32 22 3 40 -4 1 42 5 33 65 54 5 4 25 102 37 24 36 50 114 127 118 147 188 208 217 215 230 268 270 324 329 239 226 115 95 100 125 102 108 107 97 76 69
44 32 38 -25 92 62 96 33 12 1 1 36 51 10 40 53 11 35 45 93 114 112 142 190 193 206 247 265 267 323 375 322 233 168 106 104 146 120 108 99 89 93 66 78
71 49 31 25 33 29 10 -6 14 43 70 21 35 29 49 78 34 41 45 80 118 133 183 213 225 238 251 273 304 373 368 339 198 88 89 135 142 105 90 82 95 86 87 86
99 34 43 -7 25 52 11 -14 10 6 33 5 14 9 51 59 48 71 73 58 121 135 206 228 253 244 249 268 317 367 359 288 117 105 132 167 153 100 93 86 91 103 108 92
80 39 1 25 46 54 40 16 -10 -9 19 -17 5 21 30 50 87 92 113 76 89 148 196 218 225 231 218 256 311 302 350 190 130 147 172 153 134 93 73 96 101 122 120 96
53 43 72 38 16 16 8 -27 -28 -3 2 7 11 0 15 99 106 86 127 104 97 130 162 168 177 182 203 232 244 276 238 246 179 203 157 126 114 86 103 98 101 102 92 114
61 70 47 33 58 50 12 4 0 14 19 37 32 35 90 160 92 100 111 118 87 107 128 148 141 154 198 215 214 288 232 255 238 210 139 108 91 101 91 89 85 92 114 124
56 62 61 45 39 42 54 79 72 57 31 34 49 38 67 127 143 119 105 92 87 81 88 101 148 193 194 206 325 247 274 291 223 237 183 101 100 93 95 83 77 103 120 117
68 70 70 69 41 55 41 84 78 80 72 111 143 98 121 205 92 36 59 75 89 82 81 118 149 157 205 264 264 306 359 324 435 264 106 91 87 87 75 71 84 111 118 111
87 103 81 88 64 31 123 117 92 92 72 200 176 150 135 83 102 112 170 117 80 72 95 108 134 182 252 332 319 439 429 436 320 242 136 82 75 75 59 75 96 100 107 103
60 78 64 68 78 72 140 105 85 104 211 147 104 103 100 91 119 202 152 116 105 93 122 154 199 243 345 479 524 517 531 481 147 102 76 60 66 53 76 94 92 95 107 123
42 60 74 105 102 73 117 111 131 151 106 123 114 112 139 135 110 105 107 97 102 110 183 284 356 368 605 605 539 610 562 308 106 71 51 47 53 82 94 83 81 93 98 116
66 81 103 91 109 140 82 96 120 103 107 114 125 97 118 93 74 77 124 119 123 177 328 350 517 608 620 739 748 738 298 172 97 45 37 49 73 80 85 92 82 86 87 125
79 91 115 116 92 77 89 83 97 103 99 92 98 95 94 95 97 94 145 200 192 298 400 426 613 677 724 672 481 348 214 88 61 30 39 56 79 99 91 88 87 85 107 135
135 89 80 83 45 84 83 94 142 117 114 100 111 123 154 126 118 157 239 261 370 552 521 525 571 634 563 459 363 153 72 55 33 35 55 77 101 87 76 96 91 84 81 124
88 106 128 126 206 141 132 223 158 105 179 163 161 186 223 181 210 268 465 494 459 449 455 520 560 543 299 145 98 58 40 32 40 60 83 88 97 89 105 106 106 92 76 69

GFSCGP_con_3kmhel_018.txt.gz
Helicity
38 52 42 82 27 55 28 50 46 24 22 -20 -5 81 76 22 -28 51 87 49 106 51 60 89 64 97 62 125 335 363 282 220 169 99 88 110 119 102 134 130 107 104 82 92
14 52 5 13 36 50 42 28 33 27 33 -43 -14 43 79 21 21 48 16 113 63 87 201 89 122 105 126 235 334 296 238 123 52 39 117 75 108 123 170 116 104 153 142 172
47 74 112 60 43 57 43 28 -18 37 3 -23 46 -17 66 48 6 3 16 15 48 127 211 151 140 148 185 334 266 161 145 32 -10 81 117 223 228 151 142 97 116 137 128 167
9 160 85 6 -11 17 28 99 17 15 -10 20 41 30 62 150 7 30 23 18 42 89 167 174 136 229 282 236 154 86 42 71 217 183 135 115 182 261 282 348 329 214 148 172
14 0 51 12 60 92 16 100 11 -36 4 35 99 5 207 148 12 22 34 77 79 146 236 216 160 218 202 189 149 199 245 216 182 221 272 247 305 309 349 401 353 357 204 202
38 98 63 138 -42 1 1 -19 16 20 19 59 104 46 104 152 52 -3 63 36 89 225 308 303 265 290 319 264 288 268 236 227 254 331 419 464 479 484 491 328 252 270 151 184
25 30 15 24 -16 8 -3 -10 -6 49 11 -16 12 92 84 85 95 252 -3 155 176 240 284 256 311 319 298 308 259 226 266 303 323 344 380 424 401 393 322 221 168 234 195 194
80 5 57 36 -10 80 -7 -5 21 13 27 53 53 33 49 45 6 181 -43 173 278 229 220 242 286 251 288 232 184 215 307 299 317 364 384 358 316 248 206 197 230 232 201 148
41 20 178 68 9 32 10 15 23 -15 36 21 21 -27 90 127 124 38 178 254 258 192 185 237 245 278 286 231 194 241 274 347 341 356 346 276 207 257 223 237 207 212 162 135
29 46 45 20 21 18 33 47 27 24 15 15 37 17 59 39 69 35 111 229 232 204 175 178 228 280 292 241 216 219 294 382 378 408 307 252 221 188 202 185 201 180 166 123
32 48 23 54 -19 6 22 12 34 52 35 49 39 48 55 70 50 54 16 175 231 268 203 248 210 313 336 271 282 259 339 412 452 360 288 282 182 201 165 167 194 175 148 105
35 66 46 -13 17 48 90 30 32 77 33 57 46 7 32 49 55 30 29 59 220 285 266 290 317 440 383 315 324 336 342 437 476 333 303 229 185 154 180 176 173 169 136 113
47 48 13 29 29 30 27 31 58 43 119 61 56 32 46 52 43 45 49 42 114 213 233 270 425 472 416 348 371 359 317 418 409 318 265 199 197 195 146 151 146 153 125 131
113 62 19 21 4 53 52 -8 9 2 111 48 -26 11 18 123 92 67 63 44 63 167 170 220 399 482 453 397 430 345 364 420 379 321 194 139 193 239 219 192 132 105 136 187
108 61 50 49 34 27 68 55 3 -15 16 -27 23 -3 -5 39 68 79 102 125 90 53 153 154 284 392 466 462 413 345 420 394 456 228 198 265 284 281 237 160 134 156 172 142
68 83 92 48 46 70 15 52 40 30 22 -10 -11 -9 8 84 132 179 195 134 183 105 94 166 244 310 400 418 367 360 420 432 337 240 320 293 349 305 310 195 122 115 93 106
80 87 82 51 83 75 15 -1 -6 0 7 41 45 39 36 53 91 158 147 109 158 100 104 119 172 214 272 303 330 402 407 459 334 376 344 321 334 289 157 92 75 97 103 125
119 87 85 70 63 12 -4 63 72 58 51 39 40 45 64 146 198 154 79 78 106 151 117 124 129 173 215 254 312 355 440 416 432 414 380 468 283 244 149 92 64 83 108 138
70 96 83 66 40 35 38 59 73 74 64 174 227 225 229 239 169 118 110 179 187 201 133 113 102 161 196 211 267 432 461 434 384 542 529 367 313 196 120 68 68 81 102 129
95 126 83 61 56 23 69 111 82 76 67 207 215 192 136 93 108 140 260 213 130 110 101 105 116 151 185 274 398 453 570 690 730 698 828 475 120 113 66 67 94 113 125 134
62 87 70 76 49 54 106 121 71 93 181 174 117 103 109 134 171 169 135 116 135 144 133 140 280 437 505 662 708 773 828 1059 829 1011 392 174 100 87 64 81 101 114 117 116
33 54 50 95 83 37 110 108 117 170 111 122 117 135 151 155 118 96 93 116 122 92 164 417 592 719 837 824 886 1005 1161 1009 609 375 240 172 92 69 76 91 92 107 97 100
60 64 69 84 78 116 81 172 136 122 122 116 117 115 139 141 127 115 120 146 233 235 427 521 599 683 746 820 845 794 650 500 421 147 84 67 52 78 78 119 110 111 102 110
73 118 107 131 67 81 80 119 121 146 160 143 135 118 144 167 147 127 149 281 393 468 472 516 502 486 508 532 548 596 377 155 105 75 33 28 33 55 105 112 97 113 117 139
122 125 70 94 55 78 142 269 365 254 174 184 185 216 264 170 171 239 357 456 457 514 581 440 324 303 305 264 205 132 102 66 40 28 16 32 78 89 90 95 129 147 137 124
92 110 158 115 224 183 261 336 256 284 303 243 233 304 281 283 275 327 358 365 349 293 268 245 170 125 119 74 62 60 42 48 55 44 64 85 96 106 103 97 127 147 130 112

GFSCGP_con_3kmhel_021.txt.gz
Helicity
48 38 51 38 23 99 16 1 -15 10 15 37 63 137 205 280 190 54 -115 -97 75 176 133 113 99 140 263 318 311 266 295 272 235 168 236 149 148 154 161 146 169 137 97 126
46 35 11 52 156 92 -3 12 85 47 7 1 61 58 80 247 106 1 57 145 32 61 168 151 145 237 363 401 272 287 294 247 164 156 121 116 134 160 146 176 184 182 171 151
5 8 17 50 62 51 18 8 34 53 27 -4 1 47 42 9 44 155 200 185 51 132 326 231 188 251 425 474 353 270 274 195 169 103 132 207 232 267 238 247 237 183 222 216
6 40 5 33 71 26 -1 24 41 16 -5 9 -1 -4 190 103 16 65 186 115 77 263 332 383 305 297 394 389 230 180 154 152 119 134 271 331 296 274 229 292 274 285 239 230
-8 71 58 44 39 74 -21 -17 16 5 -17 42 96 69 -52 69 100 2 -17 106 202 294 335 391 380 288 218 212 183 55 153 183 174 177 292 327 412 455 507 532 436 309 281 302
20 39 1 22 46 24 12 47 34 18 6 28 41 135 93 127 155 37 -20 15 127 220 285 293 294 308 279 240 255 272 288 335 379 410 443 450 531 524 509 403 347 290 270 337
49 70 10 21 -10 7 50 30 76 72 70 -51 90 74 73 137 80 137 90 64 98 270 377 492 560 417 481 436 383 402 408 406 417 476 554 555 520 423 361 322 275 263 273 273
45 53 32 51 -25 35 21 14 45 39 8 -58 -4 26 29 100 106 46 86 73 121 314 350 448 506 443 413 411 395 393 415 401 396 412 466 468 420 377 333 300 260 271 262 239
84 77 21 37 113 45 35 30 54 76 31 58 -6 -24 57 71 51 70 143 142 236 327 376 390 408 431 391 352 320 345 397 383 372 382 391 371 372 348 327 290 270 251 223 214
88 39 75 127 153 77 20 24 79 88 16 21 12 35 28 66 62 33 111 150 309 392 399 429 444 457 424 342 259 304 383 382 362 360 324 318 306 288 273 257 251 236 241 173
137 90 -45 -2 -43 19 30 50 70 72 73 33 35 62 15 42 54 59 75 242 364 424 452 449 437 472 466 428 341 302 409 456 450 402 327 289 258 244 235 254 242 247 191 168
16 42 44 -31 39 22 39 24 41 87 55 89 58 22 37 49 22 32 27 177 283 375 420 461 502 554 552 539 475 396 453 552 529 426 336 266 238 206 238 244 198 194 169 147
121 134 114 89 78 69 19 57 43 61 127 87 79 24 14 40 87 88 47 76 202 309 374 418 533 608 629 608 617 584 585 602 578 499 407 296 228 233 218 192 219 164 154 163
119 100 84 60 22 22 30 25 39 75 126 66 56 29 49 -5 163 79 69 74 106 218 303 345 475 613 676 633 638 611 622 610 540 518 439 287 236 239 220 274 211 143 153 189
111 89 108 79 52 44 52 36 40 19 18 111 34 31 37 35 65 86 90 82 97 165 135 268 444 543 574 559 539 542 545 584 566 554 446 263 255 283 375 357 272 233 182 134
147 130 134 91 68 47 73 84 49 33 40 30 32 52 36 38 78 144 169 157 199 215 157 161 241 412 422 453 482 445 507 595 601 543 401 348 466 549 541 395 344 206 151 70
124 130 131 90 103 85 37 4 29 40 35 37 19 21 71 150 178 152 156 206 167 183 204 158 95 175 273 333 338 398 469 522 544 489 469 557 653 577 571 505 355 178 90 79
153 127 107 76 98 67 15 56 46 32 81 108 150 140 139 157 233 282 192 172 206 214 197 173 142 114 127 198 273 385 482 513 517 547 697 703 719 792 690 493 274 118 80 94
103 128 117 88 83 50 49 77 67 62 112 142 168 171 158 183 172 180 181 211 212 186 160 136 108 105 149 216 318 453 534 581 726 933 1053 989 779 1003 744 299 122 109 91 104
190 151 117 107 81 31 28 57 87 93 130 148 164 170 138 110 100 22 93 156 190 210 235 265 344 404 426 422 655 863 955 1086 1124 1048 1085 998 1024 611 273 111 130 86 88 91
110 129 92 99 68 54 58 85 73 104 72 149 135 126 121 88 42 94 125 146 228 220 259 313 422 494 627 774 939 1004 1040 1151 958 1047 1114 812 340 146 146 118 94 54 62 113
49 65 55 105 79 31 72 116 101 83 163 133 135 114 140 157 180 185 174 261 292 281 288 307 391 473 524 586 763 839 916 737 840 689 550 270 145 147 96 68 56 88 95 102
62 45 40 61 38 33 79 116 105 143 140 145 162 204 186 193 196 211 263 277 291 288 282 273 305 335 332 302 268 319 271 305 222 141 121 149 114 59 56 59 85 99 100 124
122 91 90 95 56 67 77 146 267 299 319 316 276 233 218 217 233 271 324 351 353 321 306 227 215 210 195 145 153 165 143 157 167 165 147 103 90 62 59 88 99 116 121 153
82 128 92 88 86 211 331 384 382 454 455 375 383 363 310 312 311 292 309 316 293 265 204 191 193 157 168 182 177 146 124 126 139 127 126 98 78 76 82 97 113 124 134 172
132 133 143 127 158 265 287 342 356 406 422 384 346 379 383 338 322 296 293 257 223 231 204 190 180 178 141 115 103 111 106 126 132 117 97 95 100 103 110 112 116 110 118 114

GFSCGP_con_3kmhel_024.txt.gz
Helicity
59 53 55 46 60 98 49 74 43 12 51 48 87 167 134 65 54 41 92 45 54 175 152 138 134 128 110 77 132 171 195 183 253 262 253 215 225 192 164 142 168 183 166 139
56 61 83 86 81 16 2 70 15 32 33 67 103 128 116 112 65 83 105 102 50 81 200 221 206 252 270 206 154 176 207 207 218 227 246 213 230 179 187 196 199 182 181 161
-8 26 12 -0 53 9 -18 89 25 21 53 88 105 123 117 -20 -22 -15 6 35 113 238 274 334 320 347 378 316 283 239 227 214 195 208 273 274 304 327 259 237 213 194 202 145
-4 7 8 12 24 21 37 57 39 50 69 52 55 58 59 9 -33 -2 27 44 103 212 266 420 436 409 449 398 316 260 221 241 185 277 275 310 322 290 224 239 258 287 242 232
7 39 24 29 11 24 -14 -18 13 31 56 35 32 2 53 104 129 15 51 38 43 108 282 399 483 467 408 342 342 261 254 225 261 236 232 273 289 264 318 329 352 302 284 270
30 14 33 31 29 5 39 29 32 61 29 64 40 50 6 -24 135 279 141 96 66 64 246 351 481 383 319 264 228 226 266 241 250 226 230 323 418 423 469 432 372 320 305 295
12 59 96 40 16 33 36 43 56 68 88 43 45 27 -40 -32 -18 9 133 144 109 167 319 421 477 385 353 294 218 247 304 247 219 314 336 410 498 511 482 405 356 351 363 312
19 74 83 8 -44 36 28 63 47 48 53 16 20 6 25 4 16 18 2 125 191 254 337 445 394 344 337 330 342 460 426 367 332 416 417 468 454 429 394 365 363 355 275 222
36 53 93 32 28 27 41 26 25 87 89 55 21 -0 35 -0 8 -0 65 96 128 177 349 408 404 371 395 360 424 418 444 443 387 424 451 446 426 405 382 338 330 300 220 211
42 60 33 49 85 108 71 30 50 74 60 30 28 35 21 24 14 1 43 86 131 200 279 334 392 382 375 359 339 391 443 435 392 386 386 375 348 339 324 301 249 222 237 206
144 107 75 62 129 17 83 23 51 81 90 45 28 39 17 -1 14 3 18 78 163 242 275 323 347 370 385 424 443 431 443 445 438 434 442 434 366 309 297 293 273 268 266 232
122 109 67 62 -92 -70 -2 13 82 91 76 96 58 33 35 20 67 38 19 41 118 225 281 330 384 411 406 423 488 492 475 476 451 464 474 437 395 332 302 293 276 288 237 230
118 124 125 113 40 43 33 52 63 117 106 101 111 23 38 18 26 61 70 56 123 196 265 370 445 464 456 425 481 528 575 581 536 535 502 435 370 331 278 252 266 260 242 199
168 124 109 112 69 81 102 85 56 84 108 102 83 61 54 35 23 52 99 76 126 177 312 393 422 455 472 491 529 591 628 550 535 564 525 444 366 304 277 294 329 330 303 304
151 108 131 97 84 83 90 117 70 77 80 122 49 95 33 37 20 46 55 139 134 138 201 284 360 396 462 507 560 652 555 524 556 562 485 397 332 313 384 428 440 432 436 398
162 121 146 127 152 96 40 88 82 68 51 39 45 42 62 128 179 190 92 178 208 194 150 115 249 385 471 496 540 539 503 490 520 493 435 378 401 484 578 620 740 722 728 604
167 169 157 102 162 150 103 65 72 56 32 28 50 53 150 286 293 266 244 219 216 187 155 91 60 136 250 352 413 384 416 493 476 473 478 551 631 752 846 919 1018 899 680 192
190 219 154 116 168 137 25 69 82 172 152 127 166 185 203 207 220 256 216 217 227 193 183 180 137 103 107 192 236 354 487 516 541 619 738 838 916 990 1079 1024 998 666 165 137
177 197 176 145 121 94 53 77 87 95 141 120 136 137 116 124 204 201 148 164 171 184 212 218 188 160 159 161 303 472 564 693 853 937 999 1002 991 1037 876 850 483 154 148 217
208 159 140 143 116 65 21 81 69 110 141 127 134 132 100 103 148 89 150 122 189 230 216 201 211 247 310 356 511 714 814 925 1027 1075 1142 1120 988 804 805 233 141 150 170 104
196 196 160 181 115 87 41 45 94 125 76 149 149 120 100 92 56 78 160 202 182 179 171 158 204 258 301 375 537 719 833 964 971 1065 955 818 442 406 143 116 136 155 122 108
119 114 112 154 119 52 75 130 91 65 122 138 122 100 133 121 176 205 217 219 209 204 191 190 228 228 230 304 412 455 441 359 349 377 349 230 162 159 161 141 140 142 124 95
98 80 60 65 31 49 33 54 104 105 138 134 151 110 140 179 193 219 238 246 240 237 230 198 206 215 227 244 248 295 235 235 195 191 187 166 164 151 139 156 151 123 105 121
90 93 83 97 88 116 168 203 211 223 229 245 221 195 211 244 248 292 288 277 273 246 249 228 237 246 253 239 205 153 133 130 141 136 125 125 142 141 130 122 116 125 124 137
107 139 101 140 165 285 305 323 353 415 427 437 428 354 322 347 326 328 328 319 303 296 284 238 191 152 140 136 144 122 106 98 110 111 115 119 126 121 118 123 131 142 143 164
143 149 160 102 124 173 228 278 313 389 359 327 358 410 396 364 360 351 339 286 257 244 203 182 146 162 158 163 148 124 93 101 109 119 135 144 146 143 142 146 144 128 127 124

GFSCGP_con_3kmhel_027.txt.gz
Helicity
-1 46 36 36 67 47 33 56 62 18 -13 49 84 82 159 130 75 33 66 120 86 134 71 79 31 14 9 39 94 94 112 137 228 249 248 216 206 196 180 154 171 164 166 155
36 58 48 69 45 48 95 51 107 74 4 85 63 75 122 133 66 81 122 118 141 125 93 71 61 42 98 126 134 137 146 206 228 279 253 247 241 198 170 181 181 171 167 157
10 36 11 71 79 18 11 74 99 93 23 56 90 58 50 63 33 -8 36 51 106 192 210 164 151 119 113 143 180 195 190 223 241 238 279 300 304 291 279 244 235 188 183 170
2 15 19 -6 22 29 105 7 50 77 32 29 67 39 38 17 -18 -59 -8 41 86 190 217 203 188 184 191 225 163 160 205 225 241 245 313 344 376 329 288 271 252 245 212 205
5 -4 19 -0 19 1 27 13 30 25 33 66 94 32 -4 32 -36 -47 -21 -20 35 113 202 240 273 262 231 298 252 213 219 236 228 241 300 359 421 291 318 313 318 279 260 250
6 31 46 4 19 3 14 13 55 58 35 59 37 30 6 42 135 118 49 4 63 198 258 280 306 369 290 289 318 275 286 296 321 310 269 300 270 295 350 335 332 314 334 300
33 43 71 53 19 34 43 36 42 65 71 24 68 44 5 -22 55 123 122 139 168 220 317 369 390 422 346 301 283 295 293 309 263 350 268 194 235 295 315 342 390 388 369 327
-2 38 43 65 14 23 39 39 66 18 35 45 67 -2 -18 -3 -5 -24 -9 49 64 143 275 358 376 418 336 271 244 271 275 315 284 280 242 231 295 361 394 406 410 411 400 369
-15 24 47 44 47 44 41 61 39 88 93 78 23 18 2 3 37 21 46 86 73 121 181 276 339 427 398 309 264 306 279 257 258 328 317 324 364 408 495 503 483 441 419 420
23 18 49 91 45 52 59 57 73 92 78 53 39 32 20 44 61 43 25 12 38 72 133 207 307 319 308 268 288 282 247 275 346 366 361 400 455 535 562 552 515 480 430 373
107 81 36 53 46 25 117 201 136 102 95 63 41 24 -17 40 77 69 41 30 53 71 98 130 157 239 248 277 276 263 296 360 394 412 461 520 522 538 534 490 461 425 350 304
89 94 81 58 60 51 99 61 64 86 86 93 91 54 52 14 23 36 30 37 45 114 103 115 186 281 339 310 295 272 316 360 421 484 494 453 461 466 447 421 376 325 265 276
127 109 136 99 68 59 51 49 76 108 135 110 113 53 53 28 31 6 23 14 38 90 92 112 184 276 338 339 339 349 388 425 523 462 414 415 416 414 365 345 322 315 306 294
229 139 129 100 65 83 72 59 77 102 102 73 114 75 58 44 80 46 60 8 43 117 170 177 210 263 288 331 369 389 444 481 461 404 383 396 406 354 352 335 354 342 351 387
152 148 122 68 81 99 92 82 115 118 100 131 57 109 77 48 33 26 39 55 76 121 155 193 250 261 253 356 403 451 464 478 443 423 404 394 361 385 388 397 431 475 466 433
167 137 148 109 158 172 129 101 99 126 111 97 101 64 73 65 89 120 109 166 192 166 115 129 172 213 267 353 407 440 413 394 458 407 399 408 431 466 504 483 538 609 669 705
179 196 187 141 190 179 156 128 127 110 152 140 132 75 98 163 221 247 250 262 262 251 223 177 102 115 164 238 347 366 373 375 394 424 450 481 553 562 617 729 865 887 817 801
213 228 219 140 215 67 111 137 108 124 157 171 170 134 153 206 262 296 230 175 174 153 158 161 153 120 83 97 156 241 297 370 449 524 572 588 663 807 872 921 904 921 690 569
180 220 213 216 204 171 122 105 113 126 132 136 156 181 174 175 248 264 239 200 162 146 152 158 169 160 189 215 225 334 387 457 574 620 686 791 931 973 899 987 948 643 423 191
243 248 215 232 189 155 76 104 168 122 144 90 87 100 121 158 156 90 136 148 176 182 186 186 183 205 233 224 266 390 442 551 629 699 814 902 922 1017 1008 833 654 185 206 186
274 275 222 253 204 172 112 104 149 174 62 195 133 101 119 107 88 114 141 178 195 209 214 203 216 199 143 166 258 358 442 530 539 623 755 903 817 515 349 211 178 157 164 171
226 248 228 265 245 138 130 204 163 80 166 153 151 145 150 145 140 171 191 216 240 244 241 230 246 244 174 134 182 229 274 220 218 214 195 203 183 159 151 132 130 145 158 164
203 196 175 145 78 109 59 118 108 69 88 105 122 96 150 144 145 185 219 250 256 268 275 265 268 274 266 254 227 255 208 153 133 138 134 138 145 133 115 128 137 159 165 180
204 190 160 154 98 78 105 118 151 123 135 122 134 190 184 251 252 270 279 309 332 321 321 281 289 308 292 243 256 229 205 195 183 163 141 122 118 119 129 144 156 169 174 181
204 218 160 147 128 165 161 166 176 234 265 325 357 288 295 356 332 342 350 351 335 319 301 283 281 282 265 251 246 196 160 135 137 124 115 113 122 127 138 151 165 181 191 201
212 202 215 108 108 170 164 219 257 358 355 342 383 410 372 365 388 389 389 333 305 306 290 304 294 263 241 229 220 201 168 141 128 117 116 124 126 127 123 125 123 122 133 166

GFSCGP_con_3kmhel_030.txt.gz
Helicity
-12 -7 -29 -12 45 31 48 28 21 28 -11 27 110 97 114 120 93 69 33 4 10 18 -17 -32 -12 9 24 9 12 19 52 55 80 74 107 111 140 117 130 142 134 141 173 176
-32 -26 -18 36 36 39 23 15 44 35 4 -10 6 54 61 171 67 105 100 60 47 11 -14 -6 11 18 22 26 20 43 70 124 140 153 148 158 178 159 187 194 185 169 206 214
-4 -14 21 43 36 17 47 38 65 41 44 39 30 20 16 62 29 17 47 64 40 64 94 63 69 96 83 93 98 94 132 150 180 228 293 279 333 277 260 283 257 226 228 204
-17 3 18 28 36 23 44 -4 18 25 43 17 29 14 12 61 63 6 24 36 58 57 28 76 134 96 75 87 105 124 175 203 209 254 300 337 352 338 284 300 247 250 247 257
-21 -26 34 19 9 26 59 24 17 33 48 39 47 54 4 48 73 68 38 62 35 71 102 95 109 120 115 202 158 148 165 182 197 265 299 343 383 381 337 333 318 321 302 241
-26 10 6 0 15 37 29 22 36 62 61 40 42 38 -13 31 74 95 124 74 80 103 131 146 129 156 180 193 244 291 140 90 180 253 313 433 450 379 379 371 323 311 304 304
-4 28 43 33 56 53 29 50 43 57 66 -8 29 41 -36 -14 -22 6 25 116 176 189 240 246 254 261 233 266 296 388 206 132 223 271 384 450 342 294 307 326 351 358 359 320
29 -31 38 53 41 27 50 48 52 37 36 25 56 14 -18 -27 -13 9 -7 16 81 111 218 297 323 372 307 319 280 370 267 233 214 292 332 337 315 290 268 348 388 391 398 353
35 -10 42 59 75 62 39 78 51 82 73 64 39 30 10 34 -2 25 26 19 38 95 115 163 265 310 347 329 275 337 303 295 279 282 247 257 260 275 287 380 436 450 435 445
-17 -3 30 63 61 57 65 41 76 91 55 17 24 5 15 41 39 56 60 14 5 41 51 96 169 237 254 227 255 225 274 316 259 242 247 265 236 268 357 431 486 503 458 426
46 41 -10 24 35 48 69 62 118 112 126 49 30 22 10 11 17 70 34 23 6 11 38 64 97 111 165 188 189 229 236 220 201 215 229 257 280 376 417 437 442 468 466 410
56 54 -25 1 58 55 59 29 111 188 129 128 98 1 45 28 18 24 1 6 28 25 39 55 58 38 66 94 103 91 161 219 213 248 297 312 359 385 384 364 408 427 401 360
86 59 -35 56 98 93 69 108 111 114 114 86 100 20 32 20 17 39 44 35 40 41 49 53 62 71 81 116 152 162 239 253 295 345 352 362 342 365 338 353 373 396 388 337
199 108 87 51 39 75 89 120 108 130 120 121 114 24 -5 -8 42 29 23 38 56 36 44 72 99 116 149 171 163 188 239 297 349 332 366 312 317 344 320 352 387 373 383 397
115 59 89 114 95 91 87 108 85 112 92 131 75 59 -3 17 40 52 47 24 44 43 40 54 90 118 150 164 171 208 231 305 353 327 264 285 320 343 378 378 383 407 436 416
155 99 100 114 128 136 124 87 103 107 136 127 103 81 68 83 80 70 75 110 147 136 118 95 106 116 132 171 193 228 276 325 349 302 293 308 337 407 393 374 410 467 517 544
181 176 115 34 148 153 106 105 150 194 200 184 189 127 147 149 141 133 164 207 232 247 247 237 211 170 130 96 112 178 238 281 303 342 336 378 394 385 390 467 572 679 707 807
256 250 190 84 198 64 127 184 175 175 125 142 155 165 181 208 206 243 272 235 241 222 229 221 184 155 160 156 186 195 193 218 275 307 335 345 384 461 550 694 737 755 813 945
198 260 205 161 160 164 160 202 195 152 81 105 124 174 218 265 317 296 217 217 186 154 125 107 123 162 200 208 188 228 259 279 327 345 373 382 421 526 627 704 806 839 730 316
224 228 182 210 158 147 133 155 216 217 144 136 147 119 139 136 160 106 114 131 149 148 162 186 207 213 206 163 153 193 202 262 307 334 390 442 488 534 597 566 461 367 203 172
292 281 203 262 202 180 137 166 218 242 132 201 172 111 106 120 116 126 139 165 155 172 208 231 267 259 192 146 145 164 165 223 225 234 208 199 199 187 167 192 165 145 161 141
274 259 219 267 231 168 209 329 297 150 108 158 168 154 142 159 174 179 173 165 185 217 233 237 260 244 202 181 187 203 213 152 151 151 173 175 171 164 150 134 126 111 112 120
256 220 184 182 172 179 176 161 138 105 97 84 168 147 189 194 151 164 176 211 230 240 262 257 278 299 273 237 208 238 198 202 185 186 184 163 137 114 101 97 99 108 117 136
283 264 257 251 180 175 140 109 85 87 67 128 142 175 184 233 224 248 262 270 281 277 295 292 316 325 317 287 298 247 217 184 180 181 173 149 137 125 113 105 107 116 126 141
237 291 228 220 214 187 97 90 99 129 168 208 240 218 262 319 299 303 309 304 305 314 333 333 349 342 321 306 310 263 214 182 185 171 154 138 118 113 107 105 101 116 126 143
255 231 276 200 205 206 108 131 159 202 219 229 322 348 317 330 342 344 369 353 355 388 383 401 373 364 325 310 284 252 211 172 156 144 122 105 94 90 87 84 82 81 80 98

GFSCGP_con_3kmhel_033.txt.gz
Helicity
2 -1 4 -1 -23 8 35 10 18 1 21 25 55 100 129 115 75 39 21 8 27 49 39 30 21 41 52 29 30 17 4 -7 -15 -23 -12 -14 9 35 45 68 89 111 132 157
1 10 -9 38 28 19 42 19 10 7 24 -37 6 17 74 143 99 69 7 21 22 -2 15 7 19 34 36 35 22 -1 -6 9 23 28 33 28 64 82 87 116 138 154 171 179
2 -4 4 15 17 10 37 18 -4 23 19 6 1 10 32 61 53 26 33 21 5 27 14 8 45 69 64 57 55 29 11 16 35 60 101 137 163 160 163 188 203 212 202 201
-26 -36 -7 3 0 17 25 -1 33 30 26 41 33 42 14 29 56 54 15 40 19 29 40 30 24 36 50 30 19 25 42 55 62 98 141 189 200 219 230 209 217 246 252 233
-6 -10 -25 -12 1 31 16 10 33 34 45 50 46 6 14 23 27 97 103 37 35 19 20 27 40 48 46 55 75 59 55 52 80 111 150 198 209 232 287 304 300 302 286 259
21 -13 -12 -22 23 28 24 44 63 63 62 42 52 32 0 3 12 33 112 86 44 0 16 31 39 51 65 96 115 101 114 99 127 116 116 183 262 358 388 377 336 322 310 273
32 19 18 32 43 50 57 73 40 41 78 61 58 42 -8 -6 -29 -10 -8 57 96 68 15 27 72 103 133 179 189 182 190 149 91 96 98 174 296 392 427 378 354 393 317 260
42 24 21 28 15 19 61 53 52 23 39 39 47 19 22 29 27 -5 -16 21 -7 44 61 56 81 128 174 241 276 267 277 324 213 122 141 195 252 347 338 343 353 354 278 256
106 29 21 33 74 67 61 75 69 89 57 27 38 20 -15 24 19 8 25 22 3 9 14 35 28 80 147 229 258 323 273 310 252 226 212 219 223 267 273 243 260 318 274 295
32 61 25 41 62 101 69 61 76 86 28 18 33 35 19 33 11 37 37 47 40 35 26 6 1 17 97 167 180 194 174 182 223 226 209 173 174 187 190 239 237 278 286 321
90 53 50 46 36 44 89 83 100 72 72 57 68 42 46 8 1 19 35 -5 -26 -22 1 25 55 61 86 107 132 149 139 96 130 133 133 127 138 175 222 231 297 311 298 341
75 62 24 34 62 50 71 77 94 60 33 142 111 98 66 17 8 22 10 8 -5 -1 -3 4 31 41 38 32 58 79 85 77 79 106 135 134 187 226 240 244 261 245 258 328
127 92 76 24 46 88 63 88 110 140 130 131 89 79 77 31 23 10 7 18 29 39 34 14 -14 -12 1 14 19 41 57 97 101 128 136 165 191 218 213 200 174 206 300 333
183 104 96 32 25 90 66 91 124 148 130 112 119 61 32 28 33 17 16 28 31 42 56 66 60 38 36 33 32 67 85 120 149 143 150 179 190 194 164 159 209 278 317 385
120 80 96 62 52 96 64 81 89 142 154 157 53 91 30 44 28 26 24 38 52 54 73 68 75 86 91 83 85 111 131 118 123 141 166 160 179 175 203 239 278 287 324 345
114 99 121 73 77 61 55 59 98 111 147 107 71 90 71 93 78 76 60 60 85 124 149 148 144 130 125 117 116 138 144 137 122 117 138 192 201 228 285 288 280 312 391 350
144 199 165 99 124 108 3 44 109 150 155 156 164 127 138 109 117 136 118 129 153 210 245 249 238 219 208 187 157 151 134 123 133 142 157 178 189 226 262 298 345 418 523 542
93 169 211 162 205 44 70 115 107 102 128 182 169 150 108 126 195 224 204 175 224 249 249 235 203 195 196 175 173 154 161 171 166 168 166 164 180 218 253 316 410 474 516 635
131 181 173 186 135 134 81 121 146 153 26 181 161 122 163 230 252 256 237 241 219 175 173 177 162 147 142 147 132 155 167 149 154 161 167 171 185 232 304 332 345 367 316 223
172 163 163 168 131 69 97 119 176 193 82 217 174 178 214 206 170 139 140 151 175 174 165 158 158 154 173 166 145 165 143 139 142 148 183 197 201 231 224 203 191 152 122 130
245 251 219 263 174 121 149 165 204 211 147 109 164 198 197 153 94 162 158 182 177 159 150 152 191 228 196 159 178 196 165 168 129 135 141 151 135 132 134 127 113 107 110 104
241 260 255 289 218 84 168 271 242 194 146 126 139 197 190 163 195 212 181 182 169 171 179 219 265 264 234 198 207 211 187 130 160 178 179 168 165 147 126 125 105 104 106 105
210 212 253 200 202 201 119 152 211 198 138 98 164 185 219 218 191 205 207 179 178 208 241 241 268 289 280 241 199 209 173 189 198 200 186 164 137 126 121 122 114 105 108 106
187 183 203 243 167 154 159 153 163 156 98 86 117 219 213 213 220 234 230 224 240 242 254 260 289 297 295 263 261 246 209 199 203 199 179 160 150 129 120 105 104 106 118 121
156 237 232 224 157 170 133 164 155 144 126 154 199 206 231 278 274 284 279 269 285 298 304 298 298 298 301 299 317 280 238 194 190 170 158 145 127 129 119 115 114 114 115 125
208 200 266 176 161 260 189 197 162 162 126 155 253 273 254 281 318 320 336 318 322 325 307 319 313 303 299 324 331 300 248 201 174 171 149 136 119 106 100 98 92 107 102 119

GFSCGP_con_3kmhel_036.txt.gz
Helicity
13 -4 4 -4 -9 24 5 1 18 25 15 25 51 59 87 107 80 43 49 26 31 31 28 27 41 72 51 45 34 38 36 27 14 -13 -35 -51 -52 -15 5 20 30 36 54 71
16 13 -21 -8 15 -5 -8 -3 11 11 26 3 10 29 21 83 70 35 33 38 21 14 7 12 29 54 78 57 46 31 30 24 8 -19 -32 -25 -28 17 25 44 58 69 79 90
2 30 8 4 -5 -4 -8 -14 19 27 29 -12 5 18 9 31 26 29 14 -10 14 12 6 3 16 37 47 45 37 26 13 -0 -12 -18 -19 -18 46 48 66 83 95 107 113 123
-8 4 -6 -5 -19 -10 -9 24 36 25 6 18 18 14 22 20 27 36 24 17 -3 -7 1 5 12 21 38 34 20 12 -4 -16 -11 -1 6 24 32 47 66 110 136 157 152 153
23 9 4 -10 -24 3 15 2 22 43 25 35 23 18 87 21 -2 37 52 45 18 8 -0 12 23 29 13 27 38 28 15 15 28 31 31 52 47 73 95 111 191 212 202 182
21 24 -6 -29 -29 -19 54 4 21 36 30 17 36 22 16 32 -2 -1 21 53 25 11 -7 -35 -38 -8 19 36 48 57 62 40 21 58 102 54 40 100 180 170 205 264 245 232
25 23 63 1 11 -2 -6 24 26 21 32 13 66 34 -12 22 32 7 19 12 27 7 -3 -36 -28 -2 32 85 84 77 105 111 93 168 143 107 68 88 142 153 257 309 375 325
49 54 39 30 9 11 -0 3 37 45 30 37 43 14 20 52 32 36 16 14 35 12 -0 -20 5 24 37 71 100 119 161 263 364 261 143 121 76 130 161 151 265 411 377 301
48 17 77 41 24 -1 35 -13 69 75 76 47 36 27 -15 35 28 22 24 13 16 11 20 -2 -11 -14 6 36 92 125 168 220 309 219 122 120 129 139 129 176 251 323 273 239
79 49 67 70 51 53 49 74 63 95 68 45 60 37 17 23 53 38 28 29 36 31 28 32 39 28 8 31 35 62 83 98 197 203 109 96 97 90 89 146 199 235 216 196
79 73 94 73 47 48 68 48 105 96 99 63 39 37 54 26 33 23 39 28 36 42 28 27 48 67 56 58 48 62 51 61 99 97 139 94 67 63 83 126 136 194 214 209
86 80 69 55 71 29 -2 8 15 27 78 69 62 13 64 41 23 4 29 35 25 19 30 31 45 74 71 68 70 77 99 85 70 59 59 58 67 89 137 149 157 182 187 176
156 126 78 58 53 44 26 26 42 97 96 32 37 20 78 56 14 13 2 28 29 30 40 58 73 68 55 33 38 48 67 76 89 87 87 99 139 151 156 167 179 167 147 128
132 82 68 50 54 50 39 29 21 29 -17 42 21 -1 29 20 20 13 39 32 43 60 51 74 83 79 79 86 86 87 89 120 137 125 138 131 166 184 187 186 174 165 165 139
114 57 57 41 22 25 8 -13 -2 -14 3 -31 21 -10 17 30 26 47 72 47 52 60 68 69 111 111 121 151 160 159 144 153 143 145 148 171 180 198 194 197 204 187 192 234
92 76 56 26 29 27 -10 -21 -18 6 5 63 3 15 31 27 66 71 75 65 56 78 92 113 131 163 197 205 205 191 186 188 174 176 163 159 155 163 185 202 206 220 267 305
106 114 102 27 60 66 53 -9 11 10 41 52 43 -0 11 48 36 66 98 102 77 76 118 166 210 237 254 241 204 212 192 160 158 157 166 167 167 169 167 179 206 240 294 370
77 91 100 63 101 57 24 87 1 10 -5 25 12 22 38 60 125 130 130 141 158 144 183 236 246 248 239 213 193 158 145 145 162 186 188 174 158 163 174 208 236 244 254 271
86 91 123 131 82 60 75 122 121 83 7 41 46 35 85 142 137 137 202 221 242 240 246 258 219 184 172 162 145 162 189 193 186 170 161 166 179 198 207 209 198 165 141 124
117 142 126 146 110 54 43 80 84 103 2 21 56 42 122 138 116 122 194 207 221 219 191 167 154 158 168 171 171 177 170 157 162 160 168 173 174 171 168 139 122 111 117 119
160 159 131 125 130 112 117 129 133 79 61 84 58 62 146 161 90 209 222 207 189 175 170 160 165 174 171 162 166 180 179 182 150 160 187 191 176 166 139 118 104 97 91 80
120 147 177 175 155 88 159 210 180 126 77 67 83 106 119 180 192 205 232 214 190 180 172 175 200 208 197 174 172 191 180 155 179 200 196 171 147 116 113 126 124 111 119 117
64 134 157 118 125 130 150 101 77 100 85 116 92 132 169 217 186 218 247 220 207 201 205 205 226 235 223 221 210 214 180 171 158 160 178 185 162 146 141 142 137 131 129 134
116 106 123 71 62 86 96 101 126 105 138 128 109 134 179 221 200 227 241 250 230 217 219 246 260 275 280 257 268 243 197 186 193 219 227 189 192 165 154 132 136 145 149 141
98 113 94 47 53 76 69 89 103 151 179 139 135 141 145 227 234 252 263 241 233 249 278 287 291 283 284 287 288 248 218 225 250 239 220 195 175 163 155 155 155 156 177 159
140 108 158 122 38 53 22 62 113 156 161 150 165 173 201 231 267 265 278 279 292 315 335 335 322 320 329 316 287 258 246 222 228 233 215 196 170 158 151 146 127 140 139 149

GFSCGP_con_3kmhel_039.txt.gz
Helicity
36 13 18 0 23 -25 -16 -13 1 33 4 -20 4 22 47 75 52 65 88 38 42 33 29 34 47 49 40 65 56 13 13 16 -13 -17 -23 -51 -56 -49 -52 -40 -36 3 12 36
-5 36 -8 -13 -47 -31 -34 -20 -15 30 49 7 3 6 54 93 60 65 68 42 39 13 29 56 59 82 63 76 53 47 29 4 -8 -21 -30 -42 -27 -11 -19 2 24 38 47 52
5 -5 40 -15 2 -3 -18 -28 2 8 24 -4 5 -10 43 82 76 65 62 47 33 35 38 59 67 87 67 65 64 38 20 11 1 -18 -26 -31 -30 8 30 26 39 42 64 77
9 -14 19 3 -10 -2 10 12 49 29 3 21 7 27 52 77 45 79 93 68 60 34 29 47 50 61 80 57 43 33 11 17 12 -22 -26 9 13 26 27 44 68 86 122 114
18 2 24 -13 -18 8 -32 -13 18 13 -10 33 -10 -9 43 18 66 47 63 93 62 61 44 33 55 55 68 63 63 43 29 12 17 70 -20 39 28 38 53 57 82 95 178 158
-25 31 16 -6 0 -30 -29 -2 3 2 -18 18 -16 1 62 26 0 44 68 58 76 66 56 23 18 49 38 45 63 70 39 42 27 107 63 38 46 52 77 89 91 154 154 150
4 38 -1 -31 0 10 -20 0 5 16 14 1 21 37 11 49 19 23 28 40 95 51 44 35 15 15 37 44 54 50 46 58 62 135 133 185 250 64 83 84 176 163 169 174
50 50 15 49 -28 24 45 -11 -7 57 -5 42 36 24 12 61 73 36 12 0 -30 80 39 27 22 23 36 57 84 81 78 94 118 113 273 177 239 143 -6 48 200 187 135 230
41 2 53 33 21 -35 -14 25 -13 -40 52 39 22 32 20 38 26 22 26 29 19 6 28 50 18 36 39 48 84 162 110 117 189 338 321 212 177 130 104 178 189 155 290 301
21 24 67 74 32 -12 -66 13 -23 -34 11 16 10 14 54 5 32 36 6 22 37 29 17 23 18 15 49 50 79 161 129 139 239 265 219 210 145 85 113 143 143 271 236 193
-35 53 94 116 61 24 31 -16 -20 4 -12 26 -3 37 32 70 20 36 21 37 22 36 38 42 33 37 59 38 108 155 142 122 208 128 165 194 100 94 84 79 124 234 150 185
-18 44 80 74 10 7 10 35 4 5 -10 50 92 44 46 16 12 55 14 48 41 50 46 41 35 36 43 70 107 134 102 59 94 243 153 118 120 99 102 105 188 260 206 198
-3 25 77 32 87 59 11 -20 0 -7 3 20 20 47 29 48 40 8 18 12 41 53 49 57 64 71 74 79 79 86 79 74 98 168 143 151 143 138 160 214 257 229 219 247
28 64 76 75 30 60 50 10 -7 10 17 24 -10 21 14 31 11 24 23 62 26 44 60 58 74 86 90 96 83 90 103 124 144 162 172 218 217 218 260 291 262 260 224 228
23 46 45 24 18 10 20 39 33 -1 -4 17 2 14 15 12 32 30 96 84 74 48 50 87 106 115 104 108 117 173 207 232 219 202 168 224 229 177 198 216 230 218 245 200
89 113 45 44 25 19 14 15 17 -11 22 9 -14 10 18 47 41 50 43 76 85 68 61 78 112 173 205 158 192 242 216 212 176 187 220 234 202 206 196 216 257 267 322 322
95 115 100 69 45 33 30 2 23 5 -12 16 15 16 19 19 20 57 47 76 125 122 90 70 122 181 228 255 217 225 204 195 218 246 232 215 203 212 225 245 250 254 241 244
199 154 93 91 129 76 53 5 9 15 -28 -9 -14 2 15 30 39 124 148 136 161 160 151 132 165 203 238 270 270 248 228 218 209 201 199 204 225 242 240 244 258 243 236 227
194 108 118 87 91 80 36 5 34 14 18 -7 -12 18 13 26 147 166 178 193 188 202 193 194 219 249 263 260 225 199 191 189 193 207 223 234 220 224 229 236 228 224 203 182
360 101 104 114 58 27 34 20 34 11 -7 10 5 5 54 84 140 82 201 196 255 254 240 248 252 251 229 188 161 173 179 190 208 207 189 175 181 200 232 234 230 215 196 180
111 141 130 99 104 67 53 5 57 75 -30 39 34 54 56 87 78 176 197 212 208 225 239 233 206 187 164 161 171 194 204 206 176 151 169 201 229 236 210 186 162 141 128 114
45 254 211 116 81 33 96 121 102 87 -27 52 42 40 44 79 284 274 213 195 259 241 229 201 191 182 180 187 198 211 219 196 186 185 204 224 214 187 179 186 169 155 161 169
-24 44 133 115 105 74 72 60 40 13 32 46 41 56 67 176 290 250 202 219 245 234 231 201 210 224 225 224 224 265 250 211 161 164 205 238 241 220 200 196 189 199 185 177
56 98 46 89 113 88 32 14 24 48 14 28 70 57 110 167 227 219 207 216 241 242 230 230 244 258 274 282 281 255 230 189 201 236 253 261 252 231 207 192 189 208 195 182
75 80 50 57 59 36 49 38 16 16 49 74 103 92 116 168 191 208 218 243 253 253 259 258 276 306 323 319 312 285 258 214 235 266 278 275 270 242 230 245 223 199 192 196
76 55 95 82 25 41 57 37 89 50 24 54 62 111 179 157 164 192 220 250 282 300 314 305 329 344 362 353 341 313 281 256 272 290 291 275 250 233 207 179 144 184 180 161

GFSCGP_con_3kmhel_042.txt.gz
Helicity
28 28 16 7 24 28 -21 -7 90 78 21 19 72 189 36 -58 180 90 95 154 49 42 41 85 98 75 5 50 -18 -43 -35 -50 -46 -30 -84 -130 -120 -94 -69 -109 -5 19 7 81
12 54 2 -2 -19 -10 -38 -36 19 44 64 47 -4 6 146 154 138 150 97 132 81 13 86 104 134 67 59 42 8 -31 -47 -46 -69 -72 -72 -77 -63 -72 -54 -56 -35 4 20 51
31 4 24 88 -2 -8 -20 -46 -21 69 42 31 25 23 30 87 58 108 146 101 134 138 193 119 133 116 147 117 56 11 34 20 1 -7 -44 -34 -19 -29 3 5 29 21 45 12
4 6 -44 23 -6 -13 -3 -10 -59 24 17 -10 16 -1 89 123 99 96 90 95 70 137 238 206 142 166 103 136 112 55 8 -5 6 -17 -62 34 9 36 61 39 86 57 83 87
-12 -36 1 29 -5 -9 -18 24 -93 -43 -21 -1 5 31 12 73 70 126 134 76 102 90 152 276 230 213 200 114 151 96 48 34 97 35 -40 -30 39 69 57 76 97 115 152 185
-24 -30 5 29 -14 -35 -3 72 23 -1 -25 -47 -11 -8 56 56 45 48 119 124 97 96 110 122 260 226 219 169 114 121 51 18 126 122 9 32 79 103 171 101 88 129 190 219
-1 -56 13 28 -8 3 14 -37 -6 -10 -7 41 25 -11 36 68 19 32 60 68 158 144 86 103 131 228 200 214 229 174 141 63 26 189 109 84 116 94 220 283 164 132 185 256
30 50 -53 28 -35 21 46 -6 9 38 -70 -124 156 -13 -1 89 24 53 50 10 48 164 176 135 82 152 189 219 252 224 179 133 82 172 202 146 259 240 232 356 272 282 199 238
39 0 33 27 39 -63 12 13 -28 144 50 -11 -3 -16 7 59 54 69 28 54 27 8 152 165 119 104 186 257 293 282 236 159 125 174 289 325 199 237 254 220 207 223 219 258
-18 66 -30 71 63 27 -68 -1 -35 67 -12 -2 -1 -26 20 89 15 41 33 18 40 32 1 66 153 36 143 262 327 350 308 265 182 210 324 385 186 239 203 153 205 210 222 317
-16 73 48 -22 77 58 57 27 24 -32 5 -35 -2 -9 77 117 143 20 26 67 69 36 58 64 97 87 128 249 175 323 353 329 291 298 400 296 212 215 183 145 171 162 292 279
11 84 70 20 46 85 26 34 18 -27 44 32 63 -35 4 21 14 49 65 23 70 65 45 46 50 66 74 110 97 320 305 357 284 405 375 236 301 215 219 162 149 230 248 235
122 76 104 92 14 41 51 -40 31 1 14 17 75 -43 42 57 50 67 62 -8 89 102 40 81 77 69 57 71 106 178 245 323 266 280 233 188 199 260 181 139 185 241 251 255
92 168 104 131 91 57 25 15 66 83 9 56 6 -15 25 2 106 30 31 61 40 70 86 63 111 96 82 108 113 197 243 198 187 165 209 199 224 325 285 292 318 319 305 297
130 129 85 76 21 19 58 21 -9 46 37 68 63 47 23 0 149 92 74 110 97 92 73 93 98 196 171 173 172 200 236 234 273 222 331 390 376 317 287 293 310 302 314 320
147 157 135 29 62 35 42 36 28 41 13 15 37 23 33 22 160 79 48 49 88 108 114 153 133 220 236 204 190 291 326 287 318 388 420 379 313 293 265 271 272 320 337 324
137 199 135 135 71 81 28 -29 25 18 22 41 32 38 43 -6 46 79 0 100 88 133 186 170 113 280 311 227 329 334 295 254 280 401 401 327 305 311 336 345 357 330 320 298
231 143 110 143 145 79 76 36 61 51 65 61 53 26 31 20 32 46 89 128 149 233 311 267 283 329 355 343 326 302 239 288 317 301 299 297 291 272 263 285 303 308 315 328
478 371 339 243 167 116 94 76 95 104 63 -1 36 -22 -29 12 37 123 139 140 182 300 371 344 350 332 334 336 273 271 262 269 273 252 225 226 243 257 290 288 286 273 279 268
241 406 322 253 211 123 130 95 24 5 39 40 42 35 24 32 112 108 115 142 291 370 310 324 369 365 311 294 301 274 253 232 224 217 241 259 260 246 256 266 268 271 265 269
-30 203 313 276 230 186 104 53 40 39 29 8 79 39 40 65 118 131 144 251 295 303 317 363 334 295 271 263 246 247 242 243 254 257 252 254 285 275 245 241 245 240 223 205
29 87 175 169 231 155 105 53 31 37 11 62 6 27 37 70 105 136 270 344 339 301 312 307 302 268 244 230 233 251 271 275 292 313 310 284 242 189 168 182 188 190 219 255
29 64 76 108 211 276 243 41 45 62 62 46 27 63 47 120 169 196 264 302 319 286 294 257 297 279 240 227 238 282 318 343 348 301 220 176 163 220 257 266 247 304 282 293
95 34 91 91 30 225 127 178 74 50 35 83 32 45 76 136 217 230 244 272 338 310 242 306 320 304 280 276 302 382 356 288 259 271 266 260 290 317 347 341 362 361 353 308
117 105 2 -8 4 26 115 14 17 66 53 62 41 66 101 107 246 258 249 294 286 282 286 338 360 352 352 407 419 320 288 313 357 370 370 360 336 358 487 453 388 306 291 266
83 57 62 68 9 37 38 36 24 30 41 113 43 55 49 77 224 223 246 282 254 260 339 385 374 432 449 438 400 377 386 420 451 458 450 401 427 405 363 322 328 264 175 182

GFSCGP_con_3kmhel_045.txt.gz
Helicity
54 64 25 18 12 71 72 40 14 137 46 89 142 194 139 54 98 209 152 141 128 72 81 68 69 35 26 11 41 36 23 33 46 -19 -19 -57 -91 -105 -158 -93 -21 -7 17 -30
41 57 33 8 12 23 9 1 -70 14 34 72 90 191 94 17 28 100 310 202 128 117 115 85 71 32 38 15 -14 -47 -63 -84 -126 -117 -119 -114 -109 -122 -89 -67 -39 -33 -42 -52
93 29 64 12 16 17 -42 2 -108 -45 28 24 11 91 155 15 61 131 283 230 149 206 161 103 101 66 81 39 -3 -44 -69 -99 -81 -56 -94 -95 -67 -88 -64 -53 -41 13 20 9
42 18 1 -23 27 71 -10 -17 -27 -59 -26 -26 10 -34 171 213 114 162 242 233 190 191 213 178 146 113 85 53 20 24 -2 -36 -75 -73 -90 -92 -67 -43 -24 33 75 49 55 72
23 21 8 -16 4 44 10 14 13 -15 -63 -23 -80 -27 11 232 152 153 164 190 184 319 365 317 228 200 128 84 61 24 7 -11 -12 -27 -39 -29 -21 18 23 27 52 52 51 94
-7 18 -43 -20 19 65 -43 75 66 -8 11 -31 -63 -86 -11 151 110 133 182 208 217 312 415 398 313 237 205 159 117 76 62 32 8 3 -17 -21 -28 27 82 110 149 103 91 168
7 10 -13 -30 31 66 -63 54 31 37 7 3 -14 -94 -78 92 46 285 158 209 228 346 354 396 346 310 228 217 188 141 101 39 -2 31 14 38 42 98 160 240 213 270 295 247
82 25 -32 -35 27 65 4 59 77 23 -2 -89 -38 -121 -17 76 6 -27 54 136 217 225 345 359 375 426 358 270 250 213 156 91 91 67 64 41 31 30 243 240 263 326 335 214
137 26 41 -50 25 103 7 83 121 121 97 -43 -58 -65 -60 -4 -14 70 52 68 96 180 255 339 361 395 385 363 306 285 224 159 121 198 148 91 76 101 196 234 287 304 294 245
67 101 19 15 55 88 78 44 90 110 78 9 15 -20 -59 -9 67 41 76 59 39 50 115 212 372 344 266 294 323 316 318 322 222 162 233 183 138 208 269 279 279 282 281 247
80 61 47 81 44 105 120 -19 50 70 119 62 14 -20 19 53 104 138 7 107 107 131 123 50 200 313 292 378 442 394 240 303 181 102 204 309 322 376 342 287 240 210 246 269
118 87 72 70 85 80 81 65 53 102 83 113 99 20 56 2 19 9 14 62 115 155 158 97 26 146 149 210 377 222 297 359 251 259 226 388 418 483 329 145 246 249 240 239
87 81 103 84 77 71 60 76 49 88 165 35 102 19 46 103 12 12 15 108 99 171 164 151 77 68 83 121 245 188 294 412 294 290 377 467 472 312 271 300 357 301 240 228
70 105 107 86 127 110 116 77 23 42 133 91 102 119 86 60 10 38 113 116 56 51 125 150 180 94 59 88 126 171 228 314 353 330 293 381 289 287 224 301 305 246 202 240
123 80 62 93 96 90 86 39 22 33 63 114 88 125 78 73 39 125 163 124 174 79 11 129 180 194 191 160 197 287 303 265 366 315 362 370 372 328 319 304 272 261 272 293
218 81 88 147 161 53 111 94 16 1 79 82 81 83 -9 -14 97 153 154 81 53 137 86 155 201 272 361 352 332 343 366 428 436 398 377 385 396 357 344 325 323 356 381 363
140 219 177 130 154 97 53 78 53 85 61 20 131 101 67 88 142 125 97 73 171 250 185 222 278 320 392 477 440 409 352 370 410 438 450 444 431 443 404 380 375 379 367 329
132 251 264 188 248 169 104 37 59 92 55 15 85 64 64 82 82 113 106 103 80 100 255 306 378 457 510 595 519 427 407 406 425 477 505 517 531 482 419 405 360 338 319 321
130 153 205 198 229 189 158 213 96 117 66 34 57 84 42 52 51 94 201 204 175 224 225 296 414 537 639 615 533 497 416 398 424 428 427 413 396 405 366 349 338 336 349 326
78 -14 168 469 255 172 80 167 195 130 100 91 85 83 59 80 130 72 147 207 181 254 308 404 520 556 553 564 549 467 424 438 395 376 361 338 333 346 329 314 319 304 309 322
-26 40 70 438 366 241 126 75 39 140 90 52 40 57 31 98 12 65 150 191 190 202 299 467 526 491 505 557 528 461 436 390 362 350 321 335 334 328 316 309 305 297 319 331
2 99 -50 113 192 179 193 206 153 250 124 31 32 50 4 46 37 47 141 182 214 265 337 452 506 478 485 493 464 428 394 353 345 369 384 343 345 311 282 267 267 272 325 330
61 75 25 33 84 177 111 57 37 90 153 184 18 170 185 96 123 107 149 204 261 337 414 479 492 461 430 438 419 425 385 419 452 435 383 356 324 277 219 222 252 332 344 334
66 194 99 68 20 1 133 -32 -42 100 223 206 116 58 63 64 101 130 189 242 316 377 455 483 482 454 433 411 409 445 484 480 448 424 385 379 373 417 477 479 478 444 414 439
74 122 110 88 56 24 49 46 16 51 256 155 20 77 68 22 41 131 214 253 323 379 446 444 460 440 454 479 511 493 441 412 429 460 493 536 615 638 617 542 444 496 509 414
94 69 105 49 2 75 46 -55 -36 -35 121 144 -21 51 36 21 34 203 226 247 329 389 429 462 480 536 536 562 498 399 383 450 554 603 619 618 599 600 566 527 556 539 447 415

GFSCGP_con_3kmhel_048.txt.gz
Helicity
124 144 68 60 54 18 -17 -4 63 123 98 128 107 135 171 192 209 238 219 170 101 60 51 65 71 57 66 87 118 130 25 124 226 327 305 216 284 317 18 96 116 67 -25 -3
129 76 29 41 9 -4 -22 22 66 82 47 70 62 82 112 200 204 256 221 213 137 101 58 43 41 78 70 73 44 65 78 118 133 131 86 31 72 54 -28 -48 -98 -159 -67 -46
102 65 26 20 -18 29 -12 13 61 43 11 39 113 30 76 146 145 174 155 194 198 210 155 77 58 60 47 43 35 16 17 43 34 84 46 -57 -85 -84 -126 -246 -283 -236 -146 -59
89 0 24 88 48 44 40 48 18 -8 28 108 41 -20 -53 46 129 112 139 204 269 254 182 138 85 81 57 7 -8 13 -29 -49 -53 -64 -70 -101 -137 -178 -227 -263 -259 -203 -106 -65
133 41 72 80 6 31 86 82 44 11 33 66 -13 19 -47 -24 109 147 178 211 280 323 267 211 144 123 64 37 -14 -58 -71 -127 -117 -112 -113 -110 -130 -150 -177 -192 -166 -109 -69 -25
69 55 62 73 58 48 51 59 44 71 49 -21 -41 8 -95 -29 90 141 221 196 250 342 332 226 167 130 102 71 43 13 -21 -67 -104 -85 -81 -80 -104 -98 -90 -51 -25 -29 -12 35
56 18 12 32 79 31 75 119 75 69 31 -44 33 -4 -47 -23 99 139 249 177 261 296 314 295 234 245 189 148 127 100 89 42 16 -8 -42 -58 -83 -68 -56 18 45 63 71 72
147 75 16 66 68 55 95 113 106 57 10 -20 48 -75 -30 13 43 43 95 171 234 285 292 320 333 335 299 270 215 175 144 97 74 81 50 15 -4 -44 -23 -11 33 61 76 169
115 113 58 57 79 55 57 118 80 170 111 46 21 33 34 -26 -79 37 28 88 111 212 309 303 309 323 331 304 292 271 205 159 172 155 119 50 8 -3 -10 2 75 107 177 212
81 72 68 26 62 49 99 97 136 198 97 46 35 56 43 81 56 60 -15 67 194 200 305 345 315 327 332 320 336 319 244 269 165 124 135 84 27 -21 -7 76 120 165 162 258
112 82 45 73 61 58 105 94 169 159 151 95 64 48 22 22 34 8 34 42 51 138 228 292 408 349 389 304 293 358 358 251 252 165 101 219 151 125 104 83 138 170 247 260
94 81 89 12 85 145 80 90 158 198 195 133 104 23 15 1 21 20 110 85 78 76 90 139 266 337 402 339 323 372 415 325 365 270 202 141 120 192 281 357 372 132 141 209
160 119 198 90 40 83 98 112 139 163 219 169 102 42 55 69 50 75 63 51 68 75 105 151 187 222 273 264 279 288 349 355 387 284 233 163 211 293 312 353 251 27 99 147
8 86 73 116 122 145 181 183 136 140 212 191 120 70 138 84 83 84 68 60 58 89 172 158 188 140 190 191 184 269 329 383 395 399 325 270 316 325 287 282 195 283 307 289
37 46 135 32 55 68 108 102 103 137 159 176 97 109 83 88 81 59 107 95 124 106 127 169 178 147 144 157 132 149 193 332 409 410 318 332 355 301 225 296 350 345 353 327
-12 45 152 108 45 77 31 93 103 79 108 86 83 107 126 108 112 113 95 119 144 104 163 203 173 221 258 275 242 223 240 212 301 324 269 271 357 360 322 277 303 290 290 282
-33 60 148 70 123 129 133 19 121 127 136 103 133 77 94 81 82 72 86 138 110 123 124 171 204 218 303 338 368 395 402 362 277 267 324 354 390 348 344 368 380 363 329 345
-49 -24 -32 50 202 159 89 70 124 101 77 57 88 90 90 80 49 58 105 130 141 153 95 161 218 285 368 445 471 539 543 489 389 405 415 430 499 526 474 444 423 401 373 359
52 -48 -84 126 153 159 122 110 88 113 51 60 88 72 100 52 67 75 38 111 158 171 167 207 271 406 429 476 562 576 542 476 460 460 468 467 473 499 446 424 369 333 349 344
89 -72 -59 -72 43 87 4 41 126 119 150 212 135 93 106 90 103 105 55 82 121 174 226 263 260 378 487 510 609 626 556 491 440 413 406 439 433 398 355 329 312 327 347 393
-1 -79 -192 -52 -83 39 37 133 167 127 147 218 238 209 158 119 82 96 119 191 166 185 171 250 282 315 418 525 594 557 501 456 388 357 361 364 336 312 289 310 344 384 418 410
-6 -55 -41 -44 -149 -68 14 108 269 223 222 204 249 187 218 169 74 53 72 151 170 162 175 221 316 362 431 482 532 491 449 409 389 393 377 332 302 291 293 327 353 382 405 477
78 35 -41 -26 -44 27 -23 -4 11 6 149 229 211 311 256 265 49 65 71 114 150 182 225 288 367 444 459 458 446 458 427 441 418 377 341 320 302 293 310 342 371 378 388 409
79 91 124 73 8 5 17 30 25 -29 44 99 97 240 340 306 187 98 109 211 242 256 285 327 406 431 466 448 456 450 440 417 384 359 342 351 384 424 434 425 380 365 376 424
66 42 42 64 40 57 18 9 -25 -12 33 41 52 109 229 252 367 92 112 174 259 286 305 329 378 423 451 444 439 424 415 399 400 424 458 480 480 483 510 546 493 491 478 412
55 69 60 62 122 69 14 50 54 33 -7 17 48 134 181 211 98 49 144 200 252 284 316 372 438 500 479 471 450 434 427 439 476 498 493 492 527 541 561 586 642 645 553 524

GFSCGP_con_3kmhel_051.txt.gz
Helicity
192 219 199 135 104 110 75 64 47 -10 67 61 75 97 115 149 204 193 161 119 79 49 51 98 102 88 90 108 140 -41 132 257 247 234 383 482 285 320 269 374 340 325 181 91
191 96 160 83 95 77 91 64 1 20 62 33 8 14 53 193 237 233 212 141 73 54 73 96 105 98 103 119 148 59 -70 82 218 331 269 446 259 241 258 464 341 175 204 185
182 126 160 142 104 89 59 102 0 12 114 67 35 -98 -18 83 163 170 135 123 108 76 87 111 128 119 123 119 82 65 76 80 98 64 59 122 80 172 149 251 166 -25 -103 17
132 39 127 123 67 110 34 65 76 82 73 71 82 0 -30 -16 68 123 120 149 153 112 77 77 115 122 121 116 82 25 34 85 89 66 5 5 -6 -12 -51 -44 -76 -79 -115 -105
155 69 105 94 31 146 18 61 109 94 58 114 88 71 -15 26 -1 101 204 168 150 156 170 136 127 140 95 96 86 54 43 47 22 20 -31 -38 -46 -64 -90 -111 -131 -155 -228 -188
102 111 113 111 68 97 46 86 116 158 148 94 79 76 -52 18 18 -17 150 225 172 180 158 119 93 80 73 50 42 47 34 23 39 -6 -24 -21 -32 -78 -143 -175 -206 -234 -264 -276
101 69 109 109 133 90 116 139 126 135 182 79 91 84 21 10 -15 -3 100 206 252 213 212 140 155 195 163 119 81 57 41 9 9 2 -21 -27 -43 -83 -107 -130 -152 -153 -177 -196
137 85 109 105 102 111 136 153 159 98 103 71 113 66 31 21 -16 -38 7 80 185 208 217 236 225 234 227 193 142 111 87 38 36 48 4 -14 -16 -39 -72 -92 -100 -77 -59 -45
58 86 104 105 137 109 89 159 111 182 149 83 72 89 54 22 -8 -46 -1 51 152 193 234 261 268 272 278 231 221 171 136 84 87 75 49 36 50 35 15 -19 -59 -76 -84 -79
110 78 79 98 122 125 101 102 158 185 129 75 81 56 59 71 37 26 31 34 107 178 211 221 250 310 311 275 249 218 183 154 125 96 89 56 65 31 31 18 30 56 -1 10
141 123 42 75 182 122 163 130 152 109 164 113 44 7 24 35 11 75 102 43 24 104 180 254 313 388 425 354 272 247 233 267 200 171 136 139 102 68 77 69 80 106 144 136
90 96 78 46 55 88 141 120 122 155 157 171 81 43 52 33 56 24 77 83 38 67 136 181 236 317 376 432 436 334 339 331 355 322 228 141 148 142 149 152 173 161 98 206
185 206 122 86 80 99 133 112 126 143 176 158 139 58 63 35 36 29 39 39 74 67 61 100 149 213 281 346 420 416 355 352 342 384 383 292 206 207 236 286 237 255 215 119
85 252 276 176 91 100 106 108 148 147 162 199 198 130 141 130 59 58 59 55 48 67 87 107 117 168 176 264 288 357 360 379 371 367 429 395 285 252 262 222 324 326 254 209
-25 138 173 162 100 48 119 148 108 152 181 155 133 151 111 106 94 85 77 79 56 41 84 133 165 150 169 222 184 152 212 291 349 376 411 387 329 243 290 353 352 283 215 213
22 -11 93 58 169 106 33 96 126 121 155 153 118 112 113 75 99 112 83 74 84 73 115 144 174 211 209 237 174 163 173 227 309 377 407 331 315 357 315 275 246 289 268 257
-7 -93 -55 33 154 198 102 21 73 107 97 100 121 77 89 94 77 92 64 77 104 53 67 112 154 215 294 222 155 164 188 256 317 307 346 328 326 300 271 282 290 281 310 346
103 41 -58 -52 -62 59 159 313 60 61 88 137 140 105 64 118 93 75 98 93 89 74 59 95 132 209 257 257 257 318 322 324 320 316 350 331 303 258 304 323 312 351 355 365
165 95 -130 -50 -145 17 76 141 138 153 229 52 85 98 128 94 89 97 67 80 62 93 102 130 116 226 300 349 372 344 320 371 402 392 367 359 377 396 369 365 374 418 430 398
281 199 73 -83 -183 -311 -169 0 -24 55 94 84 89 176 164 138 23 53 54 55 59 72 114 174 190 231 299 316 384 394 379 378 412 403 408 378 359 359 367 401 412 425 417 429
271 348 181 24 -102 -139 -139 -11 -8 -23 68 86 35 146 262 278 199 124 134 94 104 118 116 197 249 227 248 296 362 413 421 414 467 418 361 342 328 320 345 420 419 412 418 458
143 121 174 186 85 -15 21 107 -1 -37 161 243 44 8 113 187 219 176 146 94 83 114 155 167 178 210 226 285 361 407 442 427 410 376 360 334 311 311 349 368 362 368 404 461
198 198 99 106 21 46 33 35 19 3 -62 138 354 68 130 158 167 207 105 103 133 116 157 182 191 226 252 302 342 398 370 386 401 383 365 369 378 379 360 331 345 384 406 438
156 182 142 109 -7 18 47 91 47 37 -94 -100 -12 207 56 102 207 281 271 199 137 86 133 168 200 230 281 299 331 336 353 362 373 382 397 395 412 431 412 404 382 379 383 388
107 112 112 82 106 45 15 22 18 23 53 -26 -21 15 112 162 104 86 246 287 202 173 153 185 220 260 274 280 309 321 345 381 420 428 415 414 404 407 452 481 411 384 362 302
157 107 69 65 85 20 12 46 131 58 129 126 55 28 33 13 72 64 59 144 255 298 251 265 286 314 318 327 360 358 349 374 391 407 400 378 377 374 383 429 513 541 438 410

GFSCGP_con_3kmhel_054.txt.gz
Helicity
214 245 246 266 214 144 107 110 95 102 41 57 16 36 75 61 160 173 132 133 108 93 74 95 83 94 106 109 125 60 41 191 261 250 226 209 124 95 89 121 123 114 205 236
250 88 218 159 140 136 138 97 65 28 65 71 18 -4 -18 43 101 199 153 126 116 107 124 112 108 103 107 139 164 69 -11 72 146 241 133 231 158 253 414 162 188 174 338 281
214 129 221 172 171 139 118 130 82 67 88 83 132 -19 -9 -35 25 81 121 102 106 143 137 118 106 94 92 91 128 46 2 48 146 180 297 266 177 438 397 139 293 209 412 284
146 126 107 181 156 181 83 108 91 104 121 95 88 26 -41 -38 -46 -6 87 94 117 122 113 118 124 118 101 81 69 73 62 80 130 195 165 191 207 341 199 121 272 341 311 145
194 112 147 161 79 167 61 96 101 134 138 131 123 133 11 8 -61 -43 45 122 124 132 150 144 129 143 103 86 75 27 56 69 124 170 172 153 65 25 123 109 34 108 78 81
119 78 109 93 95 91 82 95 129 150 144 112 77 163 54 35 21 -4 -15 90 107 111 122 94 130 176 135 93 88 78 50 45 78 141 151 185 179 102 23 -52 -30 -11 -85 -48
158 113 137 135 123 121 133 202 235 202 185 122 108 182 87 31 30 55 10 6 94 82 94 114 178 181 193 179 138 111 104 61 30 34 41 54 34 36 16 18 -29 -79 -124 -172
174 135 126 115 101 139 203 247 266 162 130 85 159 117 81 28 9 4 -3 -41 10 70 79 98 168 197 201 196 202 180 133 84 88 55 13 -3 -6 -29 -62 -96 -116 -181 -186 -182
103 107 99 87 148 151 164 235 157 163 115 99 98 133 89 34 29 28 0 6 36 39 81 127 141 194 213 197 224 246 197 133 94 84 66 34 -3 -7 -49 -43 -50 -62 -92 -90
115 71 65 89 119 142 139 96 227 256 133 92 134 87 74 39 51 26 36 11 38 35 33 84 132 168 212 235 217 207 227 188 170 136 83 55 40 2 -25 -44 -61 -54 -42 0
125 140 82 107 118 102 162 162 165 150 187 128 99 61 39 38 44 59 49 27 20 46 61 86 129 158 202 225 254 236 239 257 203 176 165 131 114 72 38 9 -12 30 7 15
162 110 94 95 60 86 128 140 130 158 147 149 131 112 104 -13 35 33 33 44 25 27 76 92 125 148 200 241 241 246 217 213 211 195 222 179 158 150 196 123 78 98 113 107
210 209 157 122 145 44 52 84 142 137 140 140 130 137 85 39 36 25 21 21 49 45 41 85 131 149 191 216 229 276 274 276 225 225 232 277 325 267 268 209 140 132 122 87
148 159 108 118 172 204 191 219 203 156 175 134 107 94 121 123 97 55 41 38 34 42 38 72 99 133 167 189 195 239 274 242 251 283 287 361 416 467 411 278 202 183 134 143
123 131 132 118 116 119 111 213 225 201 183 131 53 69 75 61 88 91 91 76 74 57 53 52 75 135 173 186 193 195 204 221 232 262 290 367 457 446 430 382 323 213 179 176
63 100 96 115 135 97 14 53 73 90 114 155 145 105 95 80 85 58 21 65 68 80 50 44 68 87 145 217 257 227 182 144 175 180 203 229 298 409 419 338 304 273 281 207
110 74 57 47 84 123 72 32 104 108 105 99 77 22 61 138 86 76 59 92 101 87 79 83 102 115 159 189 276 285 210 182 161 167 192 222 284 355 370 317 273 263 250 263
191 115 81 20 32 61 41 33 -18 49 104 231 232 216 89 105 85 97 67 78 84 61 60 91 103 94 119 171 229 263 218 227 230 204 209 273 326 345 363 300 232 229 309 360
123 185 112 41 -65 34 24 49 2 -40 49 123 53 153 198 194 53 90 88 56 72 88 67 89 124 122 112 136 193 272 256 259 268 227 240 292 340 350 360 329 334 336 339 324
142 166 181 132 34 -60 -156 3 16 -40 -74 -16 -22 54 106 203 57 76 59 11 24 30 81 71 66 81 113 155 236 287 266 255 247 289 321 329 336 330 324 339 326 312 313 346
98 112 76 104 91 60 54 -25 0 -98 -91 28 -46 -3 64 96 141 110 92 49 76 78 37 35 67 97 120 204 268 264 250 258 328 350 317 288 275 288 293 311 295 313 353 424
42 49 95 101 81 79 33 44 37 3 84 1 1 -34 7 134 221 122 50 62 89 100 90 112 121 170 191 233 269 272 305 270 315 315 322 297 288 272 269 318 362 400 447 530
113 116 88 84 74 65 55 20 26 40 79 88 19 56 0 96 208 119 115 91 63 58 60 106 187 215 179 150 134 168 160 202 237 281 300 303 303 300 291 326 372 414 419 425
77 91 105 123 106 63 12 -46 31 10 15 32 66 23 3 65 367 202 75 107 94 182 102 76 96 170 172 162 182 170 193 232 270 296 308 318 350 378 388 382 345 327 323 315
64 117 108 113 118 63 133 86 64 -9 93 85 31 -8 76 47 57 130 151 84 28 14 13 124 191 176 207 194 170 134 146 193 260 273 286 322 343 351 386 402 328 280 283 241
125 113 127 98 130 58 28 44 72 63 123 70 53 83 40 48 3 3 70 80 71 68 87 143 191 181 387 293 308 256 212 192 215 250 246 268 298 316 326 339 420 457 347 336

GFSCGP_con_3kmhel_057.txt.gz
Helicity
201 204 143 177 150 119 121 103 76 66 102 89 102 20 20 14 48 58 107 138 101 80 50 45 47 52 51 76 135 168 177 125 172 188 162 161 129 162 114 65 -34 -29 -9 45
223 123 112 118 117 109 108 133 56 24 82 89 84 36 -38 21 19 31 82 123 98 97 95 67 66 71 68 101 155 162 64 88 166 155 196 170 149 191 81 -2 -51 -26 -49 55
175 131 125 120 120 129 71 96 61 35 121 102 79 75 38 -20 -12 -18 36 67 86 114 126 109 84 68 83 115 164 113 -16 -13 123 230 212 226 320 181 96 48 60 21 62 127
108 114 53 95 94 154 67 77 55 62 83 92 163 6 -9 -52 -68 -43 -2 52 107 98 114 135 107 85 71 75 109 44 34 -3 18 188 233 235 213 252 28 176 200 102 136 169
119 109 165 118 67 118 71 82 54 71 87 82 111 63 49 27 -7 -55 -24 17 102 124 115 148 153 110 71 79 67 54 50 110 122 99 118 196 189 142 135 222 358 299 142 122
81 80 72 105 92 63 86 106 135 141 132 56 70 99 35 34 26 -3 -19 -20 -1 89 74 73 119 140 75 72 45 44 93 56 87 133 159 219 170 179 146 180 287 170 131 244
107 89 108 113 119 141 150 164 193 160 151 94 114 101 46 88 65 41 9 84 1 48 65 80 131 157 129 97 77 44 58 87 122 137 111 138 122 100 118 83 125 52 74 163
134 98 110 136 157 147 133 170 239 137 128 105 135 99 47 -13 -11 -0 -4 44 36 11 57 76 96 134 130 132 132 88 54 56 75 104 104 86 61 55 57 60 103 98 94 126
72 76 109 142 139 118 143 183 144 176 192 134 108 125 16 17 42 49 41 47 76 36 46 36 81 99 123 140 155 148 107 72 87 89 79 56 61 38 18 -13 -16 6 46 35
122 92 92 107 105 118 93 86 152 201 143 107 94 83 32 33 14 37 22 14 20 53 34 36 53 79 90 126 142 126 124 116 106 80 98 85 70 35 23 9 -14 -39 -56 -49
130 126 133 125 127 99 154 137 180 165 185 138 92 70 30 -19 2 20 38 38 54 28 5 15 38 69 86 119 151 145 122 124 113 94 75 86 87 91 83 69 45 11 -27 -53
110 115 100 133 171 114 130 130 128 181 171 178 163 134 92 49 -12 2 41 39 36 54 46 32 50 69 98 127 178 194 165 141 139 153 135 109 128 90 94 94 89 109 51 4
225 176 131 156 148 107 162 180 164 189 191 153 143 145 97 70 34 37 32 30 25 47 49 36 52 72 75 85 135 164 220 227 184 151 158 174 171 121 97 87 175 210 126 134
185 191 184 128 152 210 247 233 190 161 189 162 144 96 75 47 28 2 22 19 24 35 42 32 34 60 57 67 98 120 177 209 236 224 221 205 222 257 234 169 202 209 198 189
153 173 174 173 120 87 122 174 147 126 111 114 86 80 79 97 95 104 63 2 30 42 30 31 45 48 43 60 77 64 104 177 211 205 201 194 220 230 262 284 308 285 215 190
223 148 153 162 127 92 111 120 107 77 116 73 66 95 140 147 168 149 144 57 23 18 16 22 27 40 59 75 80 102 120 181 208 178 144 81 76 110 233 299 339 312 277 224
195 123 99 88 110 100 45 17 21 38 25 17 59 47 55 107 90 115 136 157 42 25 21 42 18 54 83 97 130 141 197 196 191 162 115 107 129 146 193 213 236 250 220 214
189 214 146 82 89 79 70 89 34 59 20 6 37 22 -19 -18 102 79 58 93 85 26 92 57 72 71 65 54 42 122 121 165 180 107 112 125 159 124 108 129 160 183 161 152
91 164 125 61 49 116 83 46 38 19 28 40 -7 7 16 14 -30 70 122 249 208 130 29 66 69 74 41 59 21 72 138 128 154 143 108 138 178 160 168 187 179 187 220 254
80 105 136 116 74 36 67 180 130 61 -32 27 40 67 38 24 17 18 145 207 228 91 15 37 17 39 27 39 39 53 78 109 121 157 125 135 154 151 206 239 257 311 359 360
118 106 61 81 60 55 22 21 31 36 58 72 57 61 87 45 13 20 49 91 229 160 91 58 59 47 -27 43 44 73 128 172 221 267 256 246 242 246 238 270 308 341 363 397
51 68 56 42 57 68 4 14 38 35 18 51 98 45 43 29 28 53 77 29 121 134 66 100 88 143 193 120 36 119 251 225 287 274 316 266 257 259 267 305 329 334 373 410
51 47 56 39 41 58 96 83 53 19 -8 9 48 46 46 53 58 84 56 101 18 58 39 33 89 118 282 329 259 244 245 304 332 314 262 251 267 280 289 289 269 307 348 409
61 59 65 62 50 32 50 36 23 -12 -12 -7 56 100 85 59 -4 20 76 55 137 93 59 57 83 158 249 307 297 227 145 121 159 206 231 218 223 275 320 295 252 270 279 306
74 74 78 83 56 23 59 46 70 83 82 92 82 48 76 87 35 -5 71 126 106 275 158 120 137 168 172 143 180 219 199 170 219 251 273 301 339 307 358 414 351 328 330 279
80 90 90 91 120 78 57 41 25 29 36 47 61 58 50 73 -78 -80 27 52 97 122 143 137 157 187 260 254 226 191 188 195 184 200 219 285 282 279 310 338 412 450 320 320

GFSCGP_con_3kmhel_060.txt.gz
Helicity
58 96 51 64 51 22 48 48 29 19 112 93 25 -10 -12 33 19 21 17 32 55 71 88 94 72 67 79 101 117 134 145 150 170 196 171 144 146 174 185 171 152 237 91 17
65 52 39 57 39 22 30 45 35 50 54 44 34 13 9 12 17 14 0 24 46 85 91 89 84 72 69 93 126 187 214 162 164 162 143 171 141 166 142 120 207 153 18 50
49 69 47 62 57 34 25 23 21 33 43 8 63 38 13 20 37 22 -18 -10 41 69 101 107 78 71 72 92 112 140 168 74 121 107 123 174 205 197 163 86 117 60 -74 -3
92 55 31 -16 28 30 30 -3 27 51 44 28 91 13 0 36 -2 26 -15 0 15 39 72 115 95 77 61 70 81 95 109 7 3 43 134 194 206 132 103 41 -11 24 -181 -23
93 48 31 49 23 33 29 70 35 40 37 58 20 37 -1 41 -10 23 12 9 9 28 55 110 90 70 58 73 81 55 49 27 -4 33 133 206 173 95 175 117 9 -95 -83 -40
71 11 39 16 42 47 59 66 47 87 75 33 21 24 15 -16 -8 29 33 7 8 -3 41 74 84 83 62 65 71 74 54 47 55 134 156 194 101 136 148 166 138 78 72 64
29 54 39 47 40 51 58 53 102 69 111 50 99 26 18 13 -1 9 50 12 25 -1 28 86 106 97 83 77 71 70 52 57 74 111 171 180 163 175 193 176 141 103 169 171
73 82 75 41 53 62 64 65 148 93 76 51 162 63 29 18 22 1 10 25 8 6 38 75 93 83 79 82 80 78 72 55 67 87 116 124 118 159 161 159 71 75 139 129
39 47 39 53 54 31 62 85 105 136 159 144 98 75 14 -18 -20 -26 8 32 24 1 40 69 102 88 70 83 96 82 79 75 71 66 74 84 75 96 76 80 49 47 95 132
128 90 25 22 17 59 71 40 112 133 127 93 89 78 44 34 9 37 32 36 42 39 38 62 92 84 74 75 92 86 82 84 74 71 68 68 62 47 33 49 57 45 76 101
139 140 57 65 95 22 85 123 145 133 92 117 88 79 41 4 43 20 27 41 39 31 33 49 59 67 73 90 96 95 89 94 100 95 70 58 57 48 28 18 27 39 52 88
66 218 95 54 105 74 24 37 39 101 114 117 128 101 42 86 56 7 21 54 38 35 39 36 40 55 73 102 124 143 133 116 106 109 86 64 57 67 60 34 39 53 77 147
133 116 126 73 88 84 103 110 121 82 108 146 113 149 67 82 84 73 52 48 76 28 26 34 32 32 38 62 88 119 146 172 149 140 104 98 83 83 85 92 83 57 38 62
214 136 88 88 129 195 143 120 108 93 104 87 89 98 75 85 89 89 57 65 52 60 25 24 19 11 38 50 63 72 83 104 142 175 158 144 144 137 125 122 96 108 112 98
138 251 168 186 178 173 169 170 158 141 132 115 89 66 39 70 86 71 62 62 72 45 43 22 32 27 24 36 37 56 63 87 100 133 158 185 201 146 114 103 98 94 125 145
175 194 234 162 126 119 116 89 90 98 89 82 54 45 99 65 50 61 87 86 96 120 116 125 40 18 9 33 42 42 72 92 108 116 113 110 135 144 119 117 139 146 154 142
179 162 153 171 116 117 102 46 38 41 37 40 47 89 115 124 126 119 82 52 81 109 142 99 61 45 31 -2 31 47 65 62 104 106 98 91 98 87 58 58 91 117 142 152
147 144 131 121 91 95 105 98 82 51 47 65 95 93 86 81 67 78 87 110 41 42 85 135 86 96 115 73 45 42 52 75 99 90 95 91 93 69 68 83 93 104 121 116
78 177 121 112 76 121 72 51 41 49 101 101 96 71 53 73 82 25 135 82 102 107 44 55 107 109 75 63 108 82 39 47 78 90 86 105 102 104 110 108 105 118 138 149
95 136 166 124 115 59 123 160 155 136 83 137 112 133 104 84 72 129 119 103 95 169 108 54 70 83 69 -10 61 42 52 56 53 63 73 94 120 117 124 112 128 152 175 222
101 92 86 128 137 113 90 135 97 112 186 206 183 117 70 56 85 75 55 39 43 61 146 91 120 86 40 52 10 23 29 42 105 156 152 154 144 136 163 250 324 308 368 410
65 66 54 13 43 76 33 -10 57 104 76 39 78 59 45 41 44 55 52 20 -2 44 132 97 70 168 158 106 90 118 112 137 136 166 247 313 344 324 350 353 386 365 367 371
52 36 44 31 51 47 61 87 46 8 -18 -4 20 36 44 52 67 71 68 58 49 15 94 127 43 92 174 266 219 225 308 259 241 307 360 429 481 508 472 395 366 342 279 310
42 43 53 60 46 53 67 60 56 22 13 10 20 33 67 76 82 72 62 89 73 51 1 97 130 117 141 256 284 210 219 288 364 401 452 500 542 569 601 470 375 311 257 259
81 53 51 41 36 35 14 44 66 71 53 57 38 58 86 87 88 73 55 69 66 69 70 41 123 163 121 101 235 314 189 168 263 324 344 333 331 348 385 425 390 384 408 257
40 44 44 65 93 86 99 57 48 27 47 47 26 40 37 53 58 73 104 94 10 22 31 61 86 168 268 136 215 261 254 242 229 284 294 296 281 281 294 320 368 490 475 510

GFSCGP_con_3kmhel_063.txt.gz
Helicity
75 64 81 67 49 72 99 30 20 16 15 73 7 -9 5 -1 79 44 29 19 37 42 91 147 106 91 89 120 118 159 190 202 199 122 140 105 150 176 163 96 166 42 66 65
260 -21 78 56 56 35 50 42 36 32 49 70 24 8 -1 8 18 53 16 33 19 29 93 160 133 100 82 108 140 173 220 268 169 118 86 95 103 187 234 231 126 157 74 52
188 151 64 94 55 52 20 21 34 36 35 27 19 22 12 10 21 28 32 -18 1 32 70 141 145 118 100 99 122 193 239 269 174 72 149 117 177 185 228 315 176 214 221 86
143 79 47 97 64 62 44 20 29 41 49 29 6 40 5 16 36 62 43 36 1 18 40 98 127 134 117 87 124 159 191 199 114 50 121 126 147 151 164 219 209 139 54 233
118 88 86 58 73 32 47 37 29 31 38 36 38 28 18 10 19 32 21 25 64 10 54 72 111 114 124 116 109 85 185 110 56 65 86 106 118 105 137 148 160 167 34 -87
318 158 106 67 31 77 39 29 57 54 36 44 15 20 10 -2 36 13 35 25 19 56 34 61 98 106 133 119 106 94 139 104 89 118 133 156 119 163 154 159 121 180 116 -17
126 324 117 23 85 43 31 51 100 98 88 45 -6 4 -2 21 43 31 23 12 51 35 48 53 109 108 115 144 112 92 105 127 117 123 142 165 181 172 155 148 159 158 129 80
44 118 167 31 93 60 39 58 139 116 80 48 -14 85 24 22 40 40 29 32 24 89 54 42 79 88 85 123 124 98 94 104 125 131 146 136 132 125 138 137 125 142 191 116
75 20 -14 -4 26 128 35 46 20 121 55 178 105 32 39 34 2 2 1 3 22 35 68 40 61 95 75 97 111 99 98 88 104 122 140 134 143 143 162 149 52 96 77 49
-8 52 29 30 9 23 128 21 48 37 179 179 107 6 36 25 8 29 14 36 33 36 37 68 67 104 67 68 86 83 81 95 107 117 117 141 144 128 136 145 113 57 53 46
13 38 47 55 40 32 150 77 73 44 86 137 74 82 35 80 47 41 42 36 13 21 33 67 49 85 72 70 77 83 77 103 119 132 129 122 119 98 122 92 94 83 77 96
18 45 6 -20 3 -29 9 41 35 141 149 78 152 126 17 133 195 58 3 15 30 17 45 30 37 70 79 78 91 109 114 105 126 139 125 132 125 102 106 90 64 53 55 61
297 40 10 35 84 50 56 11 7 52 79 72 150 131 14 51 70 105 53 48 39 26 32 36 35 42 52 66 89 98 128 129 132 153 143 142 145 149 137 118 103 80 87 79
210 93 15 35 56 19 54 50 71 84 113 92 89 57 43 15 56 104 95 110 46 38 22 10 11 11 15 27 44 77 90 104 120 142 176 177 182 169 149 136 138 132 117 113
157 145 174 96 108 99 48 32 52 39 23 92 54 46 51 33 101 105 71 54 37 61 99 110 79 17 23 27 34 51 61 74 98 99 140 186 220 182 142 142 145 145 158 168
52 198 201 140 113 114 110 111 57 40 23 20 12 22 2 52 79 81 93 109 108 108 111 146 181 214 142 84 35 37 51 63 77 91 104 130 173 205 212 205 200 178 166 183
76 111 112 214 233 138 89 55 50 40 25 8 19 60 163 99 74 106 90 109 94 57 40 101 146 144 135 135 97 57 38 65 73 91 75 97 150 182 217 234 227 209 199 193
64 128 204 121 61 168 143 137 23 10 20 34 83 98 95 116 114 80 111 100 118 120 59 65 105 130 143 121 114 111 81 59 81 77 91 76 121 164 190 211 198 203 198 185
70 113 79 165 164 167 108 68 68 55 67 112 124 142 132 95 41 55 182 76 56 61 47 75 47 67 90 140 155 154 118 75 58 68 67 78 131 146 160 184 194 193 190 166
79 110 112 83 142 127 97 124 92 78 58 140 219 177 129 98 63 95 94 99 70 16 -1 44 20 60 102 166 157 125 111 108 68 53 56 74 94 129 147 145 164 174 178 176
127 142 105 102 86 79 60 82 91 56 182 229 199 179 166 127 166 106 108 110 66 54 29 24 26 -28 -29 77 173 163 202 231 283 291 212 138 113 133 136 136 158 205 347 536
96 135 142 125 105 119 121 123 127 228 169 206 190 173 148 114 102 80 77 72 58 55 60 63 29 50 -41 -4 90 132 179 258 218 229 275 379 432 463 464 441 468 481 493 504
50 57 59 56 60 85 125 167 173 127 116 95 89 69 81 89 88 99 102 101 91 76 56 59 50 40 107 29 43 113 161 219 238 251 304 376 455 532 544 578 560 529 509 470
14 -18 56 33 14 64 82 76 65 33 -14 -0 36 64 74 76 80 90 98 99 101 104 106 102 100 77 56 157 80 71 140 150 230 308 337 391 493 583 636 598 507 433 419 452
67 26 24 30 43 68 35 53 70 42 57 55 34 33 43 68 89 100 111 112 108 117 122 129 135 139 132 112 143 46 -22 195 202 258 300 333 412 489 599 690 689 650 643 453
36 69 77 80 126 104 66 82 117 84 68 42 41 38 33 67 71 93 113 129 147 146 132 117 82 106 146 156 156 191 85 46 177 301 378 404 381 245 306 291 373 547 478 515

GFSCGP_con_3kmhel_069.txt.gz
Helicity
147 169 195 161 145 134 158 129 73 50 -1 -4 36 31 -14 118 71 59 130 173 121 321 219 317 377 318 254 283 235 195 229 227 216 175 151 123 109 142 207 159 142 178 220 252
147 190 101 130 140 236 116 134 80 -57 -125 50 156 100 61 70 95 72 170 183 85 215 329 443 443 360 299 330 279 242 262 263 237 186 151 109 96 76 117 113 154 172 191 206
127 113 41 67 104 171 240 114 40 -15 96 243 74 114 56 52 40 1 36 154 121 250 404 421 424 376 358 367 317 269 250 263 272 231 200 124 116 190 177 104 117 139 161 177
120 89 45 51 52 208 227 205 68 34 159 84 46 112 54 51 15 -36 -5 92 110 248 357 395 413 365 363 328 313 291 251 257 261 271 150 112 97 154 99 126 125 37 -68 88
72 4 70 -1 -5 203 226 195 84 55 166 34 76 68 -5 -8 1 36 -26 -11 150 217 340 421 435 382 287 341 298 287 220 247 249 242 187 142 67 109 154 94 35 29 -80 40
40 101 69 26 38 140 175 268 179 92 70 10 72 164 -63 -19 12 12 35 64 152 159 337 387 334 330 274 308 313 294 233 193 231 216 206 200 153 142 110 94 95 76 48 -20
31 -41 123 59 131 209 285 252 214 172 108 -74 62 95 -27 -9 14 -54 46 123 140 132 365 352 333 316 325 314 290 277 241 193 185 181 196 188 197 235 166 181 137 140 107 135
37 -2 11 65 72 145 127 196 208 216 163 77 75 79 -47 67 124 3 79 70 68 177 284 251 248 286 319 324 287 264 237 200 170 161 164 174 172 182 187 206 204 186 128 97
32 -11 -7 54 91 105 100 174 98 217 246 123 119 63 45 92 41 56 84 103 101 110 233 188 230 342 364 338 296 270 239 203 183 168 158 148 169 199 189 199 223 233 194 117
25 18 -19 22 1 59 84 126 120 110 267 179 157 119 64 115 89 43 110 78 65 61 96 233 252 311 362 335 288 244 232 226 210 180 171 172 188 180 199 216 251 246 214 179
80 49 17 54 17 55 85 65 94 79 158 259 237 242 247 255 393 356 300 290 238 227 221 90 244 316 330 330 271 221 220 204 204 190 181 169 166 186 194 237 222 227 192 188
84 49 45 -11 62 54 128 49 92 152 123 54 67 219 197 105 221 307 262 253 261 235 295 184 219 281 291 290 230 208 187 194 209 215 208 183 170 171 187 206 228 200 189 180
22 67 31 66 61 58 24 28 50 64 62 100 68 145 160 157 220 255 252 206 195 122 271 385 259 186 225 213 187 205 174 169 229 253 252 219 231 202 180 189 207 201 188 178
-11 21 44 76 60 42 32 77 29 68 75 -21 52 91 72 152 214 262 140 80 116 64 102 273 356 285 247 174 108 153 217 209 219 284 312 301 270 247 219 187 165 168 179 173
36 -13 26 79 52 33 -5 85 44 41 64 69 60 70 114 73 179 171 130 207 175 109 97 129 173 168 226 264 257 211 202 96 192 298 339 389 390 321 250 218 195 182 173 174
66 4 14 7 64 66 46 20 40 27 117 46 37 66 76 89 187 133 120 127 170 189 176 33 42 145 127 199 205 191 207 254 175 84 221 333 395 415 390 310 238 213 224 231
77 63 28 6 77 33 22 10 -1 40 38 27 68 81 3 150 64 126 111 71 88 154 171 166 211 93 194 174 159 206 159 162 193 189 351 174 227 343 395 404 355 276 232 254
55 85 29 47 84 12 92 186 75 25 81 11 39 40 216 139 151 148 144 109 85 116 70 97 129 165 158 171 221 217 183 155 148 163 169 213 353 343 214 342 379 372 342 283
113 120 54 47 118 109 85 158 134 154 120 85 69 208 52 169 167 181 111 104 107 115 64 14 16 45 95 153 151 119 131 130 143 156 117 118 155 227 215 298 211 353 381 366
98 129 158 49 53 107 82 198 85 129 198 231 236 267 104 51 180 165 179 128 113 115 82 17 8 22 51 87 75 74 97 93 108 139 158 120 64 137 180 235 251 175 354 369
62 114 82 104 50 53 39 101 127 260 172 209 219 238 222 308 200 173 172 194 116 97 112 52 37 28 35 48 40 38 47 69 66 60 68 96 104 56 134 185 215 333 465 626
45 95 96 118 85 7 38 76 160 167 231 268 356 283 278 296 235 265 216 184 155 136 97 32 -34 -34 -12 -2 -8 4 29 25 8 -9 7 32 66 94 88 207 300 325 460 636
68 91 148 121 94 93 145 182 241 247 249 272 290 318 253 268 250 206 175 153 140 81 28 2 -13 -13 -16 -19 -30 -36 -7 -2 3 -5 -3 -4 22 12 65 195 310 377 419 525
-27 -58 20 50 17 130 109 288 408 366 360 279 296 302 232 236 173 149 129 120 91 76 45 28 14 3 3 20 47 50 47 -10 -15 -18 15 21 49 95 100 53 53 228 402 383
-38 76 -22 60 180 378 302 393 420 380 304 258 298 307 194 126 122 90 74 64 49 49 59 59 67 68 82 77 82 99 102 75 71 80 76 79 82 116 148 206 193 167 98 70
30 107 67 45 72 239 349 332 275 247 235 237 131 158 144 88 69 58 37 33 61 90 100 131 178 206 213 215 214 210 194 172 145 134 100 82 85 76 67 123 184 388 329 365

GFSCGP_con_3kmhel_072.txt.gz
Helicity
102 139 141 137 170 226 144 160 99 69 94 50 12 -4 20 2 47 30 70 -3 151 248 338 384 349 334 311 248 277 263 202 143 161 145 150 157 80 54 93 122 168 227 213 178
112 85 66 103 120 162 172 79 54 45 41 61 -24 19 67 92 34 27 29 122 193 215 346 349 363 343 326 277 272 261 224 184 160 149 141 147 106 61 79 150 213 283 221 213
95 60 56 115 143 88 87 43 57 32 71 40 15 7 66 87 90 57 65 100 215 314 340 335 359 353 350 318 292 283 218 227 213 168 171 140 86 102 104 145 193 380 346 261
64 73 100 117 143 81 77 94 130 91 -21 -45 47 -79 29 161 174 75 21 56 131 260 280 333 371 402 329 308 285 273 250 242 239 234 151 113 61 56 61 169 71 71 159 256
70 72 74 101 85 49 83 97 137 148 -37 -49 5 10 -25 166 143 93 -3 6 111 232 340 306 340 401 318 325 291 260 232 215 244 201 143 65 25 19 78 67 32 -18 116 244
68 74 72 70 31 46 61 137 104 145 8 -57 6 64 -117 57 55 43 -24 9 85 168 303 283 343 356 319 297 261 242 224 184 226 215 146 93 57 52 48 76 69 74 66 77
82 82 116 106 47 87 91 127 136 88 76 -62 -20 28 -17 47 31 15 29 82 43 192 297 377 400 333 317 320 238 206 202 168 192 212 158 99 68 64 47 85 94 116 106 18
51 95 59 34 77 65 134 169 245 152 112 45 46 -101 -1 -77 -43 44 49 102 120 229 301 365 363 272 274 335 230 191 187 150 144 181 163 119 93 67 83 94 66 67 45 59
50 61 57 72 51 12 131 77 102 155 77 41 39 24 47 44 69 74 72 -10 87 138 216 301 221 179 298 320 209 192 181 154 134 166 175 144 112 124 127 119 98 74 60 72
50 77 24 54 70 44 69 127 114 138 55 7 32 70 54 140 33 -22 196 196 226 165 111 171 118 162 261 252 184 155 158 190 148 153 150 145 137 117 115 131 148 126 102 81
58 52 45 44 15 25 100 72 80 101 138 111 145 200 343 317 223 420 387 436 381 279 54 -14 58 147 202 248 191 158 137 149 142 115 117 156 155 152 120 139 130 130 134 127
69 46 55 22 57 111 42 57 71 76 51 76 231 180 475 434 475 395 415 388 397 399 237 144 167 166 154 154 173 196 159 144 135 123 122 141 158 157 177 159 130 122 132 130
51 63 53 79 99 132 62 30 27 73 57 91 69 108 89 158 312 435 235 312 313 366 480 477 415 271 188 103 65 66 112 122 124 134 153 161 186 184 200 218 192 171 161 146
76 59 45 61 73 63 34 43 68 59 37 58 46 18 -151 122 247 469 205 120 218 305 398 506 506 388 358 343 288 202 128 110 122 161 192 192 230 240 205 200 219 223 210 172
43 21 16 30 55 37 12 -6 30 40 34 17 18 -11 5 12 57 221 204 151 165 243 277 261 273 288 334 333 304 242 199 194 168 96 157 185 179 206 223 199 196 203 227 225
43 13 11 16 28 31 23 17 23 24 30 19 62 11 43 90 1 85 118 110 124 171 102 161 147 239 251 251 251 264 208 205 171 167 242 139 64 112 168 201 228 253 224 207
24 -0 -9 -8 52 54 9 13 10 30 16 44 64 21 80 43 160 160 201 128 98 116 148 107 180 143 224 229 177 190 181 164 165 156 147 187 211 190 162 121 168 190 230 254
20 15 -6 -19 28 -28 32 128 59 -27 33 103 55 40 141 264 232 199 187 172 143 146 159 136 115 152 202 214 173 114 154 180 198 213 216 213 182 163 166 190 194 132 189 234
65 79 53 6 33 34 121 102 196 52 80 78 -8 77 319 366 240 186 163 129 94 85 80 94 103 110 104 125 123 141 162 159 140 160 161 180 209 214 185 167 174 179 192 190
96 105 96 53 26 41 65 43 111 143 86 150 80 172 156 110 169 133 99 92 98 58 52 55 80 93 136 170 130 115 117 122 152 154 131 100 108 124 176 189 207 155 141 231
83 93 56 79 63 46 -41 15 79 90 69 133 109 98 188 208 159 118 89 93 106 95 93 91 96 108 114 97 78 93 96 112 87 80 77 86 87 81 100 108 108 141 201 291
-3 4 68 129 81 12 55 51 25 57 182 215 275 297 341 241 224 166 116 111 132 125 102 88 71 62 53 63 42 50 56 49 47 54 69 80 72 68 95 116 129 139 145 287
21 38 122 53 69 20 78 77 198 257 283 275 261 236 266 205 119 103 129 131 107 89 68 64 45 43 59 62 42 29 22 28 36 40 65 85 114 128 151 166 178 197 206 170
-6 -16 28 63 37 130 148 251 328 377 358 253 172 159 137 119 109 141 147 128 123 102 96 68 65 75 87 85 94 59 12 2 6 21 38 49 88 136 160 157 190 201 209 220
-11 -2 3 104 124 294 348 255 324 289 283 258 246 204 183 150 165 140 118 107 105 112 107 88 72 72 73 64 96 122 91 44 57 65 61 75 75 99 137 237 226 220 274 243
-51 -87 37 159 146 216 317 258 230 239 238 175 200 198 184 141 97 105 113 114 113 127 117 127 103 87 86 103 119 125 112 70 56 74 80 79 75 77 84 110 182 342 342 373

GFSCGP_con_3kmhel_075.txt.gz
Helicity
142 186 134 130 141 125 139 138 133 151 74 52 63 57 27 -57 -5 57 19 68 118 120 162 384 404 374 318 225 241 236 249 203 206 179 168 133 104 75 99 175 237 209 275 190
147 77 84 96 84 89 119 135 109 77 39 75 51 11 34 -32 -4 16 41 39 80 139 248 407 395 358 308 263 233 248 228 217 196 201 182 139 131 54 88 123 106 82 104 145
133 79 112 82 66 61 112 147 156 77 -4 22 -20 -80 -75 -56 7 25 29 67 85 129 231 334 336 343 302 267 261 242 232 219 187 210 230 180 140 83 95 127 150 162 177 144
92 80 83 94 92 83 77 105 84 78 35 -35 61 -73 -84 -19 -3 -4 78 85 70 137 172 304 359 337 308 276 257 233 207 195 179 223 236 149 53 28 2 71 146 186 190 215
97 93 82 81 79 128 127 86 152 120 75 24 42 13 -161 -52 8 21 80 103 86 112 219 293 322 314 320 287 268 232 195 159 146 190 196 139 41 -29 -2 79 134 173 202 273
64 72 70 75 57 61 123 157 82 68 68 -18 27 40 -141 -23 7 25 41 94 67 71 183 226 306 338 363 251 242 234 220 166 136 163 171 161 80 29 27 82 90 108 123 437
104 85 98 97 78 101 124 143 120 80 103 30 2 -19 -15 35 33 110 110 109 89 12 101 259 308 329 323 280 246 212 212 169 127 135 116 131 114 68 25 47 46 34 38 103
85 115 79 48 64 39 98 146 153 110 60 11 61 -8 -41 -48 -3 6 42 25 61 -24 149 274 268 350 343 260 230 212 187 168 125 106 94 77 104 86 52 32 20 52 83 67
67 77 50 56 47 73 80 89 66 108 70 54 48 35 8 50 24 -97 -85 -8 -15 -23 106 201 223 328 302 238 233 187 153 145 114 91 73 54 60 79 85 84 47 11 34 27
45 97 52 61 64 45 59 60 63 67 63 19 36 -12 57 123 125 32 -27 86 76 13 106 90 135 266 197 241 204 140 116 131 94 74 69 70 65 58 69 90 94 91 64 50
87 75 76 61 56 56 47 45 56 47 52 45 61 46 118 281 332 219 210 167 140 58 116 123 160 129 148 175 144 92 79 101 65 57 68 66 88 76 62 54 56 68 57 59
107 60 82 47 34 62 93 92 76 65 43 52 70 46 212 363 417 421 369 203 240 259 258 181 149 36 64 87 101 65 84 66 39 39 42 30 71 90 90 81 74 79 85 64
69 93 100 100 92 100 73 79 64 61 46 -9 28 -18 163 430 449 421 326 303 391 475 614 507 374 319 241 134 73 37 47 61 56 55 64 55 75 87 102 113 105 96 97 85
63 55 51 86 94 54 56 56 38 32 46 19 35 -73 -118 121 408 268 304 236 293 420 459 435 424 394 389 350 298 263 236 117 76 74 71 87 121 140 146 147 142 141 149 123
67 35 45 35 56 29 14 17 18 8 24 32 29 -16 -92 -85 -23 115 216 247 289 277 328 352 349 357 383 402 341 255 211 194 169 89 101 92 102 125 140 154 172 179 166 158
43 19 28 35 51 49 38 31 28 18 18 65 21 40 -48 -80 -34 40 48 131 277 322 331 328 293 296 296 301 325 311 254 210 120 158 182 174 160 154 53 83 127 155 168 185
39 -1 -15 -20 14 19 2 33 59 50 50 76 28 16 -13 38 77 192 130 92 101 119 199 303 319 300 264 218 147 186 193 175 182 144 103 125 138 109 155 150 158 101 89 142
14 -8 -35 -37 -20 -5 16 155 21 5 13 19 49 42 31 215 233 355 341 230 178 142 220 145 191 189 191 191 194 193 194 203 217 229 206 183 165 140 138 145 149 135 131 166
40 52 -11 -15 -4 34 35 30 39 70 37 103 53 62 200 419 364 343 239 188 142 151 127 126 67 85 120 143 138 140 163 183 199 227 246 248 223 209 214 228 226 207 187 168
92 86 65 33 0 6 45 117 37 -23 12 35 50 128 235 182 267 249 106 52 46 78 83 70 75 86 112 124 100 101 127 140 167 176 170 159 163 174 185 179 191 184 173 194
66 64 32 58 21 5 7 -4 33 27 28 21 8 185 171 147 186 74 28 56 43 36 64 70 83 92 107 100 79 99 112 141 128 132 142 153 153 145 147 130 138 116 119 143
25 24 21 38 16 -9 25 78 37 14 95 71 191 342 348 272 213 139 120 99 76 65 81 95 101 131 156 173 138 137 140 100 91 101 126 140 137 116 108 113 124 139 126 157
56 20 15 -13 0 51 43 82 136 139 179 118 172 284 198 226 123 97 78 71 49 86 94 87 81 113 153 156 138 122 112 95 90 111 160 196 204 198 205 206 196 192 197 185
53 53 24 18 56 130 132 143 199 213 207 158 126 20 37 74 51 57 52 92 98 105 108 100 119 141 149 148 160 138 87 68 86 116 146 158 190 221 224 229 252 244 236 221
26 24 44 38 82 194 213 196 154 203 314 286 232 140 95 92 92 100 109 93 96 119 134 137 140 138 149 132 137 146 103 75 98 112 118 128 131 150 199 268 244 253 301 251
-3 -25 -4 26 105 188 163 129 111 135 218 216 204 190 154 139 127 111 118 122 146 158 157 167 167 173 176 167 161 149 129 77 67 90 97 94 90 88 81 89 149 302 292 310

GFSCGP_con_3kmhel_078.txt.gz
Helicity
121 171 166 169 130 128 109 87 60 78 55 63 45 13 59 64 30 22 37 62 110 92 63 128 215 310 306 329 269 229 207 215 219 214 214 176 154 128 87 32 96 127 96 148
131 118 99 92 114 107 95 82 74 50 55 101 93 11 31 50 34 18 3 31 52 81 46 187 232 280 312 305 245 207 217 204 212 186 180 162 177 153 119 109 196 390 384 307
119 78 95 142 123 95 87 87 74 75 62 62 88 -2 42 30 -17 -18 36 33 35 43 92 159 166 281 320 275 222 225 218 211 228 225 221 193 218 187 133 129 63 79 92 211
79 81 71 103 80 76 87 81 66 78 95 139 185 116 43 24 30 8 54 54 26 41 77 82 136 223 260 242 222 208 228 212 218 219 189 189 145 175 52 77 86 54 81 88
93 69 109 114 87 112 60 78 82 106 103 118 169 175 8 -52 16 45 50 49 48 48 100 110 136 238 250 278 260 246 218 186 192 172 142 139 108 66 36 40 65 117 118 143
110 111 84 66 80 63 69 66 66 109 129 157 131 150 -118 -46 31 67 51 34 82 154 147 116 155 201 236 195 233 238 212 148 152 154 126 108 93 76 70 34 43 83 100 127
101 104 103 110 100 94 79 66 79 90 117 186 106 61 -9 -12 89 98 34 49 52 97 120 158 226 204 232 223 216 225 210 158 131 119 112 70 58 60 51 71 85 83 64 84
89 117 87 79 103 63 31 97 109 112 101 72 18 1 5 103 98 88 62 4 -15 65 75 128 185 270 242 201 204 224 204 155 121 97 103 68 56 51 37 56 97 95 66 54
92 123 76 65 69 63 36 54 70 94 85 60 30 22 40 70 105 157 100 38 57 108 93 32 164 252 261 209 191 187 189 119 104 69 70 68 53 39 28 37 60 70 62 43
68 119 81 76 76 70 45 43 82 93 129 49 10 50 57 66 125 100 56 33 87 104 43 54 128 163 162 143 148 135 142 105 92 60 38 34 30 44 34 38 39 48 47 46
92 90 87 63 34 76 62 62 42 52 84 39 39 35 33 67 72 69 75 87 46 113 9 106 120 139 112 126 131 128 115 103 95 62 45 31 19 29 38 42 21 32 37 35
156 89 96 46 53 32 62 62 54 61 66 48 60 37 91 98 207 102 46 89 84 215 176 136 72 69 123 147 161 153 141 69 56 53 38 32 34 38 56 54 60 58 57 53
196 118 108 89 84 95 79 38 43 45 48 42 31 26 20 84 291 248 71 156 201 194 317 350 311 202 178 118 130 121 111 86 78 53 31 22 31 31 42 67 86 83 81 78
96 157 125 102 78 70 69 72 59 16 45 58 50 2 -29 -117 110 262 143 150 267 252 268 316 455 443 406 364 339 319 285 192 112 73 61 68 71 63 55 72 89 108 105 101
49 108 93 45 17 -10 8 20 33 15 8 19 83 19 -6 -80 -51 -26 118 68 226 290 332 369 401 398 381 375 389 339 307 237 176 116 131 138 107 60 65 66 83 117 133 134
78 36 36 34 21 18 -20 17 9 4 26 59 65 69 -9 -30 7 62 44 118 202 277 310 356 339 350 350 320 327 327 305 299 258 227 188 155 119 114 157 131 71 41 68 76
12 38 7 -18 -4 -17 -5 -5 54 21 32 51 55 43 -52 -7 6 143 167 102 168 290 329 346 403 401 395 372 286 296 264 249 338 240 161 193 201 145 133 128 132 137 144 146
5 -5 -17 -60 -43 -19 -17 49 19 -3 30 54 78 38 43 112 321 379 274 176 205 244 335 256 381 428 249 171 155 134 233 173 175 163 166 188 199 198 208 193 190 165 148 155
41 34 0 -26 -33 -16 4 102 50 25 116 51 38 164 161 187 352 351 318 280 259 239 259 187 187 170 77 123 143 136 148 139 151 178 185 180 184 188 198 201 197 166 140 169
84 67 53 35 -24 -26 -13 -20 13 -12 51 28 25 127 115 101 277 300 295 226 215 226 241 207 179 76 69 98 127 147 157 157 189 197 200 194 189 191 186 173 170 158 158 174
92 78 49 45 3 7 27 24 -5 14 36 20 6 148 158 209 223 246 181 131 88 73 55 16 31 64 101 79 69 91 114 156 145 143 166 193 189 191 182 182 188 178 176 174
57 46 47 62 15 13 44 46 53 65 47 19 72 180 313 237 305 140 100 94 54 56 52 49 67 106 135 129 101 123 131 112 119 139 157 178 188 173 158 168 171 164 144 159
65 31 41 19 29 10 31 18 3 34 16 2 39 203 367 445 340 210 73 78 49 40 65 86 100 125 168 186 160 134 136 107 97 127 175 188 194 202 205 206 196 208 212 207
37 75 35 16 20 33 15 38 94 175 158 145 72 5 33 66 46 42 10 -6 35 77 97 108 131 155 171 167 171 150 117 97 107 127 137 136 156 180 198 206 224 207 203 194
22 31 53 37 20 67 85 73 61 102 181 219 230 198 130 81 51 42 40 57 84 105 126 141 145 161 187 172 175 177 150 124 133 138 139 154 150 176 216 261 230 232 269 219
12 18 13 27 64 83 102 118 98 109 95 66 160 202 132 74 74 58 78 98 106 133 139 159 154 163 173 176 182 169 159 132 121 132 131 130 126 134 138 145 183 288 261 273

GFSCGP_con_3kmhel_081.txt.gz
Helicity
118 123 111 94 126 76 67 53 44 50 43 30 29 31 45 46 48 100 65 41 -12 -1 115 107 68 79 110 152 220 274 272 218 239 215 193 136 117 115 113 111 71 67 87 107
132 75 71 81 58 71 48 46 49 33 -5 37 26 23 18 28 20 37 9 31 -4 -18 90 86 45 66 99 206 235 297 270 245 244 207 178 160 133 140 103 69 47 73 137 67
80 76 55 40 91 70 53 44 32 21 47 37 26 19 8 37 43 40 17 18 -8 50 68 91 71 64 100 172 287 281 286 239 242 213 161 176 180 167 116 86 82 89 178 125
64 68 85 76 59 69 64 30 12 16 18 20 64 31 13 23 36 49 40 33 22 62 61 71 50 78 99 143 220 244 257 233 212 195 164 194 181 148 96 37 56 67 118 210
90 37 32 59 37 88 71 52 31 17 12 32 27 65 70 27 69 66 31 11 27 42 59 38 48 15 35 127 175 221 230 227 204 176 148 163 133 91 73 31 68 57 83 54
95 120 103 72 81 70 70 48 30 20 20 27 -20 1 29 45 44 21 166 112 106 122 76 29 23 14 53 103 151 177 228 213 200 143 120 109 86 92 70 36 70 88 67 79
101 93 95 105 78 83 68 48 34 19 31 42 57 48 -5 -27 -29 55 142 104 146 134 96 99 49 19 73 118 157 148 207 204 190 137 95 83 61 58 51 39 26 42 53 85
81 94 79 68 63 81 64 48 55 44 40 52 45 20 44 30 46 78 103 120 134 115 118 163 134 64 84 108 145 155 185 164 153 102 70 58 42 24 23 18 21 30 35 56
78 108 65 69 71 56 63 45 68 83 56 43 51 42 46 2 55 85 97 120 127 129 112 118 53 79 71 100 83 145 210 150 125 83 67 49 32 16 15 17 12 14 36 31
69 102 82 74 66 77 59 57 65 70 60 31 55 56 59 21 64 48 61 51 105 175 173 85 62 62 89 94 128 163 167 135 112 79 62 37 13 13 12 15 12 17 9 20
97 97 101 49 39 38 55 60 60 70 64 56 60 31 69 49 28 58 51 91 99 182 206 107 91 89 104 161 160 145 146 140 114 70 60 50 17 2 8 18 21 30 32 24
103 97 83 56 69 17 48 36 45 66 64 52 53 34 66 40 62 57 55 39 105 164 168 193 86 102 84 174 155 129 159 140 104 66 54 55 36 12 5 4 13 22 30 45
260 139 103 95 95 146 85 68 51 45 26 46 47 27 23 -17 -115 -103 11 4 77 177 227 241 333 303 188 208 181 152 157 160 137 103 84 79 61 44 29 13 11 19 27 27
264 235 162 120 133 86 73 58 52 28 38 68 39 53 22 -26 -58 -34 -13 -29 16 178 227 286 394 380 494 462 387 370 363 287 194 139 114 120 111 95 71 40 30 31 30 33
95 340 363 175 124 68 39 34 27 21 11 2 40 39 31 -4 -34 30 21 -28 39 180 261 318 394 405 358 389 413 426 398 403 291 252 224 202 175 121 85 52 39 43 51 59
89 103 48 223 92 50 47 38 29 6 -7 -11 -22 50 7 21 -43 80 61 37 36 139 224 287 373 420 425 404 379 386 390 383 298 278 209 175 179 166 161 121 121 112 97 99
42 41 106 50 20 39 37 4 53 21 25 -3 0 48 14 15 -34 55 89 94 -5 185 236 276 331 364 340 382 336 392 395 322 366 334 349 361 189 166 168 147 148 168 148 143
37 10 19 74 96 26 10 42 15 23 5 45 28 15 42 114 153 206 141 116 128 8 194 250 306 388 436 424 389 365 402 314 301 321 322 288 211 177 186 191 183 182 197 203
-11 9 22 99 89 62 10 43 41 10 107 85 87 38 93 165 278 305 275 254 280 210 234 222 313 360 302 222 224 304 203 330 310 155 112 141 170 180 185 205 209 207 199 226
47 52 23 17 55 10 13 25 10 -26 17 91 99 49 63 151 245 177 362 338 309 311 278 290 169 199 270 213 118 105 149 164 199 188 168 166 181 176 176 180 189 186 188 191
69 54 -7 -2 4 6 43 76 27 21 51 56 34 57 7 143 211 387 419 384 233 197 216 184 162 169 82 53 45 45 54 97 107 128 148 166 173 172 164 169 177 173 169 171
63 43 32 35 0 1 32 41 40 49 28 23 -11 22 273 373 378 317 252 227 235 167 96 71 76 94 98 70 62 84 101 114 128 146 175 200 200 180 166 183 187 186 168 179
52 61 52 30 46 37 -5 -26 0 24 12 3 1 15 184 215 215 142 158 116 69 42 33 31 47 91 135 140 106 102 97 91 101 133 147 158 162 168 168 164 157 172 172 177
30 51 43 48 43 30 -8 -13 10 60 105 111 99 51 42 71 88 70 50 49 43 52 67 68 80 95 109 116 119 104 87 76 83 97 106 118 128 134 157 163 167 158 159 148
18 31 39 32 28 -15 16 32 55 50 57 135 178 166 90 85 79 47 30 26 21 33 72 96 116 127 143 135 135 123 98 80 89 103 109 121 132 155 169 197 174 177 201 150
20 20 4 5 32 11 38 66 74 74 81 59 61 92 116 71 57 27 42 48 61 85 96 114 141 141 156 162 174 182 152 108 89 99 94 78 67 60 56 62 99 209 191 209

GFSCGP_con_3kmhel_084.txt.gz
Helicity
76 121 120 54 40 53 90 71 59 55 33 36 38 35 38 35 27 49 52 51 82 76 55 27 20 -0 46 49 59 80 144 169 225 185 190 167 118 125 125 86 71 69 102 114
165 97 14 49 64 49 43 36 52 50 23 27 12 25 33 22 29 33 56 61 84 126 22 15 24 -0 39 43 52 114 164 213 180 149 168 157 130 117 105 85 75 71 68 66
80 146 54 29 31 36 37 35 37 40 50 19 -14 24 -3 34 14 22 41 28 41 79 58 18 31 21 53 38 96 114 194 191 179 147 196 133 153 132 112 90 77 76 77 73
80 70 66 38 27 18 24 25 34 37 32 24 32 -25 44 16 51 40 50 40 31 42 32 34 42 60 67 38 75 115 167 176 158 169 171 115 111 124 92 87 42 26 41 52
128 89 43 25 20 49 76 86 44 29 15 27 18 18 8 -10 87 211 136 117 17 -9 -8 12 71 96 65 46 80 123 180 145 154 151 105 109 85 105 75 64 31 32 49 76
105 113 88 41 53 28 88 57 26 9 10 5 4 27 28 121 109 114 101 104 104 73 55 70 76 78 97 75 96 162 186 178 141 128 89 83 89 97 64 48 43 29 36 43
52 51 55 87 55 66 56 54 47 -3 4 21 65 12 25 57 65 60 79 84 82 112 89 82 57 53 78 78 153 185 180 183 153 86 92 78 75 86 56 58 68 78 64 80
118 103 53 63 41 63 44 39 63 66 38 36 33 12 97 45 65 46 68 83 101 144 157 105 58 54 45 58 122 129 153 192 158 96 99 75 59 85 50 32 31 51 58 91
129 131 55 68 70 61 75 56 78 63 22 31 21 32 19 42 57 41 51 94 75 118 159 99 83 70 65 54 102 124 135 152 155 105 105 72 61 85 51 38 20 33 40 65
84 137 38 50 52 45 72 77 67 70 51 27 31 40 85 64 57 37 57 27 68 107 166 185 81 88 109 88 74 93 96 142 129 106 97 61 57 60 52 34 35 37 36 48
90 65 50 51 26 29 61 76 71 98 85 76 69 62 59 51 10 61 77 22 9 124 168 231 141 63 78 99 109 194 197 149 136 114 93 61 58 56 52 19 16 27 36 34
163 112 55 33 64 54 47 44 37 67 54 70 81 58 38 10 -35 -17 -25 18 48 94 186 238 246 77 81 72 89 179 170 171 158 118 104 79 70 58 37 10 -6 14 19 34
231 112 45 61 63 72 50 58 75 79 51 44 68 50 -8 -33 -14 -11 -65 -22 9 78 199 231 306 264 300 161 156 196 215 201 182 157 133 120 97 72 46 22 5 4 10 9
154 132 67 68 96 74 59 47 38 51 43 55 37 64 55 24 1 -18 -6 -26 -10 50 141 273 333 357 368 387 465 428 293 236 239 188 151 155 130 106 74 45 31 23 21 19
79 152 154 116 120 116 79 58 42 31 29 26 48 46 45 13 -0 -0 50 13 29 55 121 235 309 327 396 449 486 534 515 519 433 363 314 300 259 239 176 105 69 58 46 53
122 131 189 430 195 152 108 61 46 20 12 14 8 19 21 26 5 -2 33 56 32 42 100 186 296 338 361 451 483 450 495 513 456 369 329 312 277 248 238 217 203 201 163 166
69 164 130 209 344 281 167 36 35 23 20 47 47 50 43 22 92 78 101 79 65 3 50 184 292 369 362 359 373 405 437 443 411 340 375 337 304 270 235 188 180 202 192 192
38 130 129 140 92 168 65 38 46 42 60 95 87 85 57 76 147 239 203 173 106 43 46 120 273 317 379 346 345 350 416 425 397 372 278 325 346 283 178 201 212 202 193 216
38 68 100 113 143 94 30 43 53 53 25 69 80 63 31 42 104 180 219 294 195 146 150 107 228 307 317 323 340 347 378 368 359 552 605 288 225 282 213 182 219 249 243 270
-4 -3 53 77 113 110 57 54 34 14 -8 99 90 74 56 34 12 85 255 301 287 248 239 270 101 164 297 244 229 298 238 253 215 265 276 186 215 232 171 210 222 226 234 228
19 19 8 14 37 20 44 60 61 8 65 81 65 41 36 62 132 210 247 308 200 233 210 171 171 172 95 228 257 443 413 333 216 158 152 145 185 179 182 156 160 177 181 184
67 37 23 8 -4 24 79 37 42 42 10 34 45 13 40 176 258 243 253 248 173 199 164 90 99 111 94 70 43 60 100 108 123 124 117 143 157 135 142 148 140 141 137 136
75 100 86 60 60 59 35 27 17 17 45 24 21 27 49 87 106 120 122 114 147 130 118 50 48 68 103 114 93 97 83 62 83 104 131 143 150 169 171 147 143 165 166 160
40 48 45 51 57 48 29 20 22 42 51 52 61 61 54 33 57 90 80 53 37 50 66 56 55 78 107 125 138 125 103 101 111 131 143 168 205 203 199 204 217 213 212 178
35 41 45 31 18 -13 21 46 38 57 55 66 78 38 34 33 38 49 63 74 70 71 55 49 62 83 110 122 135 137 122 103 107 118 118 123 133 148 176 232 199 180 226 180
25 39 49 43 34 29 26 52 60 66 56 42 52 73 65 82 43 12 32 53 63 77 76 79 92 98 110 127 143 138 117 93 87 91 97 96 89 91 90 92 127 222 211 213

GFSCGP_con_3kmhel_087.txt.gz
Helicity
74 90 117 81 68 45 104 118 106 90 57 49 70 43 32 21 -16 -4 6 12 9 38 38 28 7 -15 45 41 71 92 138 111 140 240 184 147 183 121 144 129 137 119 114 90
79 87 14 37 49 51 58 40 45 50 57 37 23 40 17 0 -9 -25 -3 16 14 35 18 29 6 -5 99 53 45 90 132 97 188 155 156 135 128 119 114 128 124 101 108 113
67 58 85 44 79 51 28 42 49 64 86 54 6 27 -1 -6 -34 11 28 10 12 29 18 27 19 -8 125 35 37 76 106 95 149 121 172 148 140 146 137 136 117 102 90 78
67 39 68 100 87 84 56 16 27 54 67 31 78 53 94 50 16 30 35 25 42 31 15 19 7 5 109 19 53 68 87 89 134 126 153 143 141 141 119 119 126 135 112 61
55 91 98 84 62 49 71 47 61 33 36 42 29 14 19 -26 18 102 159 170 65 13 13 24 0 5 3 109 64 78 99 112 137 127 123 121 115 125 116 140 162 90 60 23
42 43 108 104 73 89 55 82 32 33 27 50 37 1 6 60 178 107 88 85 151 127 112 60 59 36 26 132 86 102 86 109 169 139 93 95 109 121 154 144 118 92 69 63
-17 14 41 72 85 63 55 56 70 47 65 35 54 59 13 67 90 127 118 127 98 159 233 188 64 41 22 128 109 94 101 147 157 113 89 96 112 94 111 116 97 101 96 81
66 43 55 71 68 83 54 65 120 74 52 28 136 37 49 137 156 111 82 79 93 78 79 131 226 103 70 113 96 162 145 192 199 77 99 102 110 84 106 109 91 93 76 70
111 62 112 80 34 38 28 76 10 60 57 50 31 18 28 125 95 54 60 90 93 75 58 138 250 100 70 112 247 200 171 202 136 85 109 118 94 98 81 113 92 73 68 76
89 75 10 53 47 27 20 80 78 71 49 45 4 -22 126 160 81 34 74 55 63 82 73 143 241 271 60 143 98 98 147 126 96 114 126 109 92 74 73 95 86 62 59 65
93 66 44 40 44 39 74 68 70 74 60 74 54 64 93 62 66 65 57 36 20 59 69 138 218 392 103 58 29 92 91 125 151 141 119 109 97 95 84 90 52 41 43 43
72 104 65 28 46 68 57 38 38 77 37 59 60 33 30 62 13 38 14 34 31 33 62 111 194 322 204 45 49 44 124 118 172 134 123 113 120 125 96 79 63 38 21 31
14 198 82 39 70 52 32 25 26 42 56 40 63 57 68 -14 13 -2 35 24 9 -13 36 109 201 300 352 311 134 141 181 141 221 212 170 138 152 119 104 87 76 41 44 28
1 27 57 43 55 99 24 41 35 28 56 55 50 87 -7 17 24 41 38 15 24 4 -18 97 196 235 314 327 362 423 176 180 272 239 200 189 162 130 112 119 114 92 73 56
15 24 182 46 4 55 60 67 45 29 26 43 65 86 46 14 42 53 53 11 26 26 21 97 180 210 279 388 416 492 503 570 409 427 398 377 340 285 233 241 232 153 170 129
-44 48 160 35 84 76 36 26 35 49 60 54 36 38 108 117 97 105 58 30 34 32 59 110 103 205 260 365 485 483 559 570 545 510 433 369 350 350 321 305 281 304 268 260
-88 -15 116 211 184 94 60 51 69 84 90 137 96 90 26 22 79 122 71 81 89 42 45 91 75 114 219 334 362 437 467 517 578 529 437 356 363 383 380 344 328 332 300 263
-89 101 80 157 178 103 123 91 113 121 94 77 85 70 9 -15 4 79 148 134 119 74 107 103 47 102 228 276 293 345 457 514 590 558 461 378 360 376 372 411 384 358 300 296
39 195 66 113 143 163 64 91 95 133 45 77 63 74 2 6 -6 40 106 158 189 169 111 98 123 73 217 287 354 448 488 500 549 557 498 441 362 335 380 415 359 301 287 288
-6 117 90 136 151 89 104 61 57 33 31 48 58 50 64 -3 14 42 94 150 193 197 168 138 174 246 158 258 402 417 366 456 513 558 434 411 412 372 388 435 277 212 217 215
39 71 61 49 102 54 75 78 41 20 59 49 28 26 17 32 111 147 121 139 149 142 133 124 147 161 194 106 113 267 359 324 235 182 220 228 247 210 280 242 143 133 138 172
19 20 28 36 50 48 119 32 67 58 57 31 31 4 15 67 131 144 113 101 115 131 110 89 103 109 100 120 111 102 182 147 145 214 120 204 196 189 215 209 159 165 190 203
86 91 89 89 63 47 41 19 30 28 30 34 20 11 18 52 92 100 100 97 120 102 105 66 70 85 93 90 83 89 84 82 105 123 139 155 188 244 242 214 195 175 159 167
53 102 71 30 41 51 29 25 27 39 46 35 32 39 39 54 38 45 51 72 81 68 66 86 88 100 117 117 101 92 80 75 82 96 102 115 144 161 174 199 232 251 197 174
52 79 82 10 6 -9 30 43 45 44 47 48 73 61 40 38 52 54 55 64 68 86 88 80 84 93 102 102 135 153 103 82 91 108 115 135 132 163 212 254 216 198 241 220
19 33 68 62 36 27 22 40 62 66 69 27 45 77 75 63 67 61 65 68 75 94 100 116 101 91 116 133 133 126 131 106 89 97 101 100 98 98 101 113 154 248 230 244

GFSCGP_con_3kmhel_090.txt.gz
Helicity
49 74 82 33 25 29 33 48 65 72 61 91 110 88 37 41 56 70 38 -3 4 25 45 42 24 76 59 41 62 341 335 343 305 210 302 296 223 178 192 201 186 149 118 149
34 95 13 6 -0 37 38 70 49 49 67 92 116 55 14 18 3 43 53 44 27 27 38 47 46 77 82 68 117 287 316 341 283 200 307 188 209 169 178 184 192 157 165 174
11 23 19 15 39 34 60 61 36 26 15 34 59 40 -2 9 32 11 27 65 44 28 51 69 35 66 66 83 206 216 276 263 186 225 220 185 175 220 187 156 177 172 170 194
12 9 -10 53 109 54 58 26 11 29 39 56 45 -6 54 26 27 -9 43 49 53 56 56 53 19 75 55 165 228 218 309 212 176 261 159 204 216 250 190 192 165 164 170 180
25 24 25 46 69 51 59 61 99 77 103 50 45 61 45 9 42 4 179 142 180 157 52 36 68 66 57 184 244 226 338 179 193 203 138 219 187 165 170 132 172 229 238 179
19 -2 -1 66 46 30 41 93 50 52 86 40 28 21 27 15 103 221 274 273 172 105 195 225 156 79 44 97 284 289 326 208 193 163 143 217 186 123 191 218 233 243 224 158
21 51 1 25 92 46 59 75 63 43 56 32 16 9 -12 125 141 165 144 159 192 98 99 190 221 256 237 84 301 383 342 252 202 153 145 196 141 136 246 201 224 233 178 128
75 71 43 83 79 35 11 53 75 19 36 35 19 57 50 227 141 129 108 156 162 72 20 126 221 295 233 173 258 334 330 254 222 175 157 159 152 174 201 164 204 181 132 130
190 90 145 132 20 59 1 106 -24 -9 -6 -5 27 35 34 61 199 95 172 105 100 67 74 117 153 205 238 132 249 307 268 232 201 130 119 174 154 158 182 219 199 146 122 110
87 152 72 19 88 29 18 31 59 74 53 27 10 -1 30 157 97 167 141 81 53 64 92 131 149 210 310 117 235 311 234 231 201 153 132 192 156 178 191 173 135 105 89 91
127 93 19 144 50 -29 42 20 80 101 80 41 20 52 202 165 162 115 66 58 59 55 96 146 212 275 438 311 121 93 109 119 130 98 195 210 147 141 143 115 114 98 82 81
103 87 81 33 54 55 124 23 72 82 51 49 4 -8 30 31 -90 -8 48 38 57 45 77 144 194 264 337 348 346 42 46 108 120 204 238 203 162 119 134 125 125 110 98 56
65 91 83 5 43 10 41 67 78 23 48 40 34 70 45 62 10 85 78 38 15 35 61 129 182 245 284 294 275 366 92 119 181 165 206 206 175 161 147 146 125 116 91 67
48 -1 29 69 179 140 16 33 23 87 15 97 54 58 -8 41 75 122 101 36 7 17 25 82 162 208 264 280 295 349 423 166 178 159 167 211 165 198 180 165 150 153 136 119
54 20 42 15 72 -1 47 183 50 41 -1 33 101 92 69 98 111 126 65 29 19 8 29 43 148 166 221 268 327 360 450 432 313 326 369 391 377 364 321 290 330 339 283 234
8 -18 78 48 22 15 -10 85 26 130 80 80 -2 68 -11 40 31 68 42 4 45 31 37 48 96 170 197 246 274 346 456 521 448 420 363 452 432 435 394 375 408 358 318 301
-7 -0 37 -29 82 98 21 -51 -20 -13 54 103 135 97 75 28 -2 4 3 25 49 38 70 46 76 155 190 184 250 296 364 447 534 520 491 423 438 414 368 359 406 415 374 355
1 37 20 129 318 80 81 87 127 145 237 222 132 57 18 -8 -22 3 25 24 44 47 48 37 51 152 167 127 224 286 377 456 560 575 564 489 447 406 374 397 437 410 392 397
28 -29 68 56 53 131 179 193 188 172 116 139 101 69 42 7 -11 15 28 41 61 63 29 13 45 50 121 136 157 251 373 379 460 567 550 556 532 459 435 433 420 417 437 457
-25 29 115 26 144 131 142 233 117 143 64 43 49 31 25 10 4 35 57 55 71 63 66 70 64 31 77 131 182 179 322 362 403 486 476 548 552 568 496 460 478 462 453 457
-33 67 205 132 83 59 174 166 62 125 76 33 15 1 9 -0 44 80 75 78 72 61 63 69 84 89 106 155 200 266 228 256 362 372 290 260 437 498 518 457 448 453 334 341
12 67 67 43 63 81 176 60 48 51 52 27 4 10 13 31 71 94 93 87 86 90 95 107 119 131 117 134 154 183 208 120 146 193 291 250 255 286 248 213 190 141 223 383
47 53 54 105 68 36 38 44 37 32 27 25 19 46 38 46 82 92 95 93 95 93 76 73 60 75 95 94 76 95 87 98 138 178 166 181 173 207 209 279 224 170 156 162
86 195 33 37 34 56 37 28 30 40 57 69 60 61 47 44 34 27 32 63 85 96 88 67 81 100 115 128 100 42 30 29 57 87 107 126 145 183 201 202 219 240 215 202
60 114 93 9 33 21 34 37 25 30 37 70 91 70 53 45 55 56 69 80 85 86 91 90 97 100 107 91 116 118 69 58 58 54 55 79 114 151 187 228 214 209 240 194
-2 7 60 56 55 28 37 27 48 64 55 34 60 73 60 50 61 70 73 64 63 72 76 85 95 101 105 109 122 134 128 99 84 98 103 74 54 59 74 111 161 216 207 207

GFSCGP_con_3kmhel_093.txt.gz
Helicity
66 132 94 62 68 75 81 78 82 87 36 38 44 98 100 33 64 108 68 72 43 46 36 44 59 84 124 103 154 151 260 453 522 470 368 278 283 228 154 124 140 140 164 221
54 127 75 52 22 56 95 104 112 66 54 77 49 5 71 72 47 31 16 47 106 149 105 41 40 68 48 123 234 201 313 458 398 414 411 374 313 210 160 158 187 170 208 245
49 42 66 89 70 40 49 75 107 98 91 86 89 85 50 117 117 46 53 65 106 144 127 73 29 35 50 101 178 231 321 395 377 466 504 433 314 225 216 223 212 161 219 237
60 23 2 18 49 81 100 91 63 78 114 124 86 79 71 41 -16 27 44 35 72 171 161 54 32 89 67 74 130 243 404 511 411 415 382 381 332 282 247 234 183 162 202 223
77 63 59 31 13 10 112 104 76 78 113 130 105 119 52 15 -1 -24 162 368 303 276 244 256 237 246 139 84 171 288 345 330 323 358 358 333 278 245 240 206 189 172 165 182
43 15 7 13 18 70 91 84 129 160 118 114 52 91 -9 40 15 102 177 181 281 252 245 223 231 204 195 220 228 289 307 326 313 375 330 223 223 228 211 221 185 192 168 182
71 77 68 50 11 58 141 168 187 179 201 131 106 47 138 52 22 139 187 254 52 88 60 153 196 237 241 281 256 242 366 354 319 367 236 194 195 199 178 200 207 251 273 260
120 88 66 102 76 109 169 97 193 161 114 75 35 16 54 66 148 250 212 293 113 81 44 46 149 167 264 334 228 232 337 342 290 281 210 211 202 179 197 239 255 263 250 220
206 192 100 81 129 63 134 164 132 147 1 -36 -22 -20 62 57 82 99 175 191 130 111 76 109 242 225 275 390 260 248 375 372 318 261 244 226 189 217 245 258 237 216 205 165
188 182 73 0 59 69 90 111 126 121 76 17 15 -4 18 39 -35 13 79 135 104 89 115 117 146 304 342 396 421 266 338 366 249 224 223 189 203 252 257 227 205 180 160 133
113 109 107 11 23 59 71 157 72 76 51 17 -6 5 50 35 137 168 188 110 51 76 72 126 136 219 263 346 390 423 190 153 92 215 205 202 241 245 231 178 138 148 141 126
68 98 111 44 -26 66 59 10 25 15 22 28 8 -40 -35 11 94 85 82 50 12 28 43 85 145 222 222 248 304 301 349 152 163 226 209 230 232 217 162 150 108 115 120 97
73 69 25 -54 -49 92 114 40 31 67 87 15 -13 -4 81 42 206 90 51 17 -1 14 45 69 122 195 234 234 207 244 292 319 185 221 283 268 287 238 202 157 149 143 104 87
81 81 73 30 48 95 158 101 -42 8 39 48 20 93 104 94 99 39 -4 1 4 4 19 49 84 143 203 231 249 284 327 441 287 262 324 280 228 246 237 236 210 228 178 142
72 50 38 -11 -5 -32 54 121 92 50 -10 39 23 99 137 59 27 12 22 16 14 33 32 58 55 125 147 212 218 281 338 392 388 355 318 281 262 308 303 309 304 327 322 271
59 74 -43 -48 8 20 7 80 -18 -63 97 187 103 128 39 20 35 48 52 36 31 31 40 76 85 97 140 190 187 205 296 355 381 365 362 340 258 306 287 309 405 387 357 323
43 17 -40 37 49 39 -11 -15 -25 -6 139 101 169 147 35 9 26 42 11 11 23 31 50 73 58 81 115 190 181 162 231 269 412 467 463 432 412 379 350 373 451 451 388 346
-21 -49 -8 124 156 51 66 20 51 147 177 165 86 40 8 -21 -7 25 33 15 27 27 45 50 24 53 149 202 202 157 169 264 318 405 462 504 480 503 428 446 453 474 443 420
53 25 53 78 45 37 132 170 233 43 120 136 78 62 21 -4 10 44 22 36 31 39 29 28 19 19 89 159 237 162 211 266 332 302 340 459 618 574 589 557 527 485 516 518
42 74 99 74 72 83 226 314 307 81 43 85 60 49 16 -56 4 2 28 44 54 47 53 47 54 52 61 86 134 166 265 279 322 342 367 347 377 516 675 620 574 512 530 547
91 118 208 304 104 76 245 219 199 94 53 44 26 -1 42 21 20 2 21 58 66 73 58 75 82 64 74 88 93 167 194 269 281 295 302 342 300 307 284 400 518 538 470 463
37 61 83 70 13 80 223 110 109 51 44 28 12 -17 -6 19 51 69 77 86 84 90 89 107 95 97 74 65 65 99 136 115 153 205 204 222 286 321 298 181 222 290 382 387
43 88 26 77 67 13 30 32 52 24 19 23 10 0 11 3 32 44 49 69 58 61 75 82 93 115 140 99 80 85 79 64 90 106 137 164 179 180 201 245 221 191 191 176
109 166 23 8 44 35 32 20 32 42 48 38 24 18 10 20 38 51 37 32 55 81 82 86 104 118 125 128 106 43 16 34 62 78 97 100 113 131 156 163 170 148 122 113
39 68 77 11 -11 -2 9 30 23 23 23 35 64 57 54 65 65 49 47 55 64 70 74 79 90 97 109 97 100 85 50 39 17 28 46 57 64 81 109 131 114 132 122 85
-1 11 32 38 28 17 24 23 47 64 35 14 43 65 62 56 52 54 63 63 65 60 50 60 63 79 91 94 101 111 98 85 65 61 43 39 34 41 42 58 117 187 154 161

GFSCGP_con_3kmhel_096.txt.gz
Helicity
89 159 83 72 113 138 122 87 56 64 99 120 82 39 -8 -6 22 50 97 74 84 101 79 39 71 80 103 142 145 318 302 262 384 361 366 313 324 330 281 241 210 169 145 166
125 99 51 114 137 135 104 81 65 66 84 110 104 90 70 70 101 73 75 118 84 56 83 52 58 77 51 93 145 203 328 391 331 351 356 333 336 327 291 261 201 160 144 177
101 35 75 113 132 132 97 126 106 106 74 62 102 65 64 39 50 70 64 103 71 28 59 82 55 114 120 71 75 194 316 395 348 288 465 398 412 365 261 212 207 185 181 174
76 28 54 65 79 83 65 88 87 78 93 65 95 100 -1 67 67 61 67 27 41 142 185 200 157 159 73 85 56 148 278 400 384 338 413 383 324 373 282 298 249 223 182 177
78 77 89 82 30 69 45 65 84 99 104 108 36 211 92 148 35 83 49 134 155 237 291 291 287 258 170 78 85 119 251 327 392 363 389 437 362 339 373 295 237 218 194 185
99 105 113 108 87 30 27 63 121 120 147 158 138 175 103 49 72 48 61 62 111 97 191 167 261 241 304 247 202 160 231 312 362 401 388 382 350 364 312 226 230 209 186 172
63 72 47 53 93 39 53 132 147 163 182 198 107 106 105 9 68 53 144 133 42 94 110 -39 146 248 321 368 306 257 180 235 300 374 353 346 375 338 274 224 229 211 170 131
75 40 133 153 147 79 77 123 194 175 139 80 56 105 56 52 58 55 113 133 155 155 94 -31 25 168 291 357 404 221 131 218 238 245 309 318 300 297 227 189 230 207 162 114
151 142 215 116 60 101 77 126 103 142 113 87 76 106 59 104 62 60 98 120 195 180 119 96 157 192 293 361 472 401 121 171 226 256 261 290 264 214 186 184 214 194 186 189
178 92 78 97 -13 18 97 93 110 154 139 85 27 -37 -23 65 55 77 63 71 119 87 121 137 188 200 288 327 438 542 383 234 257 237 259 263 226 154 157 187 191 186 185 193
148 137 152 60 42 28 -48 48 102 105 154 116 1 -66 -94 -100 -64 34 60 86 79 79 112 112 138 184 260 308 369 437 475 338 244 237 207 223 224 155 147 183 188 170 175 161
71 95 104 59 29 54 30 25 33 24 161 91 -36 -51 67 123 106 219 17 32 48 56 79 96 103 148 175 308 397 380 429 379 239 71 49 142 139 174 160 176 163 143 144 131
91 121 109 61 65 99 217 200 84 10 -85 -90 -75 -39 135 158 104 128 59 32 32 52 55 90 113 134 168 202 263 314 312 313 246 39 128 185 197 197 168 127 89 108 150 132
126 101 84 91 46 28 36 200 166 38 -21 -65 -42 -17 97 118 30 11 -3 6 16 26 50 88 90 126 196 186 203 231 254 308 316 213 295 327 325 277 274 232 218 236 188 174
134 108 61 42 36 22 40 104 132 51 18 -51 29 58 173 66 155 92 17 24 30 56 77 94 106 96 165 225 227 256 253 301 410 490 518 447 350 314 268 254 265 265 257 272
139 85 27 -44 -8 5 6 24 79 56 5 -60 -14 309 97 109 38 73 52 33 39 78 78 92 94 109 143 210 204 214 224 234 343 461 544 413 444 354 310 262 296 289 295 294
107 82 52 -33 17 8 73 75 36 77 92 -17 72 239 231 94 77 59 34 46 59 69 61 74 82 96 145 182 173 179 204 225 254 404 377 460 414 389 379 349 338 296 353 359
146 124 83 41 23 75 138 92 173 186 195 233 93 68 40 16 32 44 63 48 50 64 67 73 68 70 109 149 202 179 222 199 249 409 410 406 411 458 460 507 502 455 445 449
126 114 48 30 92 140 140 151 186 178 109 80 17 19 21 17 -10 48 60 64 47 43 51 44 52 63 63 146 189 168 255 256 253 281 365 352 296 483 529 641 670 566 544 555
63 55 76 88 119 43 32 300 220 37 109 101 59 25 9 -13 9 -1 39 54 61 58 45 42 39 33 60 73 91 107 198 254 305 364 245 242 296 304 339 443 542 621 637 623
16 35 184 101 58 24 146 289 143 46 41 58 41 52 51 61 41 23 20 25 30 40 41 48 63 72 74 70 81 98 125 178 200 258 279 317 294 274 350 353 283 315 487 594
30 72 58 110 113 64 143 124 82 49 39 23 21 16 41 50 47 40 23 23 29 36 51 62 65 94 98 72 72 84 116 116 114 90 164 211 286 251 295 292 251 262 273 248
52 82 18 63 31 33 63 79 68 32 29 26 21 6 6 4 3 20 16 13 10 20 43 64 69 85 99 83 62 63 74 66 75 103 109 125 164 185 201 203 191 205 201 213
94 119 27 30 37 19 20 18 43 34 30 26 14 6 1 18 20 6 8 12 21 32 46 59 77 89 94 88 89 65 32 41 57 72 91 110 107 124 139 127 115 122 121 106
35 59 44 4 2 -6 -0 6 8 23 21 35 41 28 27 38 28 21 25 39 43 51 61 76 75 74 82 76 68 57 41 4 15 23 29 38 54 78 93 118 103 91 93 74
14 33 39 30 30 25 20 35 42 26 19 13 31 45 28 38 43 36 39 41 48 61 62 69 69 64 74 83 90 92 64 41 18 4 6 2 -3 5 27 45 76 153 127 124

GFSCGP_con_3kmhel_099.txt.gz
Helicity
164 229 122 83 124 152 139 118 88 90 85 104 91 50 47 57 56 73 79 70 67 67 38 28 57 66 73 69 105 141 195 213 309 375 345 300 282 252 219 199 212 210 233 224
188 146 69 89 131 143 140 111 87 87 92 117 105 61 41 58 50 59 52 71 83 71 78 85 13 73 108 76 126 148 147 204 306 366 331 345 302 288 243 267 236 212 233 220
159 71 80 125 141 147 108 129 101 107 161 118 123 62 59 40 59 43 63 51 22 24 97 132 114 98 146 90 70 95 139 235 290 325 378 456 451 405 344 242 228 263 241 213
118 85 77 112 88 81 66 91 94 97 109 93 71 113 -1 49 -2 7 10 38 97 194 206 155 169 185 145 199 224 156 85 170 244 339 379 413 378 332 223 201 230 278 289 223
93 80 82 100 82 98 89 70 82 93 110 89 78 175 99 40 38 71 81 84 89 109 140 130 113 143 136 188 264 267 124 201 209 326 415 449 344 322 353 315 306 293 310 205
85 87 74 69 90 112 116 122 139 176 153 134 43 103 102 74 52 74 93 105 73 79 59 59 32 99 60 155 166 259 197 168 202 292 391 356 342 335 366 330 332 361 329 213
94 71 102 138 134 126 192 149 153 165 228 169 96 100 102 90 72 54 77 78 62 49 87 112 21 -96 12 88 128 226 233 144 203 236 280 301 300 344 367 352 330 348 285 225
64 126 144 141 184 162 136 145 174 202 187 136 96 141 110 117 144 126 66 81 109 102 48 222 123 -40 -74 66 110 215 264 92 172 211 284 281 304 322 301 275 306 308 242 173
98 53 105 127 58 76 115 172 112 162 178 170 163 150 173 191 128 30 18 -26 17 139 201 257 321 32 55 100 164 239 285 117 183 198 245 305 291 257 255 262 261 238 195 169
118 82 101 152 88 97 89 101 169 214 250 242 172 90 74 120 61 -17 -2 -17 38 55 61 176 178 135 181 201 235 321 351 457 192 206 235 218 196 202 218 252 212 194 215 200
123 101 115 106 73 116 146 216 222 180 132 197 149 62 187 149 59 -22 85 32 37 40 -2 80 135 160 215 229 252 333 361 389 432 294 221 281 191 140 191 196 170 171 179 179
88 109 85 74 63 75 77 152 217 336 266 111 104 -19 97 57 41 64 -15 92 46 23 1 38 107 146 208 265 289 350 334 285 318 286 170 147 151 163 183 127 140 153 166 151
94 157 140 136 177 153 121 128 153 173 210 -24 50 53 -4 26 82 70 11 48 6 -2 20 44 77 142 177 256 301 360 314 321 288 269 155 180 253 225 182 74 146 147 132 124
92 122 150 170 145 81 83 94 102 131 177 21 20 -93 -85 -9 71 118 135 16 10 22 48 67 100 116 148 198 291 303 292 270 326 328 202 123 159 111 147 139 163 115 113 132
132 145 140 114 88 64 46 49 49 113 66 -8 16 -44 -60 16 92 107 106 58 45 61 89 86 102 119 131 168 261 294 257 249 227 313 375 388 313 270 235 216 223 212 218 226
180 166 148 112 45 23 40 46 16 25 0 -38 -8 -26 30 141 54 100 67 40 70 77 92 100 97 114 148 190 203 255 244 256 195 271 410 428 460 441 433 368 345 254 273 291
181 192 186 93 57 60 11 10 42 -8 -3 -11 -31 29 98 169 134 101 61 55 64 75 79 105 109 104 129 182 198 203 172 189 192 243 280 402 631 501 411 387 392 373 374 324
163 168 119 44 40 -51 -67 168 101 124 125 166 213 150 136 76 39 55 64 61 67 69 84 96 104 96 84 138 172 165 181 201 222 291 275 377 293 670 494 477 505 439 436 446
125 125 89 58 -76 -121 -8 67 114 147 124 172 130 98 48 24 -4 33 50 64 67 64 73 71 57 55 45 79 152 161 197 180 268 269 292 326 321 187 334 487 514 490 495 544
87 78 71 20 -2 6 2 93 126 150 146 90 38 17 1 3 6 7 40 56 67 59 41 45 48 41 47 61 58 123 181 185 265 244 242 242 371 268 156 268 372 386 469 643
28 50 86 28 26 55 -27 147 193 136 89 22 36 60 45 17 24 40 24 19 26 36 41 36 40 47 53 48 37 75 97 140 167 219 247 300 281 315 286 234 315 319 335 412
16 16 48 68 55 112 18 107 77 34 22 17 32 39 82 64 44 36 28 20 30 38 48 52 42 54 63 58 44 53 94 83 74 88 118 140 142 194 237 222 251 230 262 338
20 41 17 23 20 43 49 57 43 14 15 17 14 11 9 9 28 30 16 10 17 25 27 33 35 41 53 61 47 48 52 49 54 66 78 100 106 129 130 129 167 195 261 218
66 128 82 53 32 22 15 12 15 19 18 11 11 9 19 11 5 1 0 6 13 22 23 21 37 48 62 72 66 39 25 25 31 43 61 75 83 100 91 86 99 106 114 108
54 79 71 34 2 -13 17 17 18 16 6 23 37 35 25 29 21 11 18 27 28 28 34 38 38 35 44 52 53 48 29 5 3 -1 6 17 30 49 53 67 55 61 70 62
44 36 32 17 26 21 9 33 20 17 9 2 20 32 38 33 30 26 32 32 40 46 56 64 57 53 52 49 59 68 48 23 -3 1 8 8 6 10 14 25 52 140 129 116

GFSCGP_con_3kmhel_102.txt.gz
Helicity
188 265 243 120 156 168 170 160 137 115 105 133 102 89 84 101 82 69 39 24 52 97 60 23 9 -9 30 88 91 99 135 146 240 255 287 295 299 287 253 225 229 238 205 197
217 223 86 108 133 140 160 151 118 98 88 84 83 52 61 68 60 46 43 77 67 64 64 57 52 22 9 21 113 116 98 142 211 247 249 291 249 236 274 249 216 232 226 218
227 146 130 121 154 160 129 146 111 101 123 90 83 1 17 26 81 46 33 31 92 105 105 104 134 177 123 62 116 150 139 129 188 211 266 308 303 312 299 208 227 231 233 226
171 106 109 128 125 115 131 87 91 98 113 79 61 41 -7 -3 35 16 47 100 115 120 90 68 116 116 144 93 57 90 86 122 101 210 255 231 250 330 307 290 226 239 248 271
135 126 164 162 116 107 61 64 84 109 115 91 115 142 34 65 23 31 49 69 68 71 42 27 35 60 95 72 42 50 74 107 139 171 217 276 289 279 302 325 300 243 322 284
138 98 80 76 82 84 83 69 82 129 130 124 97 127 73 32 29 28 31 48 -0 -1 -5 4 32 31 71 93 45 51 104 95 151 146 203 238 257 307 356 311 297 296 315 325
157 120 122 107 125 147 161 124 120 120 165 152 85 93 121 91 50 21 32 66 49 7 -13 -11 17 55 77 127 118 3 77 79 123 117 175 216 237 284 321 340 296 316 308 313
118 120 140 148 149 138 167 144 157 166 167 120 120 142 118 150 133 122 103 76 41 14 -46 -10 -5 60 129 109 102 27 99 87 149 73 86 135 184 294 356 287 241 291 282 325
113 110 128 120 79 77 145 172 163 180 164 157 153 196 157 174 152 71 126 96 65 45 -41 20 24 47 190 127 133 65 106 118 260 35 64 163 195 267 288 222 243 247 224 334
109 102 151 133 88 159 141 158 230 263 222 212 189 164 158 179 134 122 105 54 40 45 10 37 -7 32 126 148 168 167 160 253 245 253 132 173 160 219 232 235 246 239 267 274
107 101 104 115 90 116 147 191 233 258 283 320 318 275 177 113 75 59 48 32 -24 30 63 96 20 27 82 121 154 184 227 305 336 345 198 159 220 219 213 212 233 217 228 242
112 99 91 42 118 101 130 156 166 275 301 345 338 275 93 73 116 63 72 37 17 -15 -26 25 23 55 91 126 155 182 229 287 245 260 276 122 149 167 161 199 212 187 197 197
71 122 106 100 169 167 188 169 148 169 186 233 295 283 130 -20 -56 53 26 39 43 14 4 40 75 94 109 126 167 192 268 356 275 218 216 123 122 48 87 89 143 166 152 185
88 127 117 137 162 147 139 112 139 174 224 157 178 100 78 -37 -86 12 33 55 29 -10 19 63 84 109 125 127 160 212 251 306 296 235 284 389 359 116 125 175 294 145 134 150
116 109 116 108 115 123 123 102 89 151 148 160 81 55 28 -55 -30 13 16 19 56 57 53 82 93 107 126 139 169 215 229 254 239 219 286 296 309 362 365 296 362 248 272 218
140 138 114 122 91 86 88 87 86 76 76 137 54 -28 -14 33 59 62 55 24 29 44 59 85 99 121 124 149 165 190 239 249 227 186 227 210 314 402 353 318 279 312 304 272
144 143 134 121 88 121 79 56 65 64 86 69 -10 -21 33 76 69 79 68 24 57 65 71 91 109 114 123 136 121 172 206 199 213 214 214 220 229 410 512 452 432 370 341 337
185 181 169 122 84 89 28 50 27 79 148 132 -24 -17 126 105 108 83 35 39 77 78 82 87 84 89 110 118 135 153 193 219 209 221 231 250 214 160 345 555 601 494 467 416
99 149 120 105 78 -13 -5 -2 42 18 42 68 106 95 122 63 70 90 81 77 79 66 58 57 55 47 46 84 134 130 159 228 185 256 287 291 269 258 231 274 343 517 496 434
58 84 124 56 -39 -22 25 -27 -28 -3 8 65 66 75 33 -8 18 40 69 68 65 47 41 62 62 34 47 76 73 77 103 155 253 259 217 183 222 239 187 134 206 229 314 381
65 63 63 12 29 -0 -29 9 104 15 37 74 30 45 8 31 49 37 27 40 47 45 51 41 44 61 56 56 60 83 81 118 105 104 120 176 205 211 246 192 219 198 272 324
4 3 -8 -5 20 44 -2 60 71 43 27 21 47 68 113 73 57 44 46 52 54 58 57 47 39 52 66 63 59 78 100 59 40 47 83 105 135 138 152 190 225 239 176 195
10 24 19 15 28 3 48 74 66 40 18 17 21 41 40 43 50 45 44 42 38 36 32 35 36 37 51 66 38 67 75 46 29 41 79 102 103 109 119 116 135 152 161 169
27 65 46 20 35 18 22 10 12 19 18 16 6 8 13 9 12 15 19 18 29 38 40 27 28 36 47 47 34 22 22 21 21 38 50 61 81 100 108 110 100 88 110 123
40 74 39 16 -0 -12 -3 3 8 10 13 25 37 30 17 20 14 13 18 29 37 35 32 33 30 36 52 52 60 59 30 11 23 15 5 10 15 24 34 86 76 56 71 62
40 39 25 2 20 15 8 16 19 26 23 16 24 39 37 28 19 26 36 30 33 37 38 44 42 43 51 53 56 66 56 18 -5 4 7 -0 -3 4 9 7 50 172 168 136

GFSCGP_con_3kmhel_105.txt.gz
Helicity
238 317 320 151 165 171 183 157 115 95 65 114 99 98 76 62 71 37 42 63 87 97 91 76 93 122 141 141 178 211 189 169 123 117 157 204 221 246 246 207 161 191 213 183
278 207 145 133 143 170 161 139 123 94 66 78 76 61 40 32 55 55 97 104 95 79 108 139 140 121 120 147 163 211 237 204 182 122 140 182 225 169 226 241 181 174 193 204
188 205 124 157 189 193 149 143 116 102 117 85 63 55 46 43 52 119 128 95 86 102 119 121 127 118 120 138 176 186 196 240 207 190 127 155 145 137 149 209 229 189 181 221
176 120 172 212 194 142 143 87 81 78 118 141 99 106 39 14 103 89 32 80 89 91 99 86 97 100 67 69 91 107 128 165 195 168 143 130 198 195 205 253 244 202 192 193
178 147 155 124 95 106 111 82 61 60 78 103 76 108 62 44 85 29 44 67 72 66 58 54 53 41 28 25 37 72 92 116 160 136 121 136 139 158 163 163 149 199 227 240
222 154 149 144 126 92 89 80 85 100 94 141 66 81 53 5 29 41 55 77 93 82 66 55 37 13 15 21 56 41 85 70 124 179 76 98 108 101 129 137 182 225 238 219
207 164 131 116 138 116 114 111 127 131 157 167 101 59 90 69 50 66 115 104 98 47 45 37 30 31 24 58 123 129 108 65 95 133 135 110 77 89 78 84 152 249 316 317
194 199 144 139 146 136 140 128 137 150 134 130 115 91 95 149 146 128 104 65 56 71 46 45 59 92 79 47 81 187 152 98 153 119 164 113 67 125 110 89 103 178 237 292
128 127 141 155 140 133 140 158 156 161 143 105 135 165 155 199 223 150 136 107 96 64 14 44 100 80 53 65 59 139 159 125 180 161 186 92 109 127 162 148 135 158 188 225
72 89 122 125 113 183 156 132 153 187 139 129 113 108 189 194 201 153 102 60 50 53 63 57 28 26 27 27 34 128 141 103 198 190 264 132 82 156 165 139 127 186 200 213
144 135 97 121 140 138 134 147 188 194 209 212 169 175 282 270 212 162 56 74 68 26 3 30 21 36 26 6 64 113 160 221 230 241 298 216 124 129 151 166 152 217 225 228
158 131 105 120 140 93 136 169 217 217 210 275 275 194 262 211 161 84 15 -40 4 -5 9 49 27 15 13 38 80 110 150 228 294 267 355 193 80 127 154 160 177 197 197 176
109 104 99 112 126 150 164 174 180 191 204 206 240 272 172 144 85 51 -17 -105 -48 -23 20 15 26 37 46 68 83 133 137 225 342 342 286 202 222 181 134 136 171 192 194 257
125 131 127 124 155 154 169 145 124 157 197 206 227 119 87 70 61 19 -33 -19 -13 -22 6 25 39 46 61 83 114 161 193 197 288 315 269 212 202 207 224 62 56 91 170 207
115 95 114 107 108 114 103 112 99 128 142 226 143 121 71 47 86 44 -5 -19 20 -19 39 36 61 82 97 121 156 164 207 198 217 247 277 198 163 190 261 294 278 135 180 266
146 139 121 122 71 69 76 56 60 77 76 111 81 68 50 136 134 42 1 30 25 -30 41 58 70 85 98 132 160 171 186 257 232 200 180 213 177 184 274 349 498 636 776 669
147 142 145 128 116 91 84 70 47 51 69 61 109 96 113 125 51 -0 28 25 6 45 62 65 71 84 94 107 135 194 185 206 248 273 252 220 165 164 258 391 479 604 645 591
197 189 174 148 99 136 139 87 20 36 72 84 35 82 88 115 40 88 99 3 40 67 87 63 62 71 80 88 104 100 160 197 241 259 265 265 208 227 226 288 359 459 498 476
103 141 167 148 103 62 43 57 28 15 8 26 38 102 102 8 81 99 44 69 76 81 61 59 64 53 50 75 88 59 112 165 206 243 228 239 259 256 219 281 373 332 577 493
20 23 44 60 1 9 15 22 -42 -66 -40 -26 21 -109 -49 -30 16 39 74 79 84 77 63 62 55 54 81 98 83 74 102 131 195 192 165 178 203 199 304 295 303 301 202 449
43 57 29 17 23 13 -5 1 -2 -13 -19 -31 5 26 4 30 47 44 57 68 62 63 68 52 59 75 88 85 72 94 97 139 110 89 87 106 145 190 210 191 201 192 185 85
5 6 14 20 22 21 5 21 13 -8 -4 18 47 68 93 71 67 56 58 57 59 60 61 67 62 75 69 66 53 69 99 40 29 47 76 97 107 98 102 115 167 188 193 184
15 6 1 18 41 5 5 46 57 34 10 15 34 56 49 46 52 52 49 52 53 49 52 45 37 39 52 51 35 36 37 18 11 27 51 56 62 78 82 97 105 113 126 114
7 34 14 3 7 12 16 14 30 28 20 21 30 36 41 33 40 45 43 45 48 50 40 26 20 39 56 67 50 36 18 13 8 17 22 30 45 63 75 66 84 86 88 84
40 54 19 12 -0 -20 -1 10 16 20 18 21 25 19 19 24 34 30 35 45 45 41 33 24 26 32 42 45 58 59 44 24 24 25 24 23 17 28 42 87 63 47 72 52
34 38 25 14 26 11 12 19 16 24 19 10 13 20 25 23 23 30 36 33 34 36 32 38 48 44 42 40 46 49 43 38 24 25 20 16 11 9 7 4 30 139 124 128

GFSCGP_con_3kmhel_108.txt.gz
Helicity
148 184 154 106 113 65 181 212 159 147 93 117 106 83 78 61 44 18 35 50 94 95 100 110 90 103 120 138 144 149 155 177 206 214 170 164 195 144 110 152 153 139 125 132
194 114 68 105 119 135 143 146 138 133 95 128 80 97 67 37 37 46 46 101 103 121 110 108 130 129 129 131 136 155 159 152 166 193 222 154 134 124 116 88 142 183 153 154
111 143 148 133 118 118 116 124 123 116 139 88 58 69 52 100 123 103 110 136 120 138 153 141 141 128 119 123 129 136 142 164 154 166 184 219 151 140 160 166 125 182 187 209
176 94 152 160 101 102 113 63 90 85 97 140 136 195 109 82 79 74 120 127 140 144 116 104 101 111 123 103 75 79 103 104 115 151 155 191 254 190 174 142 125 180 219 195
192 141 90 67 65 95 94 114 79 73 94 109 98 139 72 107 51 111 101 140 136 127 116 110 87 89 88 85 77 68 58 57 88 109 132 149 184 226 158 127 111 120 183 205
191 113 117 111 50 53 119 85 77 88 97 150 80 107 119 91 124 163 128 111 127 112 100 67 48 44 46 49 53 67 94 90 74 94 136 129 147 190 175 128 119 130 184 226
139 140 170 121 97 91 65 66 118 138 174 142 168 92 79 169 271 194 162 147 126 84 75 68 66 40 31 68 97 86 98 126 148 150 107 113 112 137 120 107 101 104 163 171
150 209 138 131 136 105 53 35 92 158 135 125 104 89 162 225 195 207 178 132 61 64 74 70 53 46 53 82 105 96 100 106 138 142 160 105 93 92 108 92 106 104 114 122
241 254 128 129 115 116 90 78 146 125 86 110 88 81 83 157 146 148 132 103 81 47 54 61 62 47 44 67 87 56 79 45 100 162 177 163 75 86 108 83 126 114 92 117
279 239 201 134 88 78 123 149 93 112 103 68 57 51 107 100 206 169 124 105 63 -1 20 54 25 39 49 55 55 50 54 29 78 158 159 170 142 111 66 125 115 134 100 118
129 90 100 99 68 66 74 79 105 144 119 92 62 94 262 340 172 128 112 52 -6 -45 -18 -31 -10 31 28 35 37 27 28 45 87 200 231 217 249 54 52 103 108 126 103 101
138 124 99 61 143 122 105 95 90 98 87 111 128 88 177 217 159 103 73 25 6 20 24 13 14 30 8 8 1 20 40 101 165 223 270 233 219 219 88 95 96 152 180 201
78 77 108 71 85 120 117 113 140 188 185 126 94 162 145 103 64 60 63 22 14 35 48 47 17 8 -13 19 16 53 51 105 147 244 280 277 273 292 293 142 154 157 164 165
148 113 96 64 156 149 104 105 105 135 179 90 105 74 123 97 83 83 71 27 40 55 61 43 -35 -21 17 41 40 96 107 133 150 206 272 312 336 344 294 236 286 160 148 160
142 69 81 89 121 114 105 89 63 72 83 107 80 95 98 75 69 144 71 42 75 64 54 44 19 23 51 77 102 126 121 148 203 193 247 349 239 216 237 195 364 346 282 195
143 97 100 83 83 78 82 56 45 59 80 74 51 60 29 55 200 79 49 84 53 43 26 35 36 79 81 90 96 125 160 176 204 180 254 281 199 226 228 247 271 346 401 428
127 130 114 111 110 107 91 69 50 52 73 60 77 46 40 113 99 72 74 70 3 36 51 70 84 68 60 73 85 101 146 145 156 220 316 302 248 130 87 184 298 447 635 673
151 147 164 174 127 140 215 183 124 94 65 88 45 -2 34 239 161 108 95 9 46 69 70 73 65 60 55 52 50 55 88 129 166 187 218 262 268 264 247 224 256 386 713 927
88 111 178 188 135 127 82 105 110 80 58 117 46 88 154 144 105 78 42 63 56 52 55 59 56 53 54 65 62 47 60 118 183 210 220 192 176 213 245 287 295 260 164 324
-7 -36 13 35 68 82 70 30 1 11 38 83 16 -19 51 -27 -7 24 53 50 53 68 70 64 59 50 59 72 53 45 95 128 158 165 183 161 171 194 202 246 296 317 292 340
31 24 -9 -3 -6 17 44 19 -6 10 -14 -30 -0 -25 -36 -3 41 39 40 63 62 66 69 57 55 74 87 72 45 50 63 96 67 45 62 112 138 152 146 164 189 222 234 184
5 1 11 22 33 26 13 -8 27 -12 -5 -0 43 64 75 69 74 52 56 61 64 65 63 53 46 55 63 79 58 48 50 16 17 23 59 76 77 86 98 98 126 153 160 196
4 22 20 6 31 -3 4 23 26 13 -0 19 33 55 71 70 56 52 54 62 65 64 57 48 39 36 48 54 46 48 30 -12 -12 15 36 43 52 61 72 94 94 94 97 88
-0 20 18 3 6 -5 5 10 21 12 16 13 30 40 39 41 46 49 55 59 58 58 57 49 43 41 45 42 36 28 4 -6 -6 6 9 16 37 53 74 53 65 66 71 54
32 47 12 13 10 -0 2 15 4 4 6 16 24 28 28 30 39 41 50 51 48 52 54 44 36 37 46 35 39 40 32 9 12 9 8 9 2 5 9 46 50 38 65 61
28 27 24 21 25 33 19 -4 -3 2 3 1 11 21 24 23 31 36 44 39 40 43 41 41 44 44 50 50 58 61 46 30 17 19 17 9 -3 -8 -12 -13 -9 50 58 75

GFSCGP_con_3kmhel_111.txt.gz
Helicity
69 113 255 83 45 25 98 157 194 149 86 100 140 105 89 58 35 60 29 42 34 25 132 164 115 119 127 145 153 144 116 121 154 187 224 201 119 133 144 143 158 186 201 160
100 187 80 59 64 89 102 94 96 110 84 89 141 93 56 27 37 34 30 26 57 128 110 148 145 133 143 142 142 146 148 126 105 118 172 233 284 215 123 182 178 171 203 195
141 104 60 150 94 89 98 90 95 104 81 55 83 76 33 15 8 16 63 77 222 233 197 151 128 131 127 130 138 147 154 144 141 132 119 130 118 165 262 148 161 203 183 192
74 33 37 89 144 107 126 87 66 101 121 133 20 104 35 101 93 125 185 161 238 182 146 141 123 105 93 84 84 99 109 116 113 122 123 152 152 183 200 141 147 141 164 188
121 121 112 152 116 101 94 44 58 65 110 81 79 110 83 15 102 84 115 243 177 131 123 101 84 95 84 78 65 56 67 67 85 100 117 118 138 168 165 210 291 163 157 137
59 73 139 104 46 28 29 61 104 97 91 155 81 59 77 52 94 116 294 196 117 132 112 95 91 73 59 46 31 24 36 60 75 98 105 111 110 128 155 183 266 249 203 165
56 133 61 102 218 180 90 88 150 135 146 126 28 27 44 174 259 213 215 191 108 94 90 88 73 80 74 61 51 59 77 66 82 98 119 134 126 135 152 157 166 265 283 217
140 183 25 58 51 60 26 18 149 211 142 44 48 108 118 216 244 286 292 170 110 103 93 85 71 53 54 41 44 48 51 70 85 96 98 106 106 123 144 143 149 157 223 201
147 133 109 135 106 145 63 48 16 63 53 108 47 52 105 97 176 238 232 186 198 144 123 79 50 18 22 27 38 53 50 59 66 74 93 117 108 123 99 94 126 91 136 184
63 107 76 135 105 89 162 123 167 141 193 132 93 85 36 192 212 176 143 142 130 81 44 -0 -8 12 10 39 48 67 63 60 71 66 79 52 79 123 129 106 85 71 90 145
147 150 133 182 133 129 173 278 179 192 163 153 104 52 104 184 174 101 151 130 101 53 4 -5 36 69 52 62 71 63 72 49 58 59 76 5 57 101 130 197 129 39 83 127
279 188 175 89 162 126 104 84 71 99 73 55 45 36 141 48 84 90 92 79 82 51 53 60 66 67 65 66 70 56 43 29 38 70 45 97 128 183 185 249 178 72 72 106
75 151 154 98 98 74 88 58 53 55 55 49 43 63 114 36 5 -9 -13 78 80 65 70 81 85 65 60 61 48 46 31 30 85 84 60 180 175 261 261 253 205 68 85 76
134 112 127 145 122 134 64 26 62 76 76 28 52 42 73 43 83 136 176 205 73 49 73 90 86 62 49 12 26 36 58 57 89 95 110 169 245 329 282 298 297 244 266 139
79 119 61 48 77 61 114 68 59 59 62 67 66 79 80 58 88 151 150 154 107 105 96 95 70 72 62 39 37 73 88 104 108 121 188 262 207 214 303 263 277 274 263 321
96 107 107 42 68 76 54 56 62 53 42 41 40 46 71 86 174 158 172 96 104 100 95 84 79 68 43 89 88 91 103 139 143 153 169 257 185 198 213 212 275 276 388 369
70 92 55 38 117 107 94 58 46 38 45 73 118 57 125 114 83 188 90 110 100 94 92 66 73 69 88 83 69 65 85 99 118 148 211 280 254 257 277 221 227 205 290 453
90 88 102 117 103 100 223 284 187 180 172 147 116 100 83 138 262 236 153 112 90 72 50 72 78 78 74 55 45 23 40 89 145 176 174 198 220 191 213 249 245 283 215 335
88 104 133 134 116 117 104 143 117 133 115 106 53 60 102 105 86 83 51 68 49 45 58 66 69 65 57 64 53 51 82 90 132 179 186 197 194 199 215 219 214 224 299 340
29 5 58 69 82 124 116 97 68 30 -5 80 77 58 62 8 -20 35 33 43 57 77 60 63 69 58 69 85 57 66 87 105 120 81 70 78 112 162 184 139 164 176 235 297
23 5 -22 -19 -2 39 82 54 43 22 69 49 28 31 11 11 6 46 50 64 65 71 65 40 44 75 93 80 53 63 77 92 42 27 32 56 63 62 65 87 112 126 149 182
22 5 13 -5 29 53 96 8 44 20 -19 -14 52 85 58 47 76 74 54 51 54 65 60 43 34 40 51 67 73 68 60 36 8 3 19 34 36 32 39 54 70 84 76 103
3 -7 53 27 60 52 -5 33 43 59 34 27 42 54 64 86 64 51 53 46 54 54 48 37 31 28 35 46 45 60 33 11 2 5 14 22 21 26 31 56 56 45 45 50
17 43 58 -4 34 -4 5 19 30 38 27 24 40 54 59 71 58 51 45 43 40 42 39 32 33 34 43 51 50 45 25 -7 -12 -1 -1 -5 7 22 37 18 32 43 57 26
32 10 14 34 10 1 5 10 5 6 10 19 29 37 42 44 53 46 42 41 39 35 35 33 37 45 55 52 48 45 33 7 5 5 3 9 6 5 2 -1 13 9 28 27
31 33 18 40 34 44 11 2 -4 -4 -1 5 17 25 30 30 33 32 37 36 30 32 32 44 54 48 56 58 56 42 33 23 11 11 8 -0 -9 -10 -9 -13 -9 33 26 41

GFSCGP_con_3kmhel_114.txt.gz
Helicity
97 124 216 139 86 64 80 93 146 172 157 52 47 64 83 49 39 49 66 76 59 28 135 265 263 223 246 182 182 158 122 108 111 162 217 267 238 199 143 126 118 140 167 153
137 207 105 49 60 77 99 124 157 73 39 56 93 126 130 63 71 62 37 52 68 26 219 218 238 261 194 154 128 143 168 150 124 124 149 165 177 173 204 240 237 139 153 197
104 110 48 43 55 34 56 70 82 70 50 44 74 82 60 66 34 22 30 40 155 251 311 279 271 194 120 99 79 115 126 136 121 106 98 107 139 169 197 151 160 208 200 186
97 51 28 40 65 46 108 66 47 42 63 143 53 141 60 54 14 62 68 229 357 296 293 352 273 187 102 112 81 76 80 84 91 95 91 103 82 81 120 164 245 291 154 142
61 63 34 69 53 30 55 46 98 197 234 149 121 174 137 13 2 167 240 368 380 389 357 293 200 111 81 89 84 65 64 59 62 66 64 60 72 72 74 90 142 165 243 289
-27 30 6 64 62 98 81 202 75 55 114 140 93 110 90 49 27 171 409 301 363 430 264 156 97 79 94 87 54 29 33 44 45 46 52 46 37 46 54 58 60 88 97 219
36 38 9 129 107 99 202 197 188 224 252 227 32 61 61 201 162 540 458 231 380 264 157 121 111 133 102 60 50 43 48 40 39 32 34 47 52 55 58 72 72 52 58 112
85 110 19 107 147 141 131 120 201 183 139 55 50 77 105 196 274 418 321 290 198 140 121 146 132 121 82 60 35 10 22 23 40 46 46 47 50 52 76 92 99 93 80 74
97 124 123 93 117 156 68 57 10 69 -25 14 22 43 41 112 150 216 249 191 137 115 139 137 102 37 13 2 -11 0 -9 18 44 58 55 62 70 79 87 90 89 107 91 87
83 115 117 104 178 170 200 124 151 164 155 104 47 41 84 22 124 122 152 147 134 163 147 86 38 6 -27 -27 -10 25 13 25 41 65 70 63 70 85 95 101 91 87 94 114
111 169 123 81 132 71 102 80 191 165 73 157 187 125 12 77 98 52 78 71 70 75 81 69 36 39 46 26 24 11 12 36 56 62 73 71 50 65 73 65 66 56 72 104
378 303 184 128 130 99 157 130 136 151 114 144 191 163 42 40 44 53 32 54 103 98 121 41 29 68 53 40 35 10 24 50 61 78 81 78 48 59 82 123 92 54 133 124
324 299 153 133 116 106 157 110 103 135 129 140 141 172 83 69 21 -22 -62 102 75 96 72 49 106 117 85 61 26 23 30 72 64 85 89 75 53 89 110 93 135 114 134 88
208 206 140 118 121 68 99 45 24 67 128 62 85 39 40 96 78 59 149 130 156 212 140 147 139 113 95 68 40 37 68 74 106 105 86 90 126 117 99 129 147 87 387 249
274 132 95 63 107 66 97 80 74 78 70 63 42 62 70 89 98 118 120 196 246 187 142 125 103 92 91 88 77 85 74 91 128 121 113 111 128 128 130 129 145 180 228 446
199 120 123 82 90 96 104 97 48 65 74 57 47 64 68 78 69 104 146 225 192 134 115 103 93 103 99 104 70 49 82 121 130 110 129 157 168 149 139 158 219 262 92 287
117 104 88 88 93 112 104 59 33 58 68 75 92 95 269 282 274 291 267 168 135 112 103 107 103 89 85 77 58 44 53 82 127 128 159 194 168 185 158 159 195 272 294 110
96 63 78 89 41 45 108 274 253 185 144 200 234 297 278 246 171 187 245 176 129 89 98 92 80 75 85 75 58 44 59 62 118 178 187 156 159 177 195 183 170 213 295 259
85 78 99 85 97 103 129 187 158 138 116 176 143 160 121 110 71 150 104 106 72 69 67 58 67 78 79 80 64 56 72 73 97 119 129 126 132 152 173 196 190 168 200 282
106 76 131 143 111 127 189 174 104 69 40 105 110 109 81 79 49 77 62 61 51 42 33 57 85 83 95 73 52 38 48 59 83 76 69 57 61 64 73 91 103 101 98 147
47 40 34 29 41 73 105 87 89 36 106 99 53 33 74 109 110 62 43 46 50 55 37 32 57 75 60 43 32 24 38 54 32 29 17 37 32 29 23 31 59 48 56 84
33 35 23 -10 19 51 150 75 76 103 89 33 35 162 215 106 73 84 74 62 62 66 57 44 42 30 31 30 45 24 36 42 26 16 26 24 14 19 41 36 24 24 31 53
57 43 47 92 99 90 76 82 102 80 81 75 113 92 60 44 78 60 53 47 56 51 55 50 35 15 23 43 62 58 3 12 16 0 -2 -13 -7 8 8 48 50 44 34 34
40 15 39 27 65 45 39 44 59 69 70 62 49 60 67 89 31 31 32 34 44 49 47 36 22 25 32 37 43 46 56 -17 -20 -3 -14 -17 -25 -27 -19 -17 0 7 23 -7
64 43 81 83 44 35 45 38 35 34 24 41 43 46 53 55 47 41 39 43 41 47 43 24 18 22 32 45 57 56 38 25 -7 -11 -7 -8 -12 -13 -11 -42 -54 -76 -49 -29
28 46 22 47 48 73 54 30 27 23 9 12 20 27 38 41 43 41 48 35 34 38 25 21 23 32 47 55 63 51 46 33 9 -2 -3 -7 -14 -14 -26 -34 -33 6 -1 16

GFSCGP_con_3kmhel_117.txt.gz
Helicity
122 170 255 86 73 89 111 143 167 156 125 95 148 107 49 -10 59 91 76 140 109 245 351 541 621 615 533 419 389 297 222 197 113 110 132 158 177 171 145 133 180 134 82 145
96 169 151 63 78 102 124 143 149 108 64 69 99 110 90 32 3 75 86 91 142 503 537 462 449 504 382 303 281 252 230 173 109 61 79 72 94 90 113 123 154 220 152 135
76 138 35 64 80 75 81 104 98 78 84 138 130 153 175 95 43 106 151 124 180 630 765 534 501 474 433 331 227 205 179 118 65 61 40 50 60 61 50 75 85 155 187 207
139 79 60 56 82 55 109 75 60 115 199 187 91 151 45 45 82 23 59 277 557 668 684 617 544 447 364 226 133 139 96 72 70 52 33 31 -4 36 67 67 55 45 67 123
38 28 34 63 44 20 71 111 171 81 64 85 79 210 169 154 136 77 173 468 749 675 439 558 474 295 198 121 105 68 45 53 43 37 44 29 33 16 -4 9 61 72 44 37
55 36 34 24 23 94 66 92 99 129 195 219 169 160 108 128 59 190 447 537 620 563 479 416 293 216 129 101 91 57 53 25 23 22 31 38 41 36 30 34 8 2 37 30
47 41 57 33 61 215 132 154 171 120 163 208 120 115 208 186 290 210 458 565 379 369 391 233 135 157 147 49 28 21 1 -8 -23 -21 -5 2 15 28 26 28 35 49 17 8
98 106 100 108 128 159 109 169 219 142 154 79 44 144 161 183 569 477 442 565 445 368 334 129 51 26 27 18 -20 -33 -34 -37 -43 -44 -30 -15 11 6 21 21 20 33 42 51
140 127 133 130 73 190 213 187 141 158 93 80 85 125 204 292 116 291 118 296 298 314 195 182 -23 32 7 -18 -28 -48 -46 -38 -32 -20 -21 -6 8 26 23 31 25 40 46 71
110 119 182 134 167 140 201 185 245 242 142 103 79 41 71 6 53 22 -6 -17 53 63 79 55 18 -25 -31 -24 -21 -18 -39 -43 -29 -6 -1 10 39 53 56 50 42 47 74 91
188 299 263 174 172 122 145 192 237 212 191 121 110 63 37 -8 -19 -60 -28 32 63 69 59 39 22 22 -9 -37 -7 -10 -29 -34 -25 -2 17 38 62 74 82 77 66 76 95 92
300 249 262 170 172 238 173 133 101 156 164 174 133 68 44 -33 -47 -89 51 99 135 106 97 50 31 -25 -57 -13 7 8 -12 -9 -4 26 40 58 77 81 90 82 66 57 49 45
263 280 267 294 253 176 157 149 104 177 207 214 205 225 111 -15 -32 208 253 222 154 137 76 -5 -20 -5 15 31 31 15 22 35 61 73 86 95 100 112 103 75 68 49 92 51
291 279 303 273 292 205 188 123 100 164 210 171 136 79 74 96 121 106 134 216 219 138 85 18 -4 41 52 46 34 32 48 70 95 115 128 126 122 120 73 85 91 118 126 126
252 307 292 298 161 130 61 43 94 118 107 176 102 113 46 106 198 191 253 236 193 104 64 64 66 64 65 63 63 74 66 97 138 149 166 181 156 120 107 116 93 116 201 205
252 287 287 180 96 78 136 105 141 154 116 111 101 124 291 261 280 287 187 125 51 32 80 98 100 109 105 108 71 41 64 91 123 147 175 214 166 174 145 143 184 226 293 306
308 276 224 107 101 125 129 125 145 109 182 204 198 243 128 180 210 174 129 94 92 82 114 112 118 97 95 73 63 72 72 75 90 144 170 173 173 142 180 197 178 234 268 247
144 137 144 118 102 85 171 225 198 159 258 213 162 166 165 167 154 169 143 125 85 111 148 124 112 106 81 70 77 77 76 72 73 103 128 120 131 136 150 174 179 160 161 272
114 131 147 145 118 106 169 210 192 166 159 214 205 128 117 96 104 125 113 111 121 116 99 86 106 98 92 86 73 57 55 48 62 89 97 107 95 74 57 62 62 71 114 167
171 164 176 179 147 104 138 137 107 94 95 121 128 136 105 79 88 68 115 103 76 71 64 77 91 98 92 83 45 34 35 44 51 45 53 57 40 49 48 21 21 -14 -2 42
168 169 130 132 165 134 105 86 81 100 60 89 80 59 63 130 94 124 88 74 57 8 7 40 68 84 99 93 53 26 44 49 50 14 33 47 63 48 45 22 34 25 2 21
110 98 98 77 74 41 88 83 103 151 158 120 102 129 202 272 159 124 96 78 78 58 39 32 43 60 72 90 86 50 27 50 32 -2 -20 8 35 42 63 50 46 40 42 48
95 55 84 69 69 91 97 130 140 150 101 87 109 120 134 116 99 93 77 65 58 55 36 49 69 62 65 58 49 75 61 4 32 19 -3 -31 -23 1 26 56 61 62 45 30
74 66 62 61 66 79 86 67 94 96 93 91 90 88 56 64 69 55 58 58 56 52 53 69 55 43 38 51 59 61 73 25 18 21 17 -4 -16 -28 -22 -17 -11 5 36 28
92 89 101 103 108 112 76 70 65 73 75 74 67 64 57 58 49 53 51 52 48 44 48 35 21 14 41 61 77 87 85 57 35 30 29 13 -2 -11 -31 -43 -47 -64 -32 -22
77 75 64 37 70 68 73 63 53 57 44 38 52 53 49 52 55 61 63 49 48 43 24 6 15 21 37 66 97 111 76 55 26 15 15 9 -13 -22 -33 -51 -63 13 26 26

GFSCGP_con_3kmhel_120.txt.gz
Helicity
129 242 242 98 117 134 132 112 89 117 91 121 124 140 126 101 14 39 48 26 144 359 470 660 658 637 625 667 575 429 326 284 219 170 144 114 166 201 137 85 107 127 131 184
171 157 99 139 123 100 104 108 102 95 83 99 152 154 108 80 44 -32 26 84 83 467 677 765 775 737 686 613 573 442 296 216 135 116 128 109 128 93 102 63 78 89 107 103
164 123 65 85 81 98 106 140 125 115 111 102 100 84 99 26 7 0 -51 15 77 446 712 791 709 669 642 651 495 308 203 187 154 129 101 88 61 62 46 52 49 68 97 89
152 96 55 63 118 63 85 77 80 129 120 107 75 119 80 53 39 43 66 91 295 529 659 652 731 714 585 496 347 255 193 172 149 124 67 11 -14 26 48 49 33 61 72 86
193 158 99 123 30 52 47 10 75 97 80 98 49 150 123 64 10 108 254 435 606 632 582 590 584 466 417 312 213 197 129 111 105 104 60 21 6 -21 -6 4 23 39 40 48
84 61 104 74 69 76 56 146 164 123 133 165 104 155 140 92 69 267 403 436 525 605 628 538 468 319 264 167 111 88 81 97 36 17 24 18 8 11 -5 -15 -32 -22 1 26
95 70 128 130 100 114 136 203 170 165 232 183 160 107 231 147 322 396 603 778 650 583 632 611 550 399 144 101 67 69 35 29 23 9 -8 -13 -13 -18 -35 -24 -23 -11 -13 8
135 157 92 67 88 79 138 181 184 154 156 99 113 117 132 138 205 352 431 358 491 162 247 418 212 126 36 19 10 2 -8 -14 -1 1 9 -2 -19 -40 -32 -28 -8 -1 4 13
120 119 166 136 99 111 131 190 131 199 153 143 86 134 92 108 119 207 24 52 77 95 -1 99 111 16 -29 -66 -38 -35 -37 -21 8 0 7 15 3 3 -10 1 8 10 11 10
143 111 137 188 166 139 113 113 193 236 184 162 117 89 89 42 9 -4 10 -61 -33 17 49 64 41 -13 -30 -62 -116 -94 -90 -48 7 44 41 17 3 13 18 15 18 25 26 23
256 168 109 166 163 178 185 231 261 218 255 270 210 135 81 -5 48 20 20 48 67 119 102 51 31 22 -16 -29 -25 -45 -17 15 38 41 30 33 38 43 36 14 20 43 58 51
150 156 151 197 197 162 189 215 260 326 252 251 211 139 88 32 11 242 296 157 139 135 81 50 21 9 -9 -11 -12 22 31 25 -4 -14 18 52 53 57 55 49 72 88 79 53
129 155 195 239 251 245 211 230 247 264 232 136 184 198 119 135 175 298 289 225 143 99 78 50 33 21 56 63 33 28 39 37 20 31 45 73 105 102 98 108 115 115 106 86
206 229 206 188 202 189 267 304 243 167 256 217 166 128 131 180 252 301 314 293 244 187 159 83 33 36 31 11 24 28 18 22 54 89 115 128 144 148 142 152 139 140 110 87
245 187 191 212 229 208 281 196 77 159 124 145 107 135 194 207 311 305 314 296 221 154 92 57 13 5 30 49 51 40 28 43 81 97 103 121 126 145 136 165 198 218 195 158
258 159 214 229 207 226 232 79 86 94 112 150 172 239 195 327 397 345 270 221 165 113 75 3 -17 41 80 97 104 99 104 97 60 49 68 79 114 147 181 173 192 207 263 320
203 215 243 230 192 207 230 152 75 88 169 165 157 188 233 282 260 242 213 183 145 108 59 51 123 156 165 161 141 142 89 14 8 51 63 76 96 117 115 131 141 173 173 267
204 207 264 213 232 202 147 178 188 229 246 238 217 161 137 132 181 206 192 134 98 63 75 135 154 150 132 102 90 45 39 52 52 46 41 52 60 54 65 57 41 77 119 146
186 217 213 235 196 172 140 164 167 147 144 193 166 168 152 119 103 102 120 121 102 91 118 137 131 114 102 95 81 73 74 82 86 62 43 33 29 56 47 47 49 30 42 95
221 181 213 202 184 105 88 161 105 87 96 104 157 101 106 106 106 119 106 89 79 91 115 133 127 141 130 113 101 88 44 2 17 59 59 45 53 45 47 48 39 39 9 17
269 242 202 199 166 135 143 104 73 121 62 101 118 104 91 117 96 126 123 80 39 42 77 69 98 119 123 122 90 51 39 51 38 34 45 43 44 46 46 29 43 42 40 49
185 177 143 181 158 82 65 72 77 99 128 121 115 104 153 249 217 175 142 112 76 51 45 57 96 118 125 95 69 54 49 56 53 22 9 27 38 29 37 42 57 64 53 56
132 132 107 88 70 73 93 101 127 128 127 97 105 115 166 195 162 129 114 105 88 60 58 78 95 96 82 77 61 65 76 56 52 28 10 -15 -7 7 5 9 16 32 44 40
149 123 105 108 69 92 116 119 112 107 112 119 108 102 93 85 80 93 85 77 65 59 56 59 70 70 80 94 89 85 77 43 23 4 -10 -25 -34 -35 -36 -17 -15 -10 17 2
100 117 139 123 115 121 112 106 90 107 110 114 87 69 56 81 78 80 73 64 58 46 43 49 55 69 85 113 119 102 66 36 7 12 4 2 -7 -15 -31 -35 -22 -31 -23 -14
140 111 85 44 63 56 53 63 69 75 69 64 82 74 61 71 92 89 81 63 41 36 49 52 51 55 76 96 91 92 71 22 15 24 14 1 -15 -24 -34 -48 -45 11 18 40